GFSSE_sfc_rhum_000.txt.gz
RH
64 78 74 72 80 71 67 64 61 60 56 52 48 53 57 61 57 56 57 57 62 56 57 57 55 56 59 54 59 67 67 65 61 60 66 65 62 63 62 67 68 68 63
62 68 78 77 78 69 64 63 60 58 56 53 52 56 60 61 60 57 58 60 62 58 56 57 57 58 58 60 65 66 66 65 60 59 71 76 73 62 66 63 61 60 72
55 61 74 79 75 69 64 61 62 59 58 55 52 57 63 58 56 56 55 54 58 61 58 58 59 53 54 58 67 66 65 64 62 62 72 71 72 63 60 60 62 65 67
50 59 71 82 77 69 65 62 61 57 57 54 55 60 64 61 55 59 59 56 52 54 57 58 60 55 54 54 58 62 66 63 62 66 66 57 58 60 62 58 60 62 62
53 53 64 83 76 70 64 62 60 56 58 55 64 63 63 60 54 56 55 52 54 56 54 56 60 56 55 64 60 66 62 61 63 66 62 65 73 57 56 58 57 58 60
50 70 84 84 76 72 69 64 61 58 58 55 56 65 65 60 57 56 51 52 54 55 57 55 58 58 56 60 60 59 60 60 65 68 65 66 65 55 57 57 57 56 56
48 70 78 85 76 71 65 66 62 59 59 54 58 62 59 62 57 56 59 57 59 62 60 59 59 59 62 60 61 62 61 63 66 64 62 68 65 54 53 53 55 55 53
46 60 75 82 78 74 69 66 65 63 61 59 62 59 57 50 58 60 60 66 63 63 60 58 58 61 62 61 59 62 61 68 56 56 63 69 61 52 52 52 53 54 54
45 53 69 75 76 78 77 73 71 67 67 66 63 61 63 66 65 66 69 71 69 63 59 56 52 56 63 62 62 64 63 69 72 61 49 70 63 50 52 49 50 52 53
48 47 58 65 68 71 72 78 75 75 72 73 73 74 75 77 75 74 78 76 71 66 61 52 49 52 61 65 64 62 71 72 70 58 62 73 58 50 50 48 46 47 47
46 48 47 55 60 61 59 73 80 80 76 78 77 79 81 78 77 75 79 79 72 68 62 52 51 56 61 67 66 69 75 80 58 58 69 69 57 52 50 50 46 46 47
55 51 49 52 54 54 40 71 71 71 80 78 74 86 79 70 70 66 84 83 73 72 68 58 54 57 66 62 66 76 89 68 54 54 73 71 60 56 54 53 51 49 49
54 54 50 52 54 54 48 69 65 66 67 66 66 64 69 58 77 77 93 92 94 90 88 73 74 77 68 59 61 77 72 57 45 43 63 74 62 59 59 58 58 54 53
51 52 51 50 56 55 54 53 59 62 63 66 64 58 66 68 69 73 74 82 83 84 88 80 74 67 56 47 48 42 46 44 45 38 61 78 67 58 61 61 59 58 54
43 46 50 54 55 58 56 54 53 58 62 61 63 59 63 69 68 66 67 69 69 68 70 69 65 59 58 50 45 40 37 38 38 42 40 82 78 65 58 58 58 58 58
36 40 43 50 56 57 59 60 55 55 58 60 64 66 59 66 69 67 65 67 69 68 66 66 64 60 61 61 53 43 38 38 39 39 46 53 78 72 56 52 53 53 53
35 35 38 44 54 62 60 60 61 62 56 63 62 61 62 64 69 67 66 68 70 68 65 67 65 64 64 59 62 52 44 40 40 39 40 45 64 75 66 50 49 49 50
37 37 36 32 45 59 62 63 63 64 64 66 64 63 61 61 67 72 72 68 68 70 71 73 73 73 73 71 70 67 56 50 46 42 41 39 44 50 70 68 62 54 52
34 37 39 40 43 54 61 62 65 63 65 67 67 65 61 58 60 65 68 68 65 70 72 72 74 76 79 78 72 68 67 64 55 38 43 43 47 49 47 67 73 68 66
28 30 36 42 43 47 58 64 70 71 70 69 65 62 62 57 58 63 65 67 66 65 71 76 76 78 76 78 59 57 64 62 65 66 61 50 54 52 55 52 60 70 76
26 29 32 35 44 50 61 70 78 75 78 76 68 64 63 59 58 61 64 66 68 67 64 66 71 75 75 80 83 84 81 74 70 64 68 65 61 61 60 51 52 51 52
41 39 36 33 38 47 55 63 67 71 69 66 68 65 63 62 63 62 64 68 68 70 71 67 69 76 74 83 79 91 88 84 71 62 58 56 56 57 58 52 54 56 59
54 51 44 42 40 42 49 60 65 68 74 77 70 71 71 67 67 68 66 68 72 71 74 73 70 74 79 87 72 75 93 88 88 75 65 59 59 75 73 65 59 54 54
56 57 50 42 40 38 45 56 64 71 77 74 72 71 72 71 67 68 69 71 72 73 75 76 73 72 71 75 80 68 68 73 88 84 78 70 63 57 56 61 52 58 55
56 56 51 45 42 42 42 45 56 68 70 72 71 68 67 67 66 68 70 73 73 72 70 74 74 71 69 76 78 76 77 76 74 80 82 72 70 62 59 57 58 59 54
56 55 51 44 41 42 49 54 57 58 61 65 68 70 69 66 69 75 73 74 74 75 76 77 77 77 78 76 75 76 77 80 82 82 85 82 76 64 63 56 56 54 60

GFSSE_sfc_rhum_003.txt.gz
RH
91 85 76 74 80 76 72 68 65 60 58 52 56 55 57 60 57 57 60 62 60 59 57 56 56 65 60 57 67 68 67 63 58 63 64 64 64 62 66 63 65 70 66
85 80 79 75 79 73 69 66 64 61 58 53 53 53 61 62 60 59 64 65 64 57 59 56 58 60 57 59 66 67 66 62 57 60 71 79 75 65 63 61 62 68 71
80 78 77 82 77 70 68 66 63 59 59 55 54 61 64 63 59 56 57 57 63 62 60 60 59 57 55 68 70 69 64 60 59 62 71 76 74 62 61 63 67 68 70
72 81 81 84 78 70 66 66 64 62 58 57 58 67 68 65 62 61 61 56 54 60 59 62 56 53 52 52 65 63 64 61 64 70 70 69 59 61 57 59 62 63 66
71 75 80 85 79 71 67 66 63 59 61 59 64 64 66 64 59 58 57 54 59 58 58 60 61 57 55 52 66 65 58 60 65 69 67 78 78 54 56 57 58 58 60
73 76 86 86 78 76 72 66 64 59 58 57 65 69 64 64 61 57 55 53 58 58 59 57 61 59 54 58 62 61 59 60 65 69 77 66 67 57 57 56 56 56 55
87 85 85 86 80 75 69 68 65 62 60 58 66 67 63 62 54 59 61 59 61 64 62 60 60 62 62 62 64 64 63 63 71 71 80 74 71 55 54 55 55 53 54
80 83 83 86 81 76 73 71 68 64 62 58 61 64 62 58 62 64 61 64 64 68 66 62 61 63 66 63 63 66 65 69 65 69 75 77 66 56 54 54 54 55 54
77 86 91 85 80 81 78 76 73 71 64 68 64 65 65 67 69 64 66 71 67 70 64 62 58 60 66 66 65 68 67 72 78 69 64 75 67 55 54 52 54 54 55
76 82 93 91 86 87 87 81 80 76 73 73 75 75 75 75 78 76 80 78 73 70 67 63 56 54 58 65 68 68 75 76 80 64 72 77 59 54 55 52 51 51 53
56 72 83 88 87 84 80 82 81 79 75 77 81 82 82 87 86 87 86 85 78 73 69 62 54 56 66 74 72 74 77 92 84 62 72 72 60 54 54 55 52 50 50
63 59 65 78 79 81 60 77 90 84 89 90 89 91 90 90 86 76 88 86 78 76 74 65 57 61 72 75 81 80 90 90 81 66 72 75 62 54 54 54 54 52 51
66 64 59 68 70 73 64 81 85 91 95 93 89 90 90 78 89 92 98 96 96 90 94 81 77 76 82 80 69 74 89 90 74 59 60 80 65 58 56 58 59 58 56
67 64 61 61 68 67 67 80 77 77 83 84 81 80 86 88 90 94 97 98 98 97 98 97 94 87 85 72 69 75 84 77 66 55 53 85 74 63 59 59 62 63 62
63 63 65 65 70 71 69 69 76 72 75 73 76 74 75 81 82 83 88 90 93 90 92 96 90 78 76 68 56 55 54 57 55 50 47 85 82 72 60 59 60 62 62
52 58 61 63 69 71 68 64 60 70 74 74 74 75 70 73 76 77 77 75 78 77 77 80 78 72 68 67 56 52 49 46 44 44 50 53 84 79 68 57 56 57 58
44 49 56 60 61 73 73 70 58 61 64 68 69 72 70 71 76 74 72 71 69 73 72 75 77 74 72 66 70 64 51 45 42 41 44 51 56 81 76 53 52 52 55
46 44 48 47 59 65 78 75 70 62 63 65 63 66 69 67 72 76 73 68 69 74 73 77 76 77 79 74 74 71 66 58 50 43 41 40 45 44 70 72 63 61 60
46 45 46 48 60 66 65 69 75 68 66 65 70 64 60 66 67 68 68 71 76 77 74 73 79 77 78 75 73 72 69 68 62 48 48 44 42 44 48 59 73 67 65
38 38 48 48 49 65 67 69 81 81 72 80 69 66 69 61 66 72 69 71 82 75 73 88 75 87 73 72 66 63 71 64 64 64 56 46 45 47 47 45 49 65 73
52 50 46 43 55 55 81 83 86 75 92 90 85 76 75 71 69 74 70 79 84 75 70 71 75 82 75 92 88 77 81 76 69 63 59 59 57 56 53 50 51 51 51
62 59 52 48 47 57 62 71 81 88 89 85 85 82 79 77 75 74 70 72 76 76 77 75 76 75 75 87 78 94 84 82 76 66 65 64 60 56 58 60 56 54 55
61 62 55 49 46 49 61 72 75 80 84 88 89 88 83 78 74 75 70 72 74 79 77 79 78 77 78 90 81 77 95 94 94 86 76 65 63 64 63 58 58 56 55
61 57 50 50 51 49 52 60 70 78 81 83 82 80 79 81 76 74 74 76 78 80 80 79 78 78 74 78 91 77 72 85 91 92 88 81 76 67 68 70 66 64 60
61 58 53 49 48 49 51 61 67 69 76 79 79 78 78 75 79 79 77 78 82 82 82 78 76 83 82 80 78 78 87 80 78 82 83 70 86 71 66 64 59 57 54
60 58 57 52 52 51 51 50 53 56 67 74 79 80 80 79 77 78 85 84 82 81 83 81 80 77 82 84 82 78 81 88 83 90 89 82 76 67 74 62 56 54 54

GFSSE_sfc_rhum_006.txt.gz
RH
93 86 77 77 79 77 74 70 67 62 59 56 56 56 56 61 57 61 59 62 60 57 57 55 56 69 62 66 69 68 64 58 62 63 62 64 60 65 64 62 70 72 64
88 87 80 76 80 77 72 70 66 63 58 52 52 52 60 62 59 60 63 64 61 57 57 57 54 63 59 59 67 66 64 58 60 63 70 79 75 59 61 61 70 73 71
82 82 79 81 81 74 70 68 66 62 59 54 58 57 68 64 60 58 58 60 67 63 57 57 53 59 59 72 69 66 62 59 58 63 68 82 78 62 61 68 67 71 70
82 83 84 85 78 72 71 68 65 61 60 56 57 66 67 64 63 62 60 56 55 58 60 63 54 53 54 60 68 66 62 59 62 70 76 74 64 60 59 61 63 66 66
85 86 84 87 79 72 69 69 65 63 60 59 59 67 70 64 64 61 58 56 59 60 60 64 59 55 53 52 62 65 58 59 67 66 75 83 82 58 55 55 60 60 62
92 94 90 87 79 76 71 68 65 61 62 61 70 70 68 65 63 58 56 58 60 59 59 59 63 59 58 55 56 60 57 59 67 72 85 74 70 56 55 56 57 56 53
88 94 89 87 81 75 71 70 66 62 62 59 61 66 65 66 60 59 59 58 61 62 63 60 62 64 58 62 66 60 63 62 72 73 83 78 74 57 56 56 55 54 52
85 88 88 87 84 79 73 72 69 65 65 61 63 66 64 62 60 60 64 63 63 69 69 65 62 63 67 66 65 67 68 71 70 71 83 81 71 57 55 55 57 55 54
90 93 93 90 86 82 78 78 74 69 71 68 62 66 69 69 68 67 65 69 68 69 70 67 63 62 65 67 66 68 73 75 82 73 66 83 71 57 56 57 58 59 57
94 93 97 95 89 90 89 83 79 77 77 73 72 76 77 76 77 73 79 77 72 74 72 68 65 60 60 67 69 70 78 80 86 75 66 78 69 56 57 55 56 58 58
91 96 97 96 94 94 92 86 82 82 79 77 81 82 82 89 88 88 88 85 80 76 74 71 66 59 63 70 74 77 80 96 90 74 65 75 68 56 56 58 55 54 55
83 94 96 96 94 92 72 86 93 85 88 88 91 91 92 92 91 84 92 87 79 80 78 74 69 65 70 87 90 84 95 93 93 80 67 62 70 61 59 58 58 55 54
71 71 85 94 92 89 76 87 98 97 97 96 93 94 94 87 95 94 98 96 97 90 94 86 87 84 84 90 85 82 87 94 95 78 58 62 64 65 61 57 59 59 56
72 67 67 82 90 90 78 86 92 91 95 98 96 94 96 95 96 96 98 95 97 97 98 98 98 94 89 88 89 77 74 84 85 74 66 64 68 68 61 60 59 61 61
70 68 67 72 78 78 83 92 91 84 86 88 91 87 87 90 92 96 96 97 97 98 98 98 98 94 95 91 80 72 66 75 79 69 62 66 70 77 64 61 60 61 64
61 62 65 66 68 72 70 84 82 80 80 84 82 82 81 81 81 85 85 89 90 96 94 94 94 93 89 83 75 67 60 59 61 60 57 53 65 81 75 58 59 60 60
57 55 64 64 67 72 69 68 68 74 73 79 78 77 76 76 77 74 77 77 79 90 90 90 90 90 88 79 73 67 58 55 51 48 44 44 50 70 82 65 57 61 63
56 51 57 53 63 69 68 70 62 60 66 70 72 75 73 73 77 81 80 80 80 83 85 84 79 80 85 81 70 73 63 65 58 50 44 41 42 40 53 76 70 62 61
43 55 53 61 64 66 69 72 76 66 64 63 76 74 70 74 76 81 82 82 82 82 82 80 77 84 73 80 78 73 74 71 67 57 54 47 42 43 43 51 66 72 65
56 51 52 56 61 73 73 82 92 89 75 78 72 71 72 71 73 80 75 77 85 85 80 87 79 82 78 72 71 69 69 72 68 65 62 56 52 48 44 42 44 53 72
62 57 53 49 52 73 91 94 94 82 90 93 84 76 76 74 72 76 74 74 83 81 74 74 77 79 79 91 95 78 78 78 76 70 66 65 61 57 53 50 48 46 46
61 62 57 52 52 66 79 84 85 89 94 91 90 87 82 82 77 75 74 72 75 81 81 79 80 79 78 89 87 85 88 73 73 72 70 68 66 62 61 58 53 50 50
62 59 53 55 59 60 71 80 84 86 89 89 91 92 90 87 83 82 76 76 75 81 80 80 85 86 82 74 81 84 97 94 92 89 86 77 72 72 70 63 60 61 57
64 59 55 54 52 49 63 67 73 80 81 85 88 88 84 84 88 87 84 82 81 80 84 82 80 84 82 88 80 80 77 78 92 84 81 88 86 78 73 72 70 66 63
64 63 60 56 52 54 54 58 66 65 79 82 79 72 71 74 74 78 87 91 90 86 84 83 84 87 84 89 88 86 89 89 84 93 95 78 69 77 72 71 68 68 67
63 63 63 58 58 57 57 57 58 60 60 61 64 68 68 71 75 68 62 75 91 94 92 87 86 89 89 91 90 88 89 93 90 92 96 88 85 71 67 73 70 65 62

GFSSE_sfc_rhum_009.txt.gz
RH
91 89 77 79 77 80 75 73 70 65 63 56 55 55 52 56 55 61 54 60 59 56 57 56 61 69 67 68 70 66 61 56 62 62 60 61 60 64 63 66 65 73 61
87 84 80 77 80 76 74 72 69 65 58 56 54 50 58 61 59 57 60 64 58 57 51 50 52 64 62 55 65 66 62 57 62 65 69 77 77 62 60 61 73 75 68
88 86 80 81 80 77 74 72 68 64 59 54 55 52 67 64 64 60 60 61 64 60 51 55 54 63 56 67 68 65 62 59 59 65 67 84 85 61 63 67 72 71 69
85 86 86 83 82 79 74 70 68 63 60 56 57 63 69 62 58 60 55 56 53 54 59 62 54 55 55 70 70 67 60 58 63 70 79 79 75 61 60 63 65 67 67
91 89 85 86 83 76 74 71 68 64 62 59 61 68 71 67 62 62 58 57 57 57 61 64 61 55 55 57 55 64 59 57 67 66 83 84 85 61 57 59 61 62 63
95 94 89 88 79 76 73 72 68 65 62 61 62 63 73 67 62 62 58 58 62 61 61 62 65 63 59 58 58 58 63 58 69 73 88 84 79 61 57 58 59 58 57
95 96 94 87 80 76 73 72 69 63 62 62 68 68 67 65 60 57 59 59 62 62 64 61 62 66 62 59 63 65 64 64 75 75 86 88 75 59 57 57 58 56 54
93 96 96 89 85 81 76 73 70 65 64 61 60 62 62 66 62 59 64 63 63 66 67 66 63 62 66 66 66 66 69 75 73 73 77 87 78 59 58 59 59 57 56
89 96 98 95 90 85 80 78 77 70 69 68 66 67 70 72 66 64 66 66 67 68 72 71 68 64 64 65 67 67 74 80 88 79 67 87 78 60 56 58 58 60 58
96 96 98 98 96 94 90 84 81 77 77 77 74 76 78 78 77 74 77 76 71 72 73 73 71 68 63 64 68 72 77 82 92 84 74 78 73 66 57 59 59 59 60
94 98 98 98 97 95 93 89 86 84 83 81 79 84 84 89 87 88 89 86 78 76 77 75 73 70 70 71 72 76 81 96 95 90 75 67 68 69 59 58 60 58 60
96 97 98 98 97 96 81 92 94 89 94 92 88 91 94 93 93 85 93 89 81 79 79 76 74 74 77 85 92 85 94 96 97 95 81 66 63 67 63 58 61 59 57
87 95 97 98 97 96 91 96 99 98 97 96 92 94 95 92 96 97 98 97 98 95 97 92 93 95 90 92 95 95 92 95 98 95 80 69 64 64 65 63 62 62 60
76 76 90 96 98 97 92 93 95 95 97 98 96 94 97 98 98 98 97 97 98 98 98 98 99 97 95 92 92 92 88 82 84 84 87 74 66 62 61 64 64 64 62
74 73 73 92 95 95 96 93 97 93 96 96 97 96 97 98 97 97 97 98 98 98 98 98 99 98 98 96 94 91 83 77 74 71 76 74 70 62 61 62 65 63 62
72 70 71 72 84 89 89 94 92 96 93 97 97 94 94 93 96 97 96 97 98 99 98 98 97 97 96 97 92 89 79 70 68 68 70 70 70 68 61 58 61 62 61
64 63 68 70 72 83 84 87 88 89 86 91 87 92 93 92 93 90 94 94 92 97 96 96 97 97 97 93 90 82 78 72 65 60 56 54 56 67 68 62 56 61 65
53 64 61 56 69 75 74 79 74 81 85 83 85 89 87 84 86 92 85 85 85 88 88 89 86 88 89 87 81 77 73 69 66 60 55 51 50 46 50 60 66 66 67
57 55 59 65 71 76 78 80 78 72 71 71 83 84 80 81 83 82 84 80 89 85 86 83 82 86 78 79 84 77 76 74 69 62 62 59 55 51 48 54 61 66 69
65 58 56 61 72 79 83 90 94 91 81 77 76 74 75 75 78 82 78 79 87 86 84 89 84 84 82 75 71 71 74 75 76 72 69 64 62 58 53 49 50 52 66
56 60 61 59 63 82 93 95 96 95 94 95 93 82 77 77 76 80 76 76 81 83 76 76 86 86 85 88 87 79 75 75 76 74 71 70 69 66 63 57 53 51 50
61 59 57 58 64 77 91 93 92 94 94 94 94 92 89 86 84 82 81 78 78 84 86 85 87 88 86 86 86 92 94 81 85 79 76 75 73 70 69 67 63 57 57
65 64 57 57 53 62 75 86 88 87 88 85 88 90 87 86 91 94 93 91 88 92 87 85 90 92 93 85 82 88 99 96 91 87 89 80 77 78 76 71 67 65 62
68 66 61 58 54 51 59 61 74 82 80 84 89 82 74 74 75 76 83 91 95 95 96 92 84 86 90 95 88 82 82 83 95 91 79 86 78 77 75 77 74 70 66
67 68 64 60 58 62 61 64 67 68 72 75 73 68 68 67 71 68 66 73 73 77 86 94 94 92 89 93 92 91 90 92 91 98 95 80 73 78 72 73 70 70 67
66 66 67 63 64 65 64 68 71 73 72 70 73 71 72 70 72 62 60 64 69 71 74 73 76 83 90 93 94 91 90 91 90 94 97 92 89 81 70 70 72 68 66

GFSSE_sfc_rhum_012.txt.gz
RH
92 90 78 81 75 76 77 74 72 70 63 59 59 56 53 55 54 50 51 57 57 55 58 57 59 69 70 68 68 65 60 57 62 62 60 62 62 66 62 66 62 69 61
88 87 81 80 78 79 75 73 70 67 63 59 54 49 52 57 58 54 56 61 52 52 51 51 57 63 60 54 57 64 62 58 62 65 69 76 78 68 59 62 70 78 65
88 83 85 82 80 80 75 74 70 66 60 56 56 52 57 61 64 60 62 60 61 56 50 53 52 53 50 62 64 66 62 60 59 64 68 83 87 63 60 66 72 72 71
86 89 90 83 80 76 77 74 70 66 62 57 56 56 68 64 54 54 54 54 54 53 54 61 55 53 54 60 71 65 60 58 62 71 80 81 79 64 61 64 66 69 68
93 94 90 85 81 79 76 73 71 66 63 59 58 59 71 64 62 63 58 58 57 57 57 63 62 62 56 58 60 62 60 56 65 68 84 88 88 71 59 60 62 65 66
95 95 89 86 83 80 77 73 70 66 64 60 60 64 73 70 61 63 59 58 60 62 62 62 66 64 61 61 59 59 62 58 68 76 85 88 87 71 57 57 62 64 60
96 96 93 84 83 78 77 74 71 66 63 61 63 66 68 73 63 60 60 60 61 63 63 63 61 65 66 63 61 62 63 69 81 80 80 93 88 67 57 58 59 58 56
95 96 95 90 86 82 77 75 73 66 64 62 61 64 63 64 68 58 64 64 62 63 65 66 65 62 63 66 65 65 67 77 78 80 74 89 83 68 60 59 59 59 58
93 97 98 97 92 86 83 80 77 71 69 68 66 65 69 72 67 64 65 66 67 66 68 72 71 69 66 64 65 67 73 78 91 88 70 81 81 72 64 58 60 61 60
94 96 98 98 97 95 93 85 83 80 78 76 77 76 77 79 77 74 78 77 70 69 72 73 74 72 70 67 66 70 77 80 93 94 86 78 72 73 68 59 59 60 60
93 97 98 99 98 97 95 91 88 86 84 83 84 84 85 90 88 87 86 85 81 75 73 74 76 74 77 79 73 74 80 96 95 98 94 75 66 71 68 65 60 61 60
94 98 99 99 99 98 88 94 96 92 94 94 91 89 94 93 93 86 90 86 81 81 80 75 74 77 84 95 92 82 95 96 98 98 98 81 70 63 66 66 64 62 63
86 96 98 99 98 98 97 98 99 98 98 97 93 93 94 94 96 97 98 97 97 95 98 95 96 98 96 97 96 96 95 95 98 98 92 83 76 65 63 63 64 66 63
80 85 94 98 98 98 98 98 98 99 98 98 96 94 97 98 98 97 98 97 97 98 98 98 99 98 97 96 96 95 94 92 87 86 90 79 76 70 62 60 62 66 68
76 75 81 96 97 98 98 98 98 98 98 97 97 95 97 98 98 97 98 98 98 98 98 98 98 98 98 97 96 96 93 91 87 78 74 75 71 67 65 60 58 61 62
74 74 74 78 95 97 97 97 95 97 96 97 97 96 95 97 98 98 98 98 98 98 97 98 97 97 97 97 95 96 93 89 84 77 70 70 71 69 67 64 61 56 58
59 71 72 74 80 95 95 96 94 95 92 97 96 96 95 96 97 95 97 98 94 97 96 98 98 98 98 96 96 91 90 89 82 76 70 66 66 73 71 67 62 59 56
58 57 56 60 74 84 91 93 92 96 95 92 97 96 94 93 94 96 96 92 91 96 96 97 94 94 96 91 87 84 83 80 76 74 69 64 62 58 60 65 65 63 62
66 61 61 67 74 83 86 89 89 87 92 92 94 94 91 89 90 93 91 85 92 96 95 91 86 93 83 82 87 82 80 80 77 68 69 67 64 62 58 61 68 68 69
67 65 66 68 71 84 91 93 95 93 88 85 84 82 80 83 84 90 88 87 90 96 94 96 88 78 82 78 75 73 71 72 78 80 75 70 68 67 63 60 59 61 70
60 60 63 65 79 93 96 95 96 95 95 95 95 91 87 83 81 84 86 86 87 93 84 78 77 87 87 90 90 84 82 80 79 78 76 77 76 72 71 67 64 62 60
66 62 56 56 62 80 94 95 95 96 97 96 92 83 84 91 91 90 95 95 94 95 94 95 93 89 87 86 93 93 96 88 90 82 80 80 79 75 75 73 70 66 63
69 69 61 61 57 59 67 77 78 80 81 82 82 70 73 72 63 66 74 82 88 97 99 98 96 94 96 86 85 95 98 94 88 78 89 85 82 80 79 76 74 72 68
69 67 66 64 64 61 66 64 71 77 79 82 83 75 70 70 70 63 66 69 75 81 80 85 73 94 94 93 87 86 91 94 97 94 76 90 83 81 78 78 78 74 72
69 73 72 68 68 71 70 73 74 76 80 78 78 73 74 68 72 65 62 71 70 72 78 81 79 80 84 90 89 91 92 91 90 93 91 78 71 78 79 78 75 74 72
73 74 76 72 76 77 75 78 81 83 79 73 76 72 73 70 71 65 63 66 71 73 75 77 82 85 86 88 89 85 86 90 90 93 92 87 87 76 70 70 77 78 74

GFSSE_sfc_rhum_015.txt.gz
RH
70 67 80 79 79 76 72 71 71 69 64 62 60 55 56 54 54 51 49 50 54 53 57 60 59 69 68 69 68 64 60 60 62 64 62 66 69 68 61 64 60 51 60
64 65 82 82 75 77 75 71 73 71 64 60 56 54 52 57 55 53 55 56 53 49 50 54 54 62 61 52 55 62 61 58 62 64 68 74 76 72 59 61 68 56 67
65 64 72 83 80 79 78 76 71 68 63 59 56 51 55 58 58 61 61 56 56 54 51 53 56 52 54 54 59 63 63 59 58 63 69 56 60 72 58 64 74 73 71
64 65 72 86 82 80 78 76 73 68 63 58 57 55 57 63 57 51 53 52 57 51 52 58 61 54 57 53 70 65 60 58 59 68 56 53 56 67 58 64 67 70 68
66 66 74 86 82 79 79 77 73 68 65 60 58 60 68 65 59 60 58 57 57 59 54 60 63 56 60 60 61 63 59 56 61 65 56 63 62 58 65 59 62 66 67
69 67 79 86 82 82 78 76 72 68 64 62 59 61 67 70 65 62 61 59 57 62 62 61 62 65 66 61 62 61 61 64 64 56 56 63 64 66 65 58 60 65 66
74 74 71 83 81 83 79 75 73 68 65 60 61 63 64 71 67 59 60 60 59 62 62 62 62 61 64 65 64 62 64 67 58 55 53 60 66 76 68 58 60 61 60
72 76 72 83 88 83 80 77 75 70 66 62 62 62 66 66 65 62 64 62 63 62 64 63 64 64 63 63 64 62 68 67 66 62 58 56 71 78 64 60 60 60 60
73 75 74 72 80 88 85 82 80 74 70 69 67 66 69 71 68 62 64 65 68 66 63 69 72 72 70 67 66 66 73 77 59 64 65 53 63 74 69 66 60 61 62
75 75 76 76 78 75 71 85 84 82 80 78 77 77 77 77 77 73 78 77 70 70 69 72 72 72 73 72 71 73 77 80 57 62 64 62 70 65 71 68 66 59 61
77 78 79 79 81 79 76 77 84 85 84 83 79 87 78 65 67 69 78 82 79 77 74 72 73 74 79 81 79 79 82 52 54 59 63 75 78 68 64 68 66 65 61
73 77 78 82 82 82 78 77 75 73 69 67 66 66 66 69 68 70 79 84 80 80 83 80 77 78 81 64 66 77 62 60 56 56 58 79 81 74 65 64 66 66 65
57 71 76 85 82 82 83 79 78 76 76 73 71 70 70 70 73 72 74 69 72 80 67 68 69 66 68 66 66 64 64 63 58 56 59 77 77 73 69 63 64 65 65
57 56 67 78 81 82 80 80 77 78 77 76 73 71 73 72 76 75 72 72 75 69 73 72 68 66 68 68 67 66 64 63 60 58 58 75 73 67 64 65 63 60 63
57 55 58 70 79 80 84 80 78 76 75 73 75 72 70 73 72 71 71 72 72 73 71 71 70 66 66 65 65 67 67 64 61 60 58 74 77 74 66 59 60 60 58
56 56 55 60 70 76 78 80 76 74 72 74 73 72 72 71 72 74 71 71 71 70 67 68 68 68 68 66 67 64 66 63 62 62 58 57 75 76 74 69 62 59 60
40 43 44 53 60 74 75 77 76 75 73 73 71 70 72 72 74 74 72 71 68 67 69 69 69 71 71 67 68 64 63 61 62 62 60 58 57 75 75 73 70 66 62
50 49 51 47 58 66 71 74 73 74 72 71 70 70 72 71 73 73 72 68 66 69 69 68 67 68 70 72 70 67 66 62 60 58 58 57 57 54 63 72 72 70 68
51 52 58 59 59 68 71 71 72 71 70 69 69 68 68 67 67 70 68 66 64 68 69 70 68 70 72 71 73 70 66 65 63 60 59 58 58 59 55 64 74 74 75
50 51 57 65 69 73 73 74 73 70 69 67 67 68 67 65 66 68 68 68 68 71 71 72 76 71 72 72 74 73 69 66 64 64 62 59 58 60 59 60 58 58 74
50 49 53 64 73 72 75 74 73 77 70 63 60 58 58 62 65 66 65 63 65 70 71 72 75 77 76 72 89 84 74 66 65 64 61 61 62 62 61 59 58 56 55
53 51 50 51 56 70 77 80 77 64 59 56 55 54 50 46 47 44 50 51 51 54 54 56 62 69 70 64 86 89 88 67 56 70 62 62 62 60 61 61 59 59 59
59 58 56 54 54 56 55 53 53 54 56 55 55 53 54 49 46 47 49 48 51 52 55 58 58 63 64 55 56 78 82 80 80 58 58 56 60 62 63 63 62 61 60
61 62 61 61 58 58 56 58 60 61 61 61 57 54 51 51 50 46 48 51 51 52 54 56 50 59 60 64 59 46 66 71 73 72 41 51 48 51 57 54 60 61 61
65 68 66 64 65 64 61 61 59 61 60 58 54 51 51 47 50 45 46 50 50 50 54 58 56 60 58 67 67 67 67 67 65 75 81 58 55 49 50 52 51 55 58
68 69 70 66 67 65 64 62 62 61 56 52 55 49 47 43 45 42 42 43 45 45 49 47 52 58 63 65 68 67 71 77 78 80 81 73 69 55 48 49 50 51 53

GFSSE_sfc_rhum_021.txt.gz
RH
37 51 84 79 79 76 76 75 71 68 64 60 57 54 55 54 55 53 52 51 54 52 54 57 58 58 68 66 64 63 59 64 63 64 66 65 68 71 64 57 64 51 55
33 42 86 82 79 76 76 74 74 68 66 61 56 54 52 50 53 50 54 56 57 50 55 57 60 60 62 53 57 58 54 62 60 61 66 73 72 67 64 61 61 60 64
31 36 64 83 83 78 74 74 76 72 66 60 56 49 49 54 55 53 58 57 59 52 55 59 64 63 57 62 67 68 63 58 58 61 67 50 40 66 62 63 62 67 69
29 34 45 87 82 78 76 77 76 72 67 60 54 52 52 58 58 60 52 52 57 59 56 60 62 63 64 65 66 66 62 58 58 64 53 35 35 59 60 61 58 61 71
31 32 55 86 82 80 79 77 74 71 66 60 55 57 61 65 65 53 55 57 58 62 60 61 62 62 62 65 65 64 65 63 61 60 48 44 45 45 56 57 61 58 64
30 31 79 88 82 82 80 78 74 71 68 62 59 58 60 64 68 62 62 61 57 61 62 61 61 61 62 65 65 64 65 68 71 49 48 44 43 53 55 60 64 60 61
30 33 54 86 82 80 80 78 75 71 65 62 58 59 63 64 69 64 64 61 59 60 62 63 61 62 64 62 62 63 63 72 56 48 48 47 44 50 58 64 61 60 61
33 36 43 83 86 83 83 78 76 72 66 63 57 62 65 71 66 65 66 63 62 64 64 61 66 66 68 66 66 66 68 76 54 50 50 52 58 51 59 65 67 62 61
34 36 38 45 66 91 87 84 79 74 70 67 63 63 64 66 65 62 65 65 66 68 69 67 68 72 72 72 71 73 77 80 62 52 46 44 61 56 58 64 67 64 66
36 36 35 38 44 53 58 85 83 83 81 76 77 78 79 80 75 70 71 73 71 71 71 72 70 69 72 76 78 80 82 83 60 52 48 45 61 55 59 63 65 66 64
34 37 36 36 39 42 42 60 81 83 83 82 78 82 77 50 45 49 66 74 71 71 72 71 71 72 78 83 82 81 85 57 49 43 39 54 57 55 61 65 65 66 66
34 36 36 38 38 42 40 48 51 48 52 54 49 44 48 38 38 46 66 78 77 78 78 76 74 77 80 56 48 77 61 49 44 44 43 61 53 53 58 64 66 66 65
27 30 34 36 38 39 43 43 42 43 42 41 41 40 39 37 38 42 45 47 55 72 61 55 58 61 50 45 45 42 42 42 42 44 48 68 60 57 60 64 64 63 66
24 27 30 32 36 38 39 44 40 42 43 42 42 41 42 42 43 41 40 43 48 47 48 51 48 46 46 46 44 44 43 44 44 46 48 72 71 61 63 67 69 66 63
26 28 30 31 34 36 40 41 42 41 44 42 46 44 44 45 44 41 43 44 45 46 47 49 49 48 47 45 45 45 47 46 47 48 49 69 79 72 66 67 71 72 68
28 30 30 32 32 32 37 42 42 43 42 45 45 47 48 49 49 51 50 50 49 48 47 48 49 50 51 48 48 46 46 46 45 46 46 48 74 80 73 70 70 73 75
25 25 25 26 27 34 35 39 42 44 45 46 47 46 50 51 53 54 54 55 51 48 49 50 51 54 57 56 58 54 49 45 46 46 47 47 50 75 81 72 70 70 73
29 29 33 34 30 30 38 40 42 43 45 47 47 47 49 49 50 54 54 53 53 55 59 63 62 56 52 50 50 52 52 48 46 44 46 46 49 48 59 81 77 71 70
30 31 39 37 37 38 43 44 45 46 46 47 47 48 51 51 53 55 58 56 46 50 46 45 43 44 48 46 45 44 44 44 44 39 42 44 46 51 51 62 76 83 82
35 37 42 44 46 47 46 45 46 49 48 44 42 41 37 35 36 39 36 34 34 36 35 37 38 37 38 36 30 33 35 36 39 39 43 38 42 44 38 44 49 54 79
36 42 44 44 44 43 46 49 47 47 43 39 36 32 32 32 32 34 34 32 34 34 34 35 38 44 43 39 42 42 40 37 35 34 36 33 34 33 32 32 34 40 45
32 37 45 47 48 48 43 44 41 40 39 39 39 35 31 30 30 30 34 35 34 36 36 37 39 42 40 38 43 45 47 39 36 36 32 32 32 33 34 34 34 37 40
36 36 39 39 39 41 42 41 41 40 41 38 36 36 34 29 27 28 30 30 31 33 36 37 36 43 41 38 36 42 47 46 47 38 36 32 32 31 34 34 30 31 34
42 41 39 38 38 36 36 38 39 39 41 38 35 34 32 30 28 24 25 26 27 28 29 33 26 32 35 41 39 28 43 42 52 52 35 35 30 26 28 30 28 28 31
46 46 42 39 37 35 34 34 36 38 37 34 31 30 28 26 25 24 22 24 24 26 27 30 30 31 31 40 41 40 40 42 42 44 45 38 31 28 27 28 29 31 31
49 46 44 40 38 36 36 35 36 36 33 33 31 27 25 22 23 24 21 21 22 25 27 26 29 34 37 46 42 39 41 49 45 41 42 42 42 37 34 34 36 36 36

GFSSE_sfc_rhum_024.txt.gz
RH
60 83 85 79 79 78 76 74 70 67 66 62 57 56 57 57 58 57 56 54 59 54 56 58 60 59 68 67 62 60 62 64 64 63 65 67 61 68 67 58 62 60 53
64 73 86 82 79 76 78 75 73 70 67 62 58 56 55 52 55 51 54 60 58 54 59 61 68 65 61 55 62 60 56 63 60 62 68 76 74 64 64 61 62 66 68
51 68 79 85 82 79 77 76 75 71 66 62 56 50 50 51 55 57 57 56 60 56 57 61 64 64 67 67 68 71 63 60 60 62 68 78 66 63 63 63 61 63 69
40 68 70 86 84 80 78 77 76 72 67 62 55 52 52 59 58 59 54 57 59 61 60 61 62 63 62 67 65 64 66 60 59 65 68 58 48 62 61 59 55 58 62
39 52 65 88 85 81 79 77 76 73 67 61 56 56 60 62 66 50 56 60 62 62 60 61 61 61 62 64 65 64 64 66 67 68 66 64 60 48 59 57 58 60 59
40 80 89 88 85 85 84 78 75 73 70 63 59 58 59 62 69 62 63 62 61 63 62 60 60 61 60 60 64 63 63 65 73 71 66 60 57 48 53 59 61 64 59
44 76 85 88 86 84 83 79 76 72 68 64 59 58 64 64 67 67 66 64 62 61 61 62 57 60 64 64 62 61 62 73 76 74 69 62 64 48 49 57 63 61 60
43 57 79 88 87 86 84 81 78 74 68 65 58 59 65 69 68 68 70 66 64 64 64 61 62 68 70 70 68 68 72 77 70 71 67 67 65 55 52 55 63 64 67
44 50 65 82 86 89 88 85 83 77 74 71 66 64 70 73 68 66 69 68 68 67 68 70 66 66 70 72 73 76 80 82 88 81 64 64 66 54 55 58 60 65 67
48 47 54 59 70 77 92 88 87 84 81 78 78 79 81 78 77 74 76 78 70 71 69 70 70 68 68 72 77 84 86 86 93 81 69 64 64 55 54 58 62 63 66
46 49 48 53 58 65 71 82 88 87 85 83 81 83 85 80 69 72 78 78 76 70 70 71 72 72 79 84 83 82 85 90 80 68 65 66 63 50 52 57 61 64 64
49 50 50 51 53 58 48 78 79 73 83 81 74 74 78 71 65 62 77 74 74 78 78 75 75 79 83 82 72 74 87 81 73 66 64 67 61 52 53 57 60 64 66
43 48 47 52 52 56 58 73 67 69 69 69 67 62 65 54 59 69 74 78 87 87 87 78 85 84 83 77 67 65 78 77 65 65 63 69 66 57 56 60 63 64 66
38 41 46 46 52 53 59 63 62 64 64 64 60 56 63 66 64 61 64 67 70 73 81 77 74 66 66 62 64 63 62 63 66 66 68 72 73 64 60 61 64 66 69
37 38 41 45 48 53 56 63 62 63 63 63 64 60 63 67 68 67 68 68 71 70 70 71 72 68 65 65 64 61 55 57 57 59 64 74 75 76 68 64 64 66 67
41 41 41 42 46 47 56 58 61 62 62 64 64 66 62 70 74 76 75 73 69 67 66 64 64 68 66 62 61 59 57 55 58 59 59 61 73 79 74 65 64 66 68
38 36 34 35 38 47 50 58 60 60 60 60 62 58 64 67 73 75 78 77 71 66 64 68 67 69 71 70 72 68 67 68 62 59 59 58 61 72 74 71 68 66 66
43 40 46 39 41 39 52 59 59 57 61 61 61 61 58 59 65 74 68 63 62 69 67 69 69 65 68 69 70 70 70 68 65 63 58 57 62 55 69 75 78 70 69
43 50 53 48 44 47 60 64 56 58 61 65 63 52 43 43 50 54 50 50 51 58 57 55 56 60 61 58 52 47 52 48 53 44 52 46 49 42 35 51 67 77 74
51 58 60 62 64 65 66 64 62 50 48 47 49 48 45 44 44 52 52 49 52 55 56 55 55 58 60 61 40 44 51 46 54 50 53 34 32 36 41 38 42 46 64
60 61 64 64 64 65 71 71 60 61 58 55 52 43 42 42 45 49 55 51 51 53 52 46 53 56 58 57 60 50 51 44 46 42 32 32 38 32 38 36 40 42 36
61 66 66 67 62 57 58 58 56 56 57 57 53 46 40 38 38 36 44 47 44 49 48 48 48 56 55 52 59 55 65 50 49 36 41 43 36 43 31 35 28 26 30
59 59 57 58 58 58 55 50 51 60 61 59 58 54 46 36 34 35 38 39 42 45 49 46 48 48 56 54 51 58 69 69 51 49 42 43 35 30 38 29 23 27 27
62 59 56 54 54 55 56 61 60 60 61 58 54 51 47 37 34 31 33 35 37 43 42 43 34 45 48 59 60 41 54 58 58 61 56 39 35 30 30 32 29 28 36
65 64 58 53 51 50 50 52 57 58 57 53 49 43 36 37 34 31 31 34 35 42 40 39 40 45 50 58 66 61 55 59 53 62 61 47 37 37 37 36 40 36 36
67 64 59 53 52 51 50 50 52 51 49 49 42 42 39 38 39 33 29 30 32 36 38 39 40 44 52 57 62 57 57 56 48 52 55 48 45 39 39 42 43 37 35

GFSSE_sfc_rhum_027.txt.gz
RH
95 91 85 80 80 77 75 75 71 68 65 60 59 57 60 61 60 60 57 57 57 58 60 65 64 64 73 66 62 63 66 65 63 64 65 66 63 60 66 59 60 66 56
90 87 86 82 79 78 76 74 72 70 66 62 58 57 53 56 55 51 55 59 54 55 59 63 67 67 69 64 68 63 64 58 62 62 68 77 73 64 65 63 62 67 68
87 84 81 85 83 79 78 75 73 71 67 63 56 54 53 57 58 60 56 57 54 54 58 60 64 64 68 67 65 69 64 62 63 62 69 78 76 67 61 64 63 60 64
78 84 83 86 84 80 78 75 74 71 67 63 57 53 50 60 59 58 57 59 60 60 59 60 60 62 62 63 64 64 66 64 61 64 72 66 63 55 62 62 59 57 62
80 80 82 88 86 83 80 77 75 73 67 64 58 59 60 62 65 51 60 61 62 61 60 60 59 59 62 62 63 62 63 64 69 72 77 77 71 46 56 61 59 58 60
73 74 88 89 86 85 84 79 75 73 69 64 62 60 59 63 66 62 64 63 65 64 63 61 60 60 59 58 60 62 63 65 76 82 78 71 65 57 48 58 62 63 64
92 85 86 89 87 86 83 78 76 74 71 64 62 61 66 66 68 67 68 66 65 63 62 62 60 59 63 66 65 64 63 72 81 87 79 73 67 61 54 51 58 63 64
87 87 86 90 89 88 84 81 78 74 70 65 62 66 69 70 74 70 69 67 66 66 65 64 61 65 70 72 71 70 74 79 78 82 77 74 70 63 57 55 55 61 64
74 88 92 94 90 91 88 85 83 77 74 71 64 66 73 73 71 66 72 70 68 68 68 70 70 66 67 70 74 78 84 85 91 89 76 77 72 63 57 57 59 60 62
66 75 95 96 95 95 94 89 88 84 82 80 77 76 79 78 77 76 79 78 71 70 72 68 68 69 69 70 74 83 87 90 95 94 85 79 72 65 59 56 58 61 62
54 67 79 87 91 89 95 90 90 88 85 83 82 84 85 87 82 81 84 81 80 74 70 70 71 73 80 84 84 85 85 92 95 88 80 76 71 65 60 60 61 59 62
60 59 63 72 75 78 74 90 96 89 94 92 88 86 88 88 80 69 82 82 78 78 79 74 75 81 85 93 90 82 79 83 90 80 75 73 69 59 57 63 64 64 62
53 59 58 63 66 71 76 88 87 86 90 90 88 84 87 78 79 78 85 84 86 86 87 82 86 91 92 93 88 82 76 88 84 77 69 74 69 60 60 65 67 69 67
54 53 56 57 63 67 77 78 78 79 83 88 84 76 79 74 70 71 76 81 87 86 87 88 88 79 79 77 75 63 62 63 65 63 66 77 75 65 60 65 68 70 72
51 53 55 58 62 64 72 71 73 69 74 72 70 65 70 75 78 79 80 79 78 77 77 74 70 68 68 73 68 64 63 66 64 69 73 79 79 76 66 60 60 66 67
52 48 52 52 57 62 68 71 70 71 61 66 68 65 70 78 81 82 82 79 73 71 69 70 70 70 69 71 77 73 74 72 70 70 69 72 76 71 67 61 60 59 58
43 43 41 43 49 58 65 67 70 61 62 64 65 63 64 74 79 81 78 71 70 68 58 53 48 60 65 59 60 59 69 71 69 69 67 70 71 74 71 52 50 56 59
45 45 52 40 41 45 61 70 67 62 63 64 62 55 48 50 66 64 46 45 48 50 56 58 62 63 65 65 63 59 60 55 56 58 58 59 57 42 50 56 54 49 52
48 57 56 54 47 56 74 64 55 51 46 43 42 40 38 42 48 46 48 54 56 61 61 58 62 65 65 63 49 49 59 48 59 50 53 39 37 42 48 52 60 61 53
64 65 70 70 75 74 61 52 47 44 45 42 43 43 45 46 46 53 54 51 54 60 56 54 55 54 60 61 37 50 45 54 61 55 48 28 41 42 46 43 51 50 50
73 72 74 76 76 70 61 59 52 61 51 48 44 40 40 43 42 46 52 48 49 55 50 43 53 53 56 57 64 48 57 52 47 42 26 50 39 41 37 30 33 27 26
78 79 78 71 68 65 61 63 65 58 58 57 54 43 37 37 39 36 44 46 43 50 45 45 49 55 58 57 65 68 67 61 52 32 47 38 46 39 32 30 26 25 30
70 70 66 65 59 55 52 52 55 61 64 63 59 53 40 34 34 37 37 41 44 49 50 45 48 50 58 60 62 61 67 73 49 56 36 50 41 37 42 30 33 31 31
70 68 65 63 59 60 57 60 63 64 64 63 61 54 45 34 33 34 35 38 40 46 43 46 39 49 56 62 67 53 59 64 74 64 60 36 42 39 36 39 38 35 43
67 66 63 59 59 59 59 59 60 63 62 59 51 46 42 38 33 33 33 36 37 44 41 41 44 45 50 61 64 69 61 64 65 64 53 49 43 40 38 39 39 43 41
68 64 62 55 56 55 56 57 57 54 49 45 42 42 42 41 40 34 30 32 34 38 39 40 44 42 49 57 57 65 62 58 56 51 48 48 49 40 42 38 45 49 38

GFSSE_sfc_rhum_030.txt.gz
RH
97 96 86 80 78 77 76 73 70 68 64 63 62 61 67 66 69 61 58 58 54 58 59 68 61 75 75 67 63 66 63 63 62 63 64 65 61 59 66 62 61 68 64
94 89 86 82 79 77 77 73 72 70 66 61 60 58 58 58 57 56 55 55 53 58 58 64 63 71 66 70 67 62 59 60 64 62 68 77 73 63 62 67 65 68 67
94 86 84 85 83 78 77 74 74 71 67 62 58 55 57 59 58 58 55 56 52 58 58 61 64 63 66 66 65 65 64 62 64 62 68 77 76 66 64 65 66 62 63
88 86 84 86 85 79 77 75 74 72 68 63 56 56 55 54 59 59 58 58 59 58 59 60 60 63 63 64 64 64 66 66 63 65 76 73 70 61 60 63 64 60 60
88 86 84 88 86 83 79 76 74 72 69 64 59 57 59 66 65 57 62 61 61 60 60 60 60 61 63 64 64 64 64 65 69 75 83 82 80 61 54 64 63 60 58
92 92 89 89 86 86 83 77 75 73 69 65 60 63 63 65 64 56 65 65 67 64 62 61 60 60 59 60 58 60 63 65 76 88 85 79 75 65 59 51 63 63 64
93 91 90 90 88 86 84 78 76 74 70 65 62 63 64 66 70 66 68 67 67 66 64 63 62 59 62 67 68 67 67 74 83 90 89 82 76 65 62 59 54 62 63
87 87 88 91 90 88 84 80 78 76 72 64 64 68 69 70 72 70 70 69 68 67 66 66 64 64 68 71 73 71 77 82 83 91 88 85 78 66 62 61 58 56 59
91 94 95 94 92 92 86 85 83 77 75 69 68 71 74 74 78 73 74 71 70 69 69 69 70 69 68 68 71 76 85 89 94 96 87 87 79 71 63 60 59 58 60
95 95 98 98 96 96 92 90 87 84 82 79 77 79 82 80 78 77 81 80 71 71 72 72 67 68 70 71 73 80 86 89 95 97 96 90 79 73 68 64 60 59 61
87 95 97 97 97 97 96 91 91 89 87 85 84 84 86 91 88 84 86 84 81 76 74 71 70 72 80 85 85 86 87 96 95 95 94 83 77 72 68 66 66 59 58
78 84 94 96 96 96 85 94 97 92 95 94 91 91 92 92 88 73 86 85 80 82 81 75 75 82 87 96 96 88 90 89 92 92 85 78 75 71 68 68 68 69 67
61 70 78 89 88 89 84 98 98 98 98 97 94 92 92 87 93 89 93 92 94 89 89 85 87 88 91 94 94 93 87 77 82 78 73 77 73 68 64 66 68 70 69
60 61 65 72 79 84 85 94 93 94 96 98 95 90 94 95 84 84 88 87 90 89 90 89 92 86 78 72 85 83 78 74 78 79 79 80 73 62 59 58 62 68 69
58 57 64 65 70 76 89 86 88 88 89 90 90 85 83 83 83 84 86 85 86 85 77 74 73 70 66 62 66 70 69 77 75 76 81 80 74 65 59 60 59 60 64
50 58 60 65 67 72 78 86 81 83 78 74 69 67 70 80 86 88 90 88 77 72 69 54 51 53 54 58 57 59 66 65 64 64 68 75 70 56 48 48 49 52 53
50 54 61 61 65 72 75 75 77 66 64 69 69 67 69 75 85 72 53 52 53 48 46 47 51 60 61 58 59 57 54 56 56 58 65 61 54 55 52 48 49 51 56
46 47 46 42 57 67 74 79 73 66 64 55 46 45 46 44 47 46 47 50 50 50 56 61 64 59 61 63 58 54 56 55 54 62 53 40 43 46 51 46 47 46 45
49 57 56 51 48 79 74 66 56 48 45 43 42 42 41 44 48 49 52 58 60 59 57 56 56 58 60 57 46 46 55 52 61 45 40 33 46 48 50 42 50 42 41
63 67 64 60 84 64 55 51 49 43 42 40 42 43 45 45 48 52 51 49 56 53 50 50 51 50 59 58 44 48 44 55 63 48 37 42 54 47 45 39 48 38 41
78 79 84 85 80 59 57 56 60 60 45 41 39 39 41 42 43 47 52 47 52 49 46 44 50 55 56 62 66 58 59 59 49 34 43 47 45 41 37 40 30 32 35
87 89 85 84 78 69 60 64 58 60 56 45 43 38 37 38 38 36 45 46 46 47 43 46 51 53 57 65 67 74 70 63 52 27 49 41 49 37 44 35 32 34 40
86 83 75 72 67 61 54 51 52 50 56 53 53 47 38 34 37 38 40 42 46 48 49 48 52 53 59 62 62 64 64 71 58 55 37 48 31 48 43 43 36 36 36
81 76 70 65 61 58 54 53 50 54 59 68 61 49 41 34 35 35 37 39 42 47 43 46 44 49 54 62 65 53 64 65 68 68 58 38 49 32 50 47 43 44 40
75 74 70 67 67 70 67 59 60 64 67 64 55 46 38 36 34 34 34 37 38 45 42 41 46 44 52 63 63 70 70 65 67 79 56 48 39 39 41 41 51 39 45
70 68 66 64 67 65 60 61 59 55 50 48 48 47 44 40 40 34 31 34 35 38 40 41 43 43 49 53 56 59 60 59 63 58 47 47 49 41 44 42 42 42 47

GFSSE_sfc_rhum_033.txt.gz
RH
96 97 86 78 76 76 76 73 70 67 66 64 64 67 70 75 69 61 59 59 55 58 62 65 60 76 75 71 68 66 64 61 61 62 65 67 64 60 66 62 62 70 68
92 96 87 82 78 77 76 73 72 68 65 63 60 62 64 66 64 60 55 56 54 56 60 66 69 70 69 69 65 63 60 61 62 61 68 77 73 69 61 67 66 71 66
91 90 86 85 83 79 74 73 73 69 65 62 59 56 56 56 55 56 55 54 52 58 56 62 65 67 69 67 67 67 66 64 63 63 68 79 80 64 62 63 66 65 60
90 90 88 87 84 79 75 74 73 70 67 62 57 57 57 55 57 58 56 57 59 58 58 59 61 64 64 65 66 65 66 67 66 68 82 78 74 66 63 61 65 64 61
94 91 88 88 86 81 78 75 74 71 69 63 58 58 57 55 60 58 61 60 60 59 60 60 60 61 64 66 66 66 64 65 70 77 88 87 87 69 62 57 67 63 63
97 96 91 90 87 85 83 76 74 72 69 64 60 59 61 67 66 62 65 65 67 64 62 61 60 60 59 60 59 60 61 63 74 89 91 86 81 69 62 60 55 63 63
98 97 94 90 88 87 81 78 76 73 70 65 60 64 64 66 69 59 68 68 69 67 65 63 62 61 62 67 68 68 70 76 87 91 91 88 82 70 62 63 61 56 64
96 96 93 92 90 88 83 81 79 75 72 66 62 65 67 70 71 68 70 70 69 67 66 65 64 64 66 68 67 67 71 83 87 93 94 93 85 75 66 61 62 62 58
91 96 97 96 94 91 88 85 83 79 77 69 67 72 74 77 78 74 73 72 70 70 70 70 70 69 69 68 69 74 83 88 95 98 93 96 86 77 70 66 64 62 60
96 96 97 98 97 97 92 89 87 85 83 77 77 81 83 80 82 80 83 81 73 72 72 73 70 67 69 71 73 80 85 88 95 96 97 96 82 76 72 69 68 66 62
96 98 98 98 98 98 96 92 91 89 86 85 83 85 89 92 89 86 88 86 82 76 74 74 71 73 81 85 84 87 88 97 95 96 97 86 80 75 72 72 71 68 66
97 97 96 98 98 98 90 95 97 93 96 94 93 91 94 93 92 80 87 87 82 82 84 76 77 83 89 97 98 90 95 92 93 93 92 81 75 71 69 68 71 70 67
84 92 95 98 97 98 94 99 99 99 98 97 94 94 94 90 95 95 96 94 95 92 92 87 88 88 90 93 94 96 91 89 90 89 83 73 66 64 62 62 63 64 64
68 72 82 94 98 98 94 98 98 99 99 99 97 94 96 97 95 93 93 93 94 94 93 93 92 79 73 69 69 70 72 81 80 80 79 72 66 60 54 54 58 58 61
55 65 72 82 90 94 96 98 99 98 98 97 97 94 94 94 88 87 90 92 93 90 77 72 64 56 50 49 49 58 61 64 61 67 77 74 56 50 51 51 52 53 55
36 53 65 74 77 84 86 97 95 97 93 89 82 78 75 76 82 86 87 81 62 53 49 50 50 50 52 58 51 53 55 55 56 57 68 57 53 48 50 50 51 54 54
48 58 72 69 74 81 84 92 93 84 75 74 72 70 73 79 61 58 54 56 54 48 47 46 48 55 55 50 48 46 47 57 50 64 50 38 53 54 48 48 50 49 49
52 57 70 62 73 79 83 88 78 69 64 53 52 51 47 46 46 48 50 52 49 50 54 56 56 51 54 53 50 46 53 49 56 54 37 40 53 50 47 48 46 44 45
51 58 58 62 72 81 82 70 57 48 48 46 45 45 43 43 43 48 55 60 53 51 52 52 52 57 56 51 46 51 52 51 67 34 35 46 52 49 44 42 43 41 43
58 65 63 74 80 70 59 52 49 45 44 44 44 42 40 41 45 48 50 52 50 48 48 47 49 51 63 61 46 46 50 57 61 41 44 40 51 45 44 41 43 40 41
80 78 75 84 70 61 59 57 56 50 43 40 38 35 35 40 43 46 51 48 48 44 45 44 50 53 56 62 60 58 63 61 54 40 48 45 43 38 48 43 42 38 42
86 90 93 79 74 69 62 61 57 50 43 40 40 33 36 38 38 38 46 47 44 45 44 48 52 53 56 66 70 78 66 55 54 32 48 49 40 45 48 32 46 40 46
92 94 92 81 71 64 56 50 47 40 39 37 35 42 39 37 38 40 41 43 45 47 50 51 52 51 56 60 65 54 52 64 69 57 42 52 35 52 38 49 47 39 46
92 91 81 72 63 55 51 48 45 45 48 61 52 43 40 36 36 38 39 40 43 47 44 46 44 49 56 61 63 48 64 71 63 64 60 40 48 31 47 57 46 47 48
87 86 78 70 66 66 59 54 54 61 58 56 45 39 36 37 35 35 36 37 40 47 43 43 44 45 54 61 63 68 71 67 69 78 55 51 35 33 39 44 54 48 46
82 80 76 72 74 67 63 62 56 55 50 47 51 46 43 40 40 35 32 35 36 41 41 43 44 43 49 51 55 55 59 60 66 65 56 47 46 39 48 40 44 47 50

GFSSE_sfc_rhum_036.txt.gz
RH
93 96 85 79 76 76 75 72 70 68 69 66 65 66 70 71 67 63 61 59 57 60 64 61 62 75 70 71 69 66 63 61 60 62 67 70 66 59 60 63 62 71 68
89 96 87 82 79 76 74 73 71 68 66 64 61 65 67 74 64 61 55 53 56 56 64 68 74 70 76 72 69 66 62 64 63 64 71 74 73 68 64 61 66 72 64
90 96 88 83 81 78 75 74 72 68 65 62 59 59 60 60 58 52 52 54 54 57 57 64 67 71 73 70 68 68 68 67 65 65 72 82 81 65 64 61 64 63 61
91 94 94 87 84 78 75 74 72 69 65 61 57 55 56 55 56 55 55 56 58 58 57 60 63 66 67 66 67 66 65 65 70 71 86 82 76 68 63 60 63 65 62
90 95 93 89 85 81 75 75 73 70 67 61 57 58 58 56 58 59 58 59 60 60 59 60 60 62 65 66 66 65 63 63 68 80 90 90 90 72 62 60 58 67 63
95 97 93 90 86 84 80 76 74 71 69 63 59 59 59 64 63 61 64 65 66 63 61 60 60 59 58 60 60 60 63 63 72 88 90 88 85 71 61 62 60 57 61
99 98 96 91 87 84 80 77 76 73 70 65 60 59 61 65 71 64 67 68 69 66 64 63 61 62 62 66 68 68 69 77 88 92 93 93 89 75 67 61 63 60 59
98 98 96 93 90 88 84 80 78 75 72 67 61 64 65 67 70 68 70 70 70 67 64 65 64 64 65 67 69 70 75 86 92 95 95 96 90 80 73 67 62 62 62
97 98 98 97 95 92 87 85 83 78 76 71 65 68 74 79 75 71 73 71 70 68 68 70 69 68 68 68 69 74 82 86 95 98 95 98 89 81 75 71 69 66 64
97 98 99 98 98 97 93 90 88 86 85 78 77 81 83 82 85 81 82 81 73 71 72 73 72 68 69 71 74 82 87 89 95 95 96 98 82 77 74 73 72 70 68
96 98 99 98 99 98 97 94 91 89 88 84 84 87 89 92 89 88 88 88 82 76 75 74 73 74 82 87 85 86 89 97 95 96 96 85 78 74 71 73 72 72 73
98 99 95 91 91 99 92 97 97 94 96 94 92 90 94 93 92 84 88 85 81 83 83 79 79 82 86 95 97 90 97 94 94 94 94 71 64 64 64 64 65 65 64
93 97 96 88 89 95 89 99 100 99 99 97 94 94 94 92 95 96 97 96 95 92 94 88 90 90 90 92 91 90 82 89 86 82 73 65 61 58 56 54 58 58 60
77 90 95 96 94 94 99 99 99 99 99 99 97 95 97 98 96 95 96 93 94 94 92 94 89 72 55 47 47 52 67 66 65 69 72 67 54 52 51 51 53 55 57
64 72 85 97 98 96 98 99 99 99 99 98 98 95 95 94 91 90 94 96 96 92 70 56 52 48 45 43 48 52 52 54 54 60 73 59 52 51 50 53 54 57 56
42 45 74 89 95 97 93 98 98 99 98 94 88 86 84 80 79 86 74 58 52 51 50 48 47 49 52 48 39 41 48 54 49 67 43 55 54 52 50 53 53 53 51
37 42 65 80 88 94 92 95 98 98 86 85 82 74 74 80 64 58 56 54 55 50 44 42 47 50 46 43 41 41 48 49 58 43 40 50 57 50 51 50 50 48 49
46 55 70 68 84 87 87 96 94 85 75 66 66 68 60 49 49 51 51 49 45 49 50 52 51 52 49 50 46 48 53 48 69 34 44 51 58 46 48 48 46 46 47
54 59 71 83 88 91 95 86 71 58 54 51 50 48 44 43 45 48 50 51 46 48 49 48 50 60 55 47 39 50 47 54 60 31 45 51 47 46 49 41 45 45 45
58 66 67 86 93 87 67 58 54 53 51 46 45 43 40 39 40 43 46 46 45 46 46 45 46 52 62 62 42 39 58 61 61 42 50 43 43 44 51 42 50 48 44
68 74 86 89 82 67 64 62 59 58 50 42 39 36 36 38 41 44 49 45 45 44 46 42 50 48 59 64 58 58 62 58 60 49 47 50 42 41 51 39 47 51 46
78 81 90 83 78 70 66 65 58 69 47 40 39 36 34 34 40 40 44 45 42 45 46 47 46 48 55 68 64 74 60 48 52 35 49 50 45 50 41 26 42 46 47
90 92 92 84 77 69 57 49 44 44 36 36 35 36 36 38 41 41 42 44 45 49 53 52 49 52 55 57 68 53 45 51 75 56 49 60 41 50 37 42 44 43 45
93 96 92 78 70 60 54 50 45 45 40 40 38 35 36 38 39 40 41 42 44 48 46 47 43 52 56 60 58 49 62 73 59 62 57 41 49 33 42 51 48 48 51
96 96 87 73 67 64 55 50 51 54 46 38 36 34 37 38 37 38 38 40 42 48 44 44 45 47 55 57 62 65 66 66 71 79 55 56 39 37 38 47 56 43 43
96 90 79 71 74 67 60 54 48 41 37 38 43 40 43 43 43 37 35 38 40 44 43 46 46 44 49 51 55 56 59 61 67 66 65 53 53 44 43 41 47 54 53

GFSSE_sfc_rhum_039.txt.gz
RH
73 71 87 80 76 76 74 72 71 71 70 68 68 72 72 72 66 63 61 58 58 61 63 57 60 68 71 69 70 67 63 62 63 66 70 67 63 59 56 64 61 53 65
64 72 88 81 79 76 74 73 71 71 68 66 66 68 70 73 65 61 55 54 56 58 65 71 78 73 76 75 70 66 64 64 65 67 71 71 71 64 60 62 64 55 63
66 74 70 83 82 78 75 74 72 69 66 62 60 62 64 67 60 52 52 54 57 58 59 67 70 76 74 70 70 69 67 67 66 67 72 56 56 63 60 62 64 64 60
70 74 68 86 84 78 75 74 71 67 64 62 58 56 56 54 54 55 56 56 59 58 59 61 64 68 69 69 67 65 64 63 70 73 60 59 54 62 61 60 62 64 64
74 76 74 86 84 80 76 74 72 68 65 61 58 57 54 56 58 57 57 59 61 60 60 60 61 64 66 65 63 60 59 60 68 69 62 61 59 55 60 61 59 61 68
79 77 84 88 86 82 80 76 73 70 67 61 59 60 59 58 57 62 63 65 66 63 61 60 59 59 60 62 63 64 65 66 69 61 63 63 64 70 64 59 63 60 58
83 79 75 90 87 83 78 77 75 73 70 64 60 59 59 63 68 64 67 68 68 65 64 62 60 61 62 66 66 67 68 76 64 65 67 69 70 79 72 65 61 62 61
87 82 77 89 89 86 82 80 78 75 72 66 61 61 62 65 69 66 70 71 70 66 64 65 66 66 67 66 66 68 76 84 67 65 68 69 78 80 74 68 68 64 64
83 83 80 74 81 91 87 84 83 79 77 72 65 67 71 77 74 75 74 71 70 67 68 70 70 68 66 67 69 73 83 86 65 63 65 62 78 79 74 72 71 70 68
86 83 83 82 77 76 74 89 88 85 84 79 76 79 81 79 84 81 81 79 72 70 71 73 72 71 70 73 77 81 87 86 64 65 63 62 80 76 73 71 70 72 73
84 86 85 86 84 82 78 79 88 89 88 83 79 88 82 67 66 68 83 88 82 76 75 76 74 77 84 86 85 85 84 61 61 60 60 74 68 65 66 66 65 64 64
80 84 84 84 85 86 83 81 80 76 72 68 63 69 68 69 66 67 78 82 77 81 81 79 77 77 73 60 61 73 58 58 56 55 50 64 60 58 58 57 59 60 62
72 79 82 79 80 85 83 86 85 82 78 73 70 66 67 67 67 65 65 64 66 80 64 65 64 62 64 50 45 44 45 40 38 39 48 62 55 53 51 53 54 56 59
67 70 79 77 81 83 83 85 85 83 82 79 73 72 69 70 72 66 63 64 66 63 64 66 57 46 43 38 37 35 34 33 32 34 44 60 54 51 49 52 55 61 57
52 58 73 81 83 82 87 86 89 82 81 77 76 73 71 72 72 62 65 67 66 59 49 49 45 40 34 26 23 25 28 30 28 39 27 63 55 53 53 56 55 56 54
34 38 53 75 84 83 85 87 87 80 78 79 80 82 80 78 72 79 58 56 53 48 44 39 35 32 27 23 21 24 30 26 36 29 31 40 54 53 53 54 53 52 53
32 31 39 59 78 86 85 84 81 79 78 84 84 78 79 75 76 61 55 54 48 39 32 30 32 29 26 24 21 25 28 25 39 27 32 33 32 52 52 51 50 50 50
38 37 39 52 75 81 79 80 79 76 75 82 78 75 73 61 56 54 49 40 38 33 32 30 32 32 28 27 24 25 26 31 25 29 32 32 31 29 37 46 44 44 46
34 38 47 60 73 80 79 79 76 73 68 63 61 55 49 47 46 46 44 34 29 31 33 29 34 36 32 28 26 25 32 37 27 27 30 32 32 34 31 35 42 42 44
42 46 50 66 79 80 79 68 60 57 66 61 61 46 43 43 40 39 38 32 31 31 29 33 30 34 32 34 26 23 37 42 33 30 28 28 29 32 31 29 26 25 41
47 55 58 76 82 72 68 65 61 60 70 55 48 38 38 40 35 34 33 32 32 31 28 25 31 32 34 37 30 29 32 34 40 38 25 30 31 31 29 23 20 22 25
47 58 69 77 76 68 65 63 58 72 72 68 45 39 38 37 34 31 32 33 31 32 30 29 31 32 34 43 33 38 32 24 31 26 35 32 30 28 25 21 22 24 27
62 64 71 74 70 66 57 57 54 61 55 51 40 44 44 33 31 32 33 32 34 34 34 35 36 39 34 40 37 30 28 28 38 29 28 33 27 27 24 25 25 25 28
65 73 74 72 66 58 53 55 56 63 57 45 44 42 36 32 33 30 32 31 32 34 33 33 32 34 37 35 36 31 39 36 31 30 31 28 29 25 28 28 26 28 30
77 82 76 70 62 56 52 54 55 55 53 40 34 33 32 33 30 31 32 35 33 33 33 33 33 34 32 36 37 38 38 35 42 45 33 30 29 28 29 29 29 29 30
84 85 77 68 62 56 54 50 49 44 38 34 34 34 36 29 31 32 31 33 32 33 34 34 34 36 34 38 38 38 36 36 35 37 38 38 40 30 32 32 32 29 30

GFSSE_sfc_rhum_042.txt.gz
RH
48 51 86 82 77 77 74 73 70 70 72 73 71 70 71 69 65 63 60 59 59 63 63 55 57 61 72 71 70 66 64 63 65 69 67 65 60 58 55 64 62 42 62
46 49 88 82 79 76 74 73 74 74 70 68 69 72 73 70 66 61 54 57 56 59 70 72 80 72 72 75 68 66 66 65 65 71 66 67 64 64 59 63 63 48 61
46 48 61 81 82 78 75 74 74 72 68 64 68 66 74 69 62 53 54 56 58 56 63 68 74 82 76 72 71 69 67 66 66 70 69 43 41 60 62 64 64 64 60
45 49 50 85 83 77 76 74 71 69 66 62 62 61 61 58 56 58 57 58 58 57 60 63 67 70 70 70 69 66 64 64 70 72 46 39 36 48 60 61 61 63 64
47 46 53 86 83 79 75 73 70 67 65 62 60 59 58 57 57 57 58 62 63 61 60 61 62 66 66 63 61 59 59 61 70 63 45 48 48 46 60 57 58 59 65
45 44 78 86 84 82 79 74 71 68 64 61 61 60 59 59 61 62 65 68 66 64 62 60 59 60 63 65 66 64 65 67 72 48 51 51 54 71 71 64 61 63 61
46 45 60 87 85 83 78 76 73 71 67 62 61 61 61 64 61 66 68 70 69 65 64 63 62 63 63 66 68 67 70 77 55 48 50 53 55 76 71 68 66 63 63
51 50 52 84 87 85 81 79 76 74 70 64 62 61 60 62 70 68 72 72 70 66 65 66 67 67 67 66 66 69 74 81 53 48 52 54 68 75 74 70 69 70 68
51 51 51 57 72 89 86 84 82 77 76 69 64 66 66 75 70 70 74 72 71 68 68 70 70 68 66 67 70 75 81 84 56 49 50 48 79 77 75 72 72 72 72
51 49 48 52 56 59 64 88 87 84 83 79 75 78 81 81 82 82 81 77 71 70 71 73 72 71 72 75 79 81 82 82 47 50 48 54 76 69 67 68 67 66 68
51 50 48 51 52 53 58 72 87 89 86 82 75 87 80 47 55 62 82 84 80 74 74 75 75 80 80 80 79 81 84 45 45 47 46 66 63 61 61 60 60 62 63
52 52 49 51 53 56 56 62 64 61 60 53 46 52 45 44 44 48 70 77 74 78 76 75 74 73 72 44 47 67 40 41 40 42 40 63 58 56 54 55 56 58 60
41 47 50 51 62 58 58 57 60 59 56 54 47 45 44 45 43 41 45 46 49 73 48 54 53 48 47 38 36 35 34 33 32 33 45 58 54 52 51 53 55 63 60
38 43 49 48 59 69 67 63 56 58 57 54 52 45 46 47 49 46 43 48 50 46 50 51 43 41 37 32 28 28 27 27 25 25 38 59 52 48 52 56 59 59 56
34 38 44 49 53 63 72 72 63 58 57 54 53 48 46 48 48 46 46 46 48 48 43 42 39 35 29 24 21 20 22 21 20 23 22 63 54 52 55 56 54 55 54
30 30 34 46 50 55 71 73 76 56 53 56 52 50 50 53 61 55 55 53 49 44 41 36 31 28 25 19 17 17 19 18 21 23 22 36 57 55 54 52 52 51 52
21 21 23 34 44 54 61 72 68 53 52 56 53 56 66 63 62 61 53 50 42 34 28 27 26 22 20 19 18 17 18 16 24 22 24 24 31 52 49 48 45 44 46
25 24 23 26 33 46 55 60 54 51 52 54 58 63 64 67 62 53 48 41 32 30 26 24 23 24 22 21 19 18 18 20 21 22 25 23 25 21 33 43 45 44 45
22 22 25 29 31 41 50 52 51 51 52 56 58 61 68 56 48 46 36 33 25 26 26 22 26 23 24 22 19 17 22 26 24 19 23 23 27 27 24 26 32 31 38
24 24 24 29 36 44 49 52 54 53 55 56 57 55 56 46 41 40 31 26 24 25 24 25 25 24 23 22 17 16 25 29 24 24 23 18 23 26 24 24 20 20 29
28 28 29 33 40 48 53 56 60 60 65 66 64 52 46 39 34 34 28 25 25 24 22 20 23 25 26 25 22 20 23 24 31 29 24 20 24 23 21 18 17 17 18
29 30 32 38 45 52 52 53 52 59 70 74 58 50 43 34 34 33 26 26 24 23 23 22 24 26 26 28 25 28 24 20 23 26 20 23 20 21 19 18 19 19 21
32 31 35 40 50 53 53 54 56 59 55 54 48 45 40 30 26 30 26 25 25 25 27 27 28 30 27 28 26 25 25 24 24 19 21 19 21 20 20 22 22 21 22
31 35 37 44 52 54 56 55 58 60 63 57 46 47 46 37 29 25 24 24 25 25 26 26 23 24 26 27 27 22 29 24 24 23 20 19 20 19 22 23 22 22 23
34 40 45 49 54 54 53 53 56 57 52 48 46 40 41 33 30 27 24 26 25 25 26 27 26 25 22 27 28 27 26 25 26 31 30 22 21 21 22 23 23 24 23
34 50 54 54 54 53 54 53 56 55 51 47 40 46 45 42 32 25 24 25 25 26 27 27 27 28 26 30 28 27 28 28 26 29 29 30 30 23 22 24 25 24 24

GFSSE_sfc_rhum_045.txt.gz
RH
40 59 87 81 80 78 75 74 73 74 73 72 71 72 70 68 66 64 61 60 64 68 61 61 57 60 70 69 67 66 66 66 68 67 64 62 61 60 55 61 64 46 61
40 52 87 84 81 76 74 73 73 74 74 74 72 72 72 68 64 60 59 57 59 63 70 77 78 60 71 75 67 68 68 67 67 71 66 66 63 63 61 65 65 52 58
41 49 63 83 82 79 75 75 75 73 70 70 70 71 75 69 62 56 58 58 58 58 66 75 79 83 83 75 70 70 69 68 68 70 72 51 40 57 59 63 63 63 60
38 48 52 84 82 78 76 75 74 70 66 66 66 71 70 62 57 58 58 60 59 59 60 66 73 76 73 70 68 66 64 64 67 70 47 35 34 56 53 57 62 62 64
38 42 57 86 83 79 76 73 71 67 64 62 63 60 60 57 56 57 61 64 62 61 61 62 63 64 63 62 61 60 61 62 66 63 46 50 53 60 63 59 56 60 62
36 38 80 85 83 82 78 72 69 67 64 61 62 62 60 60 60 62 66 67 64 63 62 59 60 63 65 69 67 65 65 68 76 47 46 54 52 70 70 65 63 61 62
35 45 61 86 84 82 77 74 71 68 64 63 62 61 61 62 65 67 70 71 66 65 64 64 64 64 66 65 66 68 75 75 58 46 46 50 60 69 72 66 66 68 67
36 42 56 85 86 84 80 77 75 72 66 63 63 63 64 64 67 70 72 72 68 66 67 68 68 67 67 67 67 70 77 81 55 45 49 52 73 70 72 68 69 72 72
36 39 50 61 74 89 85 83 81 76 74 69 67 66 66 72 69 72 74 73 69 68 69 71 70 68 66 67 72 76 80 81 62 47 48 51 78 71 69 70 68 67 68
39 38 41 50 58 61 66 88 86 84 82 77 74 80 80 82 81 80 82 78 71 70 72 73 72 72 73 75 77 78 79 82 58 48 54 61 67 64 63 63 62 63 65
40 39 38 42 52 54 58 71 87 88 86 82 75 86 80 49 58 69 84 85 78 74 74 75 76 78 77 79 75 75 82 49 45 51 54 67 62 60 59 57 59 60 62
43 40 37 40 44 52 60 71 65 63 62 56 47 58 48 41 46 55 70 82 76 76 75 73 70 71 76 49 68 69 41 37 37 40 50 60 57 54 53 55 57 64 65
37 40 39 40 40 43 55 73 59 61 55 55 43 45 41 40 47 46 51 52 56 73 54 62 63 57 44 39 39 37 36 34 34 35 53 59 53 49 49 54 64 62 59
30 36 40 38 42 42 48 51 58 59 59 59 46 41 43 43 41 42 44 48 51 48 49 58 47 41 38 33 30 28 28 29 27 28 56 63 56 53 53 59 58 58 57
27 32 37 39 41 49 51 48 44 61 57 53 49 42 41 43 45 44 44 45 46 49 48 45 41 37 33 29 26 23 23 22 21 26 37 65 57 57 57 57 55 55 54
26 28 31 37 39 43 54 67 53 46 60 59 52 46 43 44 45 47 48 51 49 46 44 39 36 34 31 24 21 18 18 21 20 25 27 49 59 57 53 52 48 46 46
20 24 26 32 36 41 47 65 71 49 56 61 57 45 46 48 55 53 51 53 47 39 34 33 30 27 24 23 21 19 19 18 21 22 28 30 48 52 47 46 44 44 46
22 21 20 21 31 38 43 56 72 51 51 66 57 46 49 52 56 53 52 47 38 36 32 30 27 26 26 24 22 24 21 23 22 21 26 27 34 28 46 38 37 38 38
21 22 23 24 26 31 41 46 53 47 49 60 55 50 53 56 56 50 46 39 33 32 30 25 28 24 26 26 25 21 28 30 27 20 24 26 31 33 32 30 27 30 28
19 21 20 24 28 29 34 44 45 44 54 61 60 56 56 56 50 46 39 33 30 30 28 29 28 26 25 25 18 19 28 31 33 33 27 22 25 28 28 31 30 27 30
20 22 23 24 26 30 38 45 47 52 74 88 83 62 57 50 44 41 36 32 30 28 26 23 26 28 30 28 30 31 30 30 34 34 33 26 26 26 25 24 23 24 23
23 26 26 25 27 34 39 44 45 59 79 84 74 58 50 47 41 35 35 32 27 26 25 25 26 30 30 31 29 36 38 32 30 32 29 25 24 26 23 22 22 24 27
26 25 27 26 30 37 41 45 49 66 67 68 66 61 55 48 46 45 43 31 30 31 34 32 33 37 36 33 29 32 36 36 31 26 26 24 24 27 25 26 25 25 25
25 28 29 30 33 39 46 50 59 68 70 67 71 67 56 42 39 34 31 29 29 31 31 31 26 27 34 33 33 23 36 30 30 30 28 25 24 21 25 26 25 26 27
22 31 35 33 36 44 48 53 60 60 60 59 65 55 55 50 34 29 33 34 30 30 28 30 28 27 24 31 32 32 30 30 28 34 38 31 26 25 26 25 25 26 27
27 33 42 40 43 47 54 52 56 58 55 54 58 64 64 49 37 31 30 30 29 31 31 29 30 31 29 33 31 29 31 33 31 35 35 36 36 28 26 26 28 28 29

GFSSE_sfc_rhum_048.txt.gz
RH
76 86 85 81 79 78 76 77 76 74 74 74 73 72 70 69 67 64 62 63 68 68 70 71 57 61 71 70 67 68 69 69 70 66 62 59 61 60 58 63 66 58 60
72 77 86 84 81 76 75 76 77 78 76 74 73 72 70 68 63 62 60 59 64 71 74 76 68 59 76 71 69 70 70 69 69 70 71 74 72 61 62 65 66 65 58
67 73 78 85 83 80 76 76 76 75 74 75 74 74 70 67 60 60 60 60 58 67 72 77 79 82 78 73 71 70 69 69 69 70 74 81 70 57 55 60 64 61 60
59 69 75 85 83 80 77 77 75 72 70 71 70 73 70 62 59 60 62 61 60 63 68 75 77 77 75 70 66 65 64 63 64 72 73 55 53 58 53 54 57 60 61
59 60 74 85 84 80 78 76 72 68 65 67 67 71 64 59 58 60 64 62 62 62 65 66 67 66 64 62 62 62 63 64 70 72 65 67 71 64 65 62 60 62 65
53 70 86 85 84 82 79 73 70 67 64 64 62 62 60 58 60 65 67 64 64 63 61 62 64 64 68 68 67 67 67 70 80 72 65 68 78 67 66 65 65 65 62
66 75 80 86 84 81 76 74 71 67 64 63 64 62 64 64 64 69 71 66 66 64 64 65 66 67 68 68 66 71 75 78 74 72 65 77 78 68 70 69 67 70 70
72 69 76 86 85 83 79 77 75 70 66 66 67 64 66 67 70 72 73 69 67 67 68 70 69 68 68 68 69 73 77 82 69 63 63 85 77 68 70 64 72 68 69
60 69 74 80 84 86 84 82 80 76 73 72 72 72 75 76 76 75 75 71 69 69 72 72 70 69 67 70 73 77 82 83 86 66 61 70 74 65 64 65 64 65 68
50 63 70 76 80 83 87 87 86 83 81 78 77 82 80 79 78 82 84 79 72 73 75 75 73 72 73 75 76 79 81 82 87 62 65 67 66 62 61 60 62 62 63
50 52 59 72 70 71 78 86 89 88 85 81 80 86 84 78 82 85 83 84 82 77 76 76 76 78 82 83 80 78 80 70 51 59 68 65 60 57 55 58 59 65 70
57 54 51 64 66 64 66 85 86 84 87 81 75 89 80 67 71 70 88 88 83 82 81 77 74 76 78 68 78 81 74 53 56 63 70 60 56 53 53 58 66 64 62
54 53 49 53 59 61 67 79 72 74 72 71 61 75 70 64 70 74 85 85 91 88 83 81 79 71 54 54 53 52 48 49 50 63 61 57 51 46 51 65 61 61 59
49 51 52 51 52 64 75 79 74 73 67 63 56 59 64 68 66 63 71 72 74 72 69 64 57 53 50 44 40 36 36 40 36 59 70 63 55 50 60 59 59 58 57
42 47 52 52 53 53 63 72 68 70 67 62 62 58 62 64 62 64 68 67 72 62 65 59 56 52 47 39 36 30 28 32 28 48 76 74 65 60 59 56 54 51 49
36 45 49 51 53 59 65 66 60 66 63 62 62 62 58 64 65 68 70 71 69 64 61 60 55 46 44 33 31 27 28 30 28 32 65 75 62 56 54 49 47 46 46
31 37 44 48 51 57 63 76 83 66 69 64 64 55 58 63 70 75 74 72 67 58 52 46 41 38 39 34 35 29 28 28 27 30 43 65 64 56 46 43 41 41 42
32 32 37 39 47 55 59 76 79 78 67 67 66 58 60 69 72 73 74 69 52 54 49 45 43 43 41 38 38 35 33 34 33 32 36 43 54 48 45 37 33 33 34
32 32 34 37 44 54 60 72 78 72 66 64 68 67 64 69 70 70 67 56 51 49 45 40 42 40 41 41 34 30 38 40 36 26 35 34 36 39 43 32 30 33 29
27 30 32 39 37 43 60 67 75 74 73 65 65 66 66 74 68 68 58 52 48 46 42 45 41 40 41 41 26 29 40 44 40 40 37 30 37 33 35 32 36 36 34
26 31 32 37 36 36 48 60 67 70 76 85 87 71 74 75 62 55 56 46 45 45 42 36 40 42 47 44 45 44 44 40 46 42 42 40 36 33 31 32 34 36 36
32 32 32 36 37 37 38 54 64 94 90 96 92 81 73 65 62 53 50 44 39 37 34 33 42 43 46 43 42 50 50 45 41 39 49 34 33 32 31 27 30 30 35
32 35 33 38 37 40 50 64 82 86 82 86 75 69 66 67 66 70 68 51 37 42 46 42 43 46 50 45 39 48 49 52 45 40 36 40 30 39 34 34 32 31 33
32 32 38 40 37 45 57 63 80 84 92 93 90 83 66 66 61 57 62 50 39 47 44 42 39 39 48 46 46 35 45 42 46 46 42 37 33 29 35 38 35 33 33
29 40 32 41 36 47 50 59 82 83 87 81 71 69 63 66 59 51 43 47 42 44 37 40 39 37 39 49 48 47 42 45 42 48 55 48 42 39 39 40 38 39 35
34 36 48 50 49 56 59 71 75 76 78 77 67 73 71 63 51 41 36 39 40 43 43 42 42 43 44 46 45 43 46 48 48 51 54 52 50 43 41 39 39 40 39

GFSSE_sfc_rhum_051.txt.gz
RH
95 89 86 82 81 81 80 78 76 77 74 74 72 72 70 69 67 65 66 68 69 72 71 66 62 71 71 69 69 70 70 70 68 65 63 61 61 60 63 67 64 65 62
91 84 86 84 82 81 79 78 81 80 79 74 72 69 71 66 65 62 62 66 71 71 69 70 60 67 75 70 71 71 70 69 68 68 72 74 71 58 60 66 67 66 57
86 82 82 85 83 82 80 79 80 78 78 77 75 73 69 64 64 63 61 60 67 71 72 64 67 76 75 73 72 70 69 68 66 65 72 84 70 52 52 58 64 62 60
80 82 83 85 83 81 78 78 77 76 76 76 77 73 67 63 62 62 60 59 66 71 75 76 78 77 73 70 67 66 62 59 62 71 75 66 57 62 57 54 56 60 64
81 80 82 86 84 81 79 77 75 73 74 73 75 71 66 62 61 63 62 61 62 69 72 72 70 68 66 64 63 62 63 66 73 78 78 73 81 66 64 61 62 59 59
77 86 88 86 84 84 81 75 71 68 70 69 73 67 62 61 64 65 63 64 64 65 67 68 68 69 69 68 68 68 69 70 79 69 69 79 80 67 66 67 60 66 66
83 85 85 86 85 82 78 74 71 67 67 65 66 62 61 63 68 69 66 66 64 64 65 66 66 68 70 69 71 72 72 77 75 77 80 86 81 66 66 62 71 71 73
82 79 82 86 85 82 78 77 75 71 69 66 67 66 67 68 72 73 68 68 68 68 69 70 70 69 70 70 70 73 75 80 76 70 82 82 76 67 68 68 67 67 69
76 81 86 84 83 84 81 80 77 74 74 73 72 73 76 77 77 75 72 69 69 71 72 71 70 69 70 72 74 75 82 82 89 71 66 72 73 63 64 62 65 66 65
80 82 92 92 85 86 84 85 82 78 78 79 79 82 82 81 83 81 83 78 72 73 76 75 74 72 73 74 75 80 80 80 79 66 68 71 66 61 58 61 61 67 72
81 84 86 93 94 94 93 87 88 87 84 83 84 87 85 85 86 86 87 84 82 78 78 77 76 78 83 83 82 81 80 77 71 67 75 69 58 55 56 59 67 66 66
82 82 82 86 86 89 78 92 96 89 92 90 91 92 88 85 91 80 88 87 85 84 83 78 77 78 80 82 88 83 72 59 70 71 73 60 52 49 56 68 65 62 62
64 72 78 81 78 80 80 92 93 94 96 89 86 92 90 78 84 94 98 96 96 92 91 88 85 81 61 80 73 48 44 47 67 68 67 58 51 50 66 63 62 60 59
63 58 74 73 74 73 78 86 85 83 86 86 76 83 84 85 85 91 94 96 95 92 91 88 83 58 53 46 39 35 35 37 53 69 74 66 52 55 62 59 58 54 53
58 56 60 66 68 73 82 81 76 76 74 70 66 70 73 73 75 77 84 83 87 84 80 71 60 56 46 36 33 29 31 34 51 70 91 76 68 62 58 54 50 49 48
53 56 52 61 61 70 80 86 80 75 70 64 61 64 66 65 66 72 79 82 77 72 69 64 60 52 40 34 34 30 31 32 40 69 81 82 64 58 53 49 46 45 45
36 54 55 54 60 66 70 84 75 75 70 67 66 54 63 66 70 80 78 77 72 64 54 46 44 41 41 35 35 33 31 31 34 52 74 76 69 58 44 39 37 38 39
37 46 55 48 58 64 67 77 86 76 79 77 63 54 61 70 77 78 76 74 67 62 54 48 46 44 44 42 39 37 36 38 35 42 62 64 60 54 47 35 33 34 33
36 37 48 56 58 63 66 72 78 89 80 88 74 57 58 76 72 72 74 66 58 52 49 40 43 42 43 42 35 33 43 45 38 35 42 43 47 50 48 34 36 35 34
29 37 39 49 55 63 69 76 80 91 94 80 68 63 67 75 70 69 64 60 53 49 50 44 40 46 45 42 27 35 45 49 45 44 39 35 40 37 38 35 39 37 33
32 34 40 44 50 63 79 86 89 92 92 94 86 68 74 72 66 61 60 54 50 46 43 40 46 43 45 45 43 43 49 46 46 46 48 44 39 36 33 34 36 37 36
32 34 39 44 38 43 65 77 84 92 97 96 95 76 76 73 65 58 54 51 47 44 40 38 38 48 44 44 39 56 46 41 44 45 54 40 38 36 32 28 31 32 37
38 38 38 40 46 42 50 86 94 95 95 96 90 81 78 70 69 63 65 62 45 44 46 44 44 46 50 46 42 46 47 48 47 42 43 44 35 42 37 40 35 34 34
32 38 40 40 47 48 60 81 86 88 95 96 95 91 78 68 72 63 69 60 61 57 48 45 41 43 50 48 46 39 48 45 39 33 42 44 40 34 40 42 42 38 36
29 35 44 44 47 50 53 70 81 94 98 95 90 82 81 75 62 60 53 49 57 63 56 46 38 39 42 49 52 50 45 50 47 49 49 50 46 43 43 46 43 43 40
36 37 46 46 50 52 52 79 82 94 95 92 88 85 84 80 70 50 45 52 56 56 63 49 49 40 43 47 48 47 49 48 52 52 56 57 54 50 46 44 46 46 46

GFSSE_sfc_rhum_054.txt.gz
RH
94 93 87 83 82 82 82 81 81 81 80 78 75 74 72 70 68 69 70 70 71 71 67 63 71 71 69 69 69 70 69 66 63 65 63 66 61 60 65 66 66 68 63
92 88 87 85 84 83 82 80 81 82 79 76 72 72 71 69 67 67 68 71 71 65 60 62 68 73 70 71 71 71 68 66 65 69 71 71 71 57 59 67 65 66 60
91 85 84 86 86 85 83 81 82 80 77 75 71 70 67 68 65 62 64 66 66 62 64 62 67 76 75 73 72 71 66 60 64 68 72 84 72 54 53 60 64 62 60
86 85 84 86 85 83 82 80 80 79 78 76 75 71 67 66 64 63 60 65 67 68 68 66 74 76 75 73 70 64 57 60 67 74 74 75 63 62 58 54 57 62 66
86 85 84 86 85 82 82 81 80 79 78 80 76 69 67 65 63 62 61 64 70 77 77 75 74 71 69 68 64 59 64 69 75 76 78 78 86 67 62 64 63 59 59
92 90 89 87 85 84 83 79 77 76 75 75 75 69 66 63 64 62 63 64 71 73 72 70 69 68 68 68 68 66 68 72 74 78 73 80 82 67 62 56 59 69 70
96 92 88 87 85 82 79 76 74 74 72 76 72 67 62 64 66 64 65 65 66 69 70 69 70 70 69 71 72 71 71 76 81 83 86 87 85 68 68 72 71 69 72
93 88 87 88 86 84 79 76 75 74 71 71 68 63 64 69 70 67 68 65 65 68 68 68 68 69 70 70 69 70 73 82 80 78 85 82 75 65 67 67 68 69 69
85 86 88 88 86 85 81 80 77 75 73 73 73 73 74 78 76 70 69 69 69 70 71 71 69 69 70 71 72 73 79 82 88 76 68 74 74 65 63 65 65 65 73
84 86 93 91 87 86 86 84 80 78 78 76 78 81 84 86 84 79 79 77 72 73 74 73 71 71 72 73 73 78 79 81 84 76 76 80 66 60 63 62 68 70 71
87 95 95 95 95 95 94 86 85 84 85 84 86 87 88 90 91 89 87 84 81 77 77 76 75 76 82 84 82 80 78 78 78 75 80 71 58 58 60 68 67 65 66
94 96 94 95 95 95 81 94 95 86 92 92 92 91 90 92 95 86 90 87 84 84 84 78 78 82 84 87 91 78 60 74 72 74 74 62 50 53 68 67 63 63 63
92 90 89 93 92 92 85 97 97 98 98 96 94 94 93 87 98 97 98 96 97 94 96 92 90 86 75 88 66 49 51 68 70 72 70 64 51 56 62 62 61 59 57
90 88 86 86 88 90 85 94 95 96 94 94 91 94 97 95 98 98 99 98 98 97 95 95 94 70 58 52 44 39 39 51 68 69 74 63 52 66 61 58 54 52 50
79 82 85 84 84 86 92 89 91 91 89 84 82 87 87 92 96 94 97 98 98 96 94 94 77 61 44 35 33 32 37 42 67 80 96 79 73 64 59 52 50 50 48
64 66 79 81 79 80 87 89 86 83 83 83 77 76 79 80 87 88 91 90 93 92 87 76 65 54 40 36 32 31 34 40 65 83 92 87 70 60 53 48 44 42 42
54 67 70 78 74 76 82 89 86 82 80 78 74 69 73 73 78 79 84 90 84 78 69 58 45 43 40 36 35 33 33 34 46 75 84 80 74 62 45 40 37 37 36
43 48 66 66 75 74 80 90 91 84 80 80 72 66 68 66 68 81 84 82 74 66 56 51 46 45 45 42 38 38 39 40 40 75 73 69 64 58 46 36 33 33 36
37 41 66 64 72 74 77 86 88 87 82 92 81 64 64 63 76 80 80 79 69 60 54 46 48 44 44 42 37 36 45 48 43 46 66 59 59 58 50 37 38 35 33
33 38 44 68 71 74 79 85 91 94 91 89 78 66 62 73 80 79 78 68 58 54 50 45 42 47 45 41 29 38 49 53 47 50 47 39 49 44 44 38 39 38 32
33 34 42 51 70 78 89 93 96 95 95 93 93 78 74 79 75 73 67 58 53 48 47 39 45 39 43 47 42 45 47 48 46 47 50 45 44 39 37 36 38 39 38
35 35 38 47 50 72 75 77 90 92 95 93 94 91 81 77 75 76 60 53 48 48 44 43 45 50 47 47 42 54 45 40 46 42 53 46 44 41 35 32 35 35 38
37 40 39 41 50 63 69 87 99 98 98 99 99 96 89 80 79 78 66 61 56 52 48 44 48 47 49 48 44 46 52 44 47 41 46 44 39 43 42 42 37 38 38
34 34 40 42 47 52 84 92 90 86 95 97 95 97 94 83 82 78 70 66 69 66 48 52 51 56 56 47 49 39 48 43 34 29 39 44 44 36 41 46 45 42 42
32 33 36 43 48 54 72 86 89 85 93 99 98 95 93 93 88 78 69 65 69 71 56 54 56 54 54 54 53 50 46 50 47 43 37 46 47 45 45 47 47 49 46
39 37 39 47 51 55 63 78 86 96 98 98 97 97 92 92 91 80 64 70 73 64 64 61 47 46 49 47 51 49 50 48 51 52 54 55 54 50 49 48 48 50 50

GFSSE_sfc_rhum_057.txt.gz
RH
98 95 87 85 83 82 81 81 82 82 81 78 75 75 73 72 72 73 70 67 65 64 64 68 68 68 69 67 68 67 64 62 64 64 69 70 62 62 65 66 69 71 59
91 88 88 86 84 83 84 84 85 86 82 78 75 73 72 70 70 70 71 70 69 65 63 65 71 69 70 69 69 67 63 63 67 70 70 72 73 59 63 66 65 66 62
91 87 86 87 86 86 85 83 85 82 81 77 73 72 71 68 66 67 69 69 61 54 64 63 71 72 72 72 71 67 58 64 69 72 76 76 74 56 55 66 64 63 60
88 88 88 88 88 84 82 80 80 78 76 75 73 68 68 68 65 63 65 64 61 59 62 64 69 77 76 73 69 58 61 67 73 72 77 75 69 62 56 57 59 64 67
89 88 89 89 87 84 82 81 79 78 78 76 74 69 69 66 65 60 62 64 72 72 73 76 80 76 72 69 61 58 67 72 74 76 75 79 89 65 59 65 65 61 59
94 94 90 88 86 85 85 83 81 80 81 79 75 70 68 65 63 62 63 70 70 78 74 73 70 69 68 66 63 64 70 70 76 82 78 83 86 66 60 61 76 75 72
97 95 90 88 85 83 82 81 80 75 78 79 73 70 66 64 63 63 64 69 74 73 72 71 71 70 70 70 70 69 70 76 86 91 92 89 88 70 70 69 71 71 71
94 92 89 89 87 85 77 80 81 78 75 77 73 69 65 67 65 66 66 66 71 72 71 70 70 70 70 70 70 70 76 81 83 88 90 89 78 66 67 69 68 68 75
93 93 93 93 90 88 84 81 80 79 78 79 75 72 74 76 70 68 67 66 68 70 71 70 69 69 70 70 72 75 80 82 90 84 76 84 75 64 66 66 68 74 71
96 94 97 96 95 94 91 85 82 81 80 79 78 79 85 86 82 74 79 77 72 72 73 72 70 70 71 72 75 78 80 81 87 82 83 82 65 63 63 68 70 70 70
94 97 98 98 97 96 94 89 86 84 84 84 86 88 89 95 92 87 87 83 81 76 75 74 73 74 81 83 81 79 75 88 80 78 82 71 59 60 66 69 66 67 67
91 95 92 97 97 96 82 94 94 89 94 94 93 93 95 95 96 90 90 87 83 84 84 78 78 83 86 94 90 63 78 77 77 75 75 63 51 61 68 65 65 64 64
87 86 87 97 96 93 87 97 98 98 98 97 94 95 94 91 98 98 98 97 97 94 97 93 93 91 84 92 57 55 75 74 77 76 73 66 50 67 61 63 61 58 56
96 90 92 94 96 94 90 96 95 94 97 98 97 95 97 98 99 99 99 98 98 98 96 97 97 78 65 64 46 44 53 69 72 71 73 63 59 64 61 56 54 52 51
96 94 93 93 94 94 96 95 96 95 93 90 94 95 97 97 99 99 98 98 98 98 97 97 90 63 47 39 36 37 39 63 67 88 97 81 75 64 58 53 51 49 46
92 91 89 90 89 90 91 95 95 94 92 89 86 88 94 91 98 98 98 98 98 98 97 94 76 55 41 36 33 35 40 63 77 90 95 89 73 61 54 48 43 42 41
75 83 88 88 85 88 90 95 94 91 88 89 86 81 86 88 95 95 97 98 97 96 90 75 54 44 42 37 36 33 34 46 74 87 88 84 75 64 47 41 39 38 39
47 75 77 79 84 85 86 96 95 90 87 86 84 78 78 80 86 94 94 95 89 85 75 58 50 47 46 42 39 41 42 42 57 83 80 75 66 60 46 38 35 35 35
42 44 80 82 83 85 88 94 94 91 87 93 80 79 75 74 79 85 88 92 80 72 63 51 51 47 45 42 38 41 48 50 53 67 71 63 62 58 51 38 37 35 33
39 42 50 76 79 84 88 93 95 96 93 94 82 78 76 71 77 81 89 84 72 65 59 51 47 48 45 41 32 41 53 56 51 62 66 48 60 51 47 42 40 40 36
40 40 45 74 76 85 92 96 95 96 96 98 92 79 76 75 79 78 82 76 66 58 50 44 46 40 42 47 46 48 54 53 49 52 50 47 46 41 37 36 39 40 40
37 39 42 53 72 77 84 86 91 93 94 94 94 90 80 79 84 81 80 70 61 57 47 44 45 49 46 49 44 54 50 46 50 48 58 48 47 44 36 35 36 36 40
40 39 38 43 54 74 75 88 99 99 99 99 99 96 86 84 87 83 81 69 58 52 52 57 51 46 50 48 48 51 54 47 52 43 51 47 43 44 43 41 40 39 40
35 36 38 40 48 68 78 88 91 88 92 95 94 94 95 92 94 92 88 75 71 80 74 76 66 63 52 45 50 42 49 48 37 31 43 47 44 37 40 45 45 44 45
34 35 36 40 46 56 73 82 90 89 89 96 99 98 97 97 94 92 88 83 78 80 80 74 78 68 50 55 54 52 49 50 42 37 35 44 48 47 46 46 48 48 46
38 37 39 41 42 51 69 91 93 90 97 99 100 99 98 97 96 92 85 86 83 80 73 75 73 64 53 57 52 50 50 46 51 47 50 54 53 48 49 49 49 51 51

GFSSE_sfc_rhum_060.txt.gz
RH
95 95 87 84 82 82 83 82 83 82 80 78 76 75 74 73 70 68 68 67 67 69 68 68 68 68 69 67 66 64 62 64 64 69 72 68 62 64 65 69 70 72 58
94 95 88 86 84 83 84 85 85 86 83 80 74 74 73 73 73 72 70 72 70 66 64 70 69 69 68 68 68 63 62 67 69 69 69 75 73 60 65 66 64 66 63
89 90 89 88 87 86 86 87 87 85 82 79 74 71 71 71 70 70 72 69 60 59 63 67 71 70 71 71 69 59 65 68 70 73 70 76 76 56 62 66 66 64 58
91 90 90 89 88 87 86 85 85 82 80 79 74 70 68 67 66 67 66 64 57 59 63 66 74 80 75 73 61 62 66 71 71 72 79 75 76 59 56 58 60 64 66
94 93 91 89 88 87 86 84 83 80 77 77 74 72 69 67 64 64 64 61 67 64 70 68 77 79 74 67 59 65 71 73 75 71 78 85 90 62 62 64 67 63 60
98 96 92 90 88 86 85 83 80 79 78 77 74 70 67 68 62 63 66 68 76 80 81 78 75 72 70 66 63 70 71 72 76 83 80 86 88 66 67 72 71 75 73
95 97 94 89 87 87 86 84 84 82 80 80 73 71 68 65 64 65 68 74 68 72 74 72 71 71 71 70 66 70 71 78 88 90 91 90 88 68 68 72 70 72 74
85 97 94 90 88 86 85 85 85 78 82 80 74 71 67 66 64 66 68 75 74 72 72 72 71 71 72 70 70 71 77 81 85 92 91 91 79 66 68 68 68 72 72
83 97 97 95 91 90 78 86 82 81 80 82 78 74 74 74 69 66 67 69 74 73 73 72 70 68 69 70 72 76 80 83 93 88 81 89 74 66 65 72 71 72 68
91 97 99 98 96 96 92 88 86 84 82 83 81 81 85 84 79 74 77 75 72 73 73 72 70 70 72 75 76 77 82 85 89 86 85 84 67 63 66 71 70 67 68
94 99 98 99 98 97 95 90 87 86 85 85 86 88 91 95 90 86 87 83 80 76 74 73 71 75 83 85 81 74 80 88 83 82 84 72 62 63 70 67 68 66 66
90 94 89 99 98 97 86 94 94 92 94 94 94 93 96 96 96 90 90 86 83 83 82 76 77 84 89 96 78 77 84 83 80 76 76 64 56 70 68 67 65 64 61
79 82 83 97 98 97 94 98 99 98 98 97 95 96 96 96 98 98 98 97 97 94 97 94 95 95 91 89 59 79 78 77 80 78 74 68 57 67 65 63 60 57 55
82 80 79 94 98 97 98 98 98 98 98 99 97 96 98 98 99 99 99 98 98 98 97 98 97 77 92 57 50 57 68 73 71 71 72 60 68 63 62 57 54 54 52
84 82 82 89 98 97 98 98 99 98 97 97 98 97 97 98 98 99 99 98 98 98 97 98 92 65 54 44 41 40 52 65 68 91 97 83 75 65 56 54 53 48 47
90 82 82 88 96 97 95 97 97 96 95 96 97 95 96 97 98 99 99 99 98 98 98 97 84 54 43 36 37 40 48 68 85 92 95 92 74 61 54 49 46 44 43
94 93 96 94 95 96 95 97 97 95 92 90 90 93 94 95 95 98 99 99 98 98 96 90 64 47 44 37 35 35 45 69 84 90 92 87 78 66 50 44 42 40 41
70 93 93 86 92 94 95 96 97 96 93 92 90 87 88 92 94 97 98 98 98 98 97 80 56 50 48 44 41 41 42 46 78 89 87 76 69 60 50 41 38 37 36
43 54 89 90 92 93 93 94 96 95 95 96 94 90 83 86 90 94 97 97 95 94 87 66 55 50 50 45 40 44 52 49 68 74 80 66 68 58 54 45 42 37 34
42 43 54 90 90 92 93 94 95 95 96 97 95 87 88 80 85 91 96 96 89 85 76 59 51 49 48 43 32 43 56 56 58 79 71 58 65 53 52 46 41 41 41
46 46 46 76 90 94 97 96 97 95 94 94 97 89 91 81 86 86 90 93 85 77 68 51 50 44 46 46 48 52 56 57 52 58 63 54 53 48 42 40 41 42 41
40 45 46 47 68 91 92 90 87 90 90 91 96 95 90 86 90 85 87 88 82 76 62 49 48 50 46 52 46 54 48 48 55 52 60 50 53 48 39 37 39 39 44
42 43 44 46 49 81 86 92 99 98 99 98 97 98 94 90 90 88 88 89 78 69 69 65 63 51 54 49 49 53 56 52 55 48 56 56 50 49 46 42 41 42 44
39 41 42 44 49 64 90 93 93 90 93 92 92 93 96 91 92 90 90 89 83 80 79 80 74 76 76 68 60 43 44 46 47 38 46 49 47 41 44 48 46 46 49
40 41 41 40 48 53 77 89 96 94 94 96 97 96 96 96 92 94 90 91 85 84 88 80 82 78 78 73 68 71 57 46 40 36 33 45 51 50 49 48 50 50 48
49 48 45 42 41 50 65 89 95 94 97 98 100 99 99 99 97 96 94 88 85 86 86 85 81 74 66 66 63 58 57 50 45 44 39 47 48 43 51 53 52 53 54

GFSSE_sfc_rhum_063.txt.gz
RH
72 70 87 85 82 82 84 83 83 82 80 77 75 75 75 73 72 72 72 73 73 70 66 67 67 68 67 65 63 63 64 66 69 71 71 67 64 64 68 69 67 48 61
68 73 88 86 84 85 85 85 85 86 84 81 76 75 74 73 72 69 69 67 66 66 70 69 67 67 67 68 63 62 66 68 66 67 71 74 71 64 65 65 63 56 61
68 70 72 87 87 87 86 86 87 86 84 81 77 72 73 72 72 72 72 70 67 66 64 70 67 69 71 68 62 66 66 67 70 69 72 55 49 60 64 66 65 61 58
73 70 70 89 88 88 88 88 87 84 81 80 78 73 71 69 69 72 69 62 59 63 65 73 75 75 73 63 63 66 68 69 70 72 58 58 52 58 58 58 61 65 66
75 72 75 90 89 88 89 88 86 83 80 78 76 74 68 66 66 65 63 60 66 71 72 73 81 77 69 62 65 69 71 73 71 63 62 66 62 56 63 68 68 62 61
79 72 85 91 90 88 87 87 84 80 78 77 76 75 70 65 62 64 64 71 79 80 81 79 78 72 66 64 68 71 70 74 73 57 62 67 66 71 73 71 71 76 75
82 74 75 90 88 87 85 83 81 78 79 78 73 71 68 66 63 66 68 74 79 80 78 75 73 72 71 66 71 70 74 79 57 60 65 68 67 66 68 69 72 72 71
80 79 74 90 89 88 86 84 82 81 82 80 74 71 68 66 65 66 73 69 70 75 74 74 72 73 71 70 71 73 77 79 66 63 67 65 71 66 65 68 72 69 68
76 80 77 74 80 90 85 82 84 84 86 82 79 77 75 74 70 67 72 75 73 71 74 74 73 70 71 71 73 77 80 85 63 61 61 58 75 64 69 72 73 71 68
81 80 79 77 72 70 66 87 83 80 82 86 82 82 83 80 78 72 77 78 76 75 74 72 70 71 73 75 76 78 84 84 59 63 59 55 68 63 70 69 66 64 66
88 86 82 81 77 76 70 77 84 84 83 85 82 88 84 63 64 64 79 82 80 77 74 72 72 78 84 85 76 78 82 59 55 54 54 72 62 69 67 68 64 65 64
90 89 83 87 81 80 76 75 75 71 65 63 65 67 66 68 65 66 77 86 84 83 81 75 78 85 79 61 53 72 57 55 51 50 46 64 63 68 66 66 64 61 59
81 85 81 84 84 79 76 77 74 75 72 71 69 70 70 73 74 68 69 69 73 84 69 74 76 68 68 54 48 53 53 49 45 46 54 65 68 67 63 61 58 55 55
79 80 79 82 87 80 75 76 74 75 74 73 72 71 74 76 80 78 71 74 77 74 76 77 70 61 64 47 43 48 46 45 41 42 43 62 71 65 59 55 54 53 52
78 76 77 80 86 81 80 76 75 72 73 69 74 74 72 75 78 79 78 74 75 76 72 76 68 52 56 37 33 39 42 40 41 47 55 83 76 64 57 55 51 47 49
76 75 77 79 85 81 78 80 73 70 70 73 72 75 75 72 74 79 80 80 75 74 72 71 64 48 44 32 30 29 36 41 48 62 63 61 75 64 55 50 46 43 44
79 74 75 78 84 88 83 84 80 77 71 72 73 73 75 75 75 75 77 82 76 72 72 71 58 39 34 29 28 28 35 41 52 60 62 56 56 68 54 46 44 43 41
59 82 78 77 86 89 86 88 87 85 74 70 69 71 74 75 76 76 77 79 76 76 72 69 56 41 36 32 30 28 29 41 49 56 59 51 48 41 48 43 42 37 38
32 45 78 82 83 88 87 88 88 85 83 85 81 70 70 72 75 74 75 75 77 78 76 69 53 43 41 37 34 32 33 33 46 53 53 49 47 43 38 45 44 40 35
35 35 44 78 82 85 88 90 93 93 90 89 86 75 77 70 74 77 75 74 78 79 76 67 56 42 39 37 23 30 37 37 42 52 50 42 45 41 40 43 34 36 43
38 39 38 48 72 85 93 93 94 96 95 93 91 82 83 75 76 79 77 73 76 78 73 65 53 45 40 34 36 38 39 41 38 46 49 42 45 39 34 30 27 26 27
35 39 41 42 49 81 79 78 79 85 90 89 92 90 84 79 79 80 77 78 78 76 72 61 50 46 40 38 37 40 40 37 40 39 43 40 39 36 32 29 27 29 31
40 38 38 40 43 63 80 83 90 90 92 92 94 92 91 82 80 80 77 80 76 74 75 66 55 54 47 42 39 40 47 44 41 38 42 41 38 38 32 31 30 31 30
39 42 43 42 42 50 74 84 85 80 85 82 86 88 88 88 84 84 80 82 83 84 79 77 67 61 67 61 49 39 42 40 40 42 36 39 38 36 35 33 30 32 34
49 47 44 41 42 43 56 76 84 84 84 82 84 84 89 94 88 86 83 82 82 82 81 77 77 68 66 67 66 56 43 38 33 36 42 46 39 38 35 32 31 31 35
54 54 55 43 38 42 50 69 88 86 87 94 93 93 90 94 94 90 88 86 86 82 80 78 78 72 67 66 59 59 54 53 41 39 39 46 48 41 38 36 36 34 36

GFSSE_sfc_rhum_069.txt.gz
RH
41 61 88 85 84 84 83 82 84 83 82 80 80 80 80 79 78 77 75 73 73 69 66 63 67 66 65 65 66 68 69 68 69 70 71 71 67 65 65 67 65 56 70
40 57 88 86 86 86 85 85 86 86 85 82 80 79 77 76 74 74 74 74 70 68 66 66 66 66 64 62 64 65 64 64 65 64 75 77 75 63 61 63 67 56 63
43 52 66 88 88 87 85 86 86 85 84 80 78 73 73 71 70 69 67 66 66 68 71 66 68 69 64 64 65 65 64 67 66 64 70 38 51 63 66 68 64 62 62
40 49 53 90 89 88 87 87 87 83 83 82 80 78 75 73 73 74 69 65 65 65 76 72 72 68 66 66 65 66 64 68 67 70 42 36 44 62 60 62 64 62 62
40 44 61 90 89 88 88 88 87 85 83 80 79 79 74 72 75 69 62 60 61 68 74 79 75 66 67 66 69 67 66 67 70 60 46 61 53 66 70 65 63 69 72
38 40 83 91 89 90 89 87 85 84 80 79 78 72 71 68 66 62 60 70 79 80 79 81 71 66 68 70 69 69 68 66 74 45 60 65 66 74 73 75 74 73 75
36 54 63 92 90 91 89 87 85 81 80 77 74 68 62 65 64 65 73 79 79 80 81 75 68 66 71 72 70 71 69 71 53 53 65 63 64 65 69 72 71 69 69
38 56 64 90 92 90 88 88 84 78 78 78 75 68 64 64 66 68 74 80 80 79 78 75 73 69 70 72 72 74 71 76 48 44 67 63 70 65 70 69 69 67 67
41 61 62 58 74 92 87 84 80 76 81 80 79 76 72 74 70 69 70 78 80 78 76 75 73 70 69 73 74 76 74 76 52 43 53 56 76 71 72 70 69 66 64
44 45 57 56 54 57 62 83 82 81 84 82 82 82 84 79 77 75 74 77 79 79 77 75 71 71 72 74 76 78 81 78 44 45 51 58 69 70 68 66 64 66 66
53 42 47 53 51 48 45 60 82 85 88 87 85 88 81 48 53 63 73 81 82 79 74 72 72 76 82 83 79 80 84 47 41 42 50 71 70 67 67 65 65 64 62
70 45 40 40 40 39 38 52 52 55 57 57 62 61 49 39 40 40 67 84 82 82 80 74 78 83 84 50 59 76 54 42 42 44 53 70 69 66 67 66 62 60 58
67 59 46 39 39 38 41 41 43 42 44 43 48 53 44 38 43 43 53 60 64 81 62 67 73 59 50 41 43 43 41 39 39 40 58 66 69 67 65 62 58 58 56
66 68 65 46 40 39 40 41 38 40 41 40 41 42 42 42 45 39 43 48 51 52 47 52 51 47 45 42 38 38 39 38 38 38 53 69 74 65 60 58 56 55 56
54 63 69 62 51 42 42 44 39 38 40 38 40 41 41 43 44 41 39 40 44 43 42 47 45 44 46 42 37 38 39 38 36 35 38 62 79 67 59 56 54 52 54
52 50 64 69 65 57 43 46 44 40 39 40 39 43 42 41 43 45 46 45 43 42 41 43 45 45 45 43 38 37 37 36 33 34 34 60 79 71 59 55 50 49 51
50 51 53 60 63 66 54 51 47 45 42 44 42 41 43 43 45 46 48 60 57 43 41 43 44 44 44 42 38 34 34 32 33 35 37 53 63 73 65 52 49 47 48
40 46 47 49 59 66 70 53 51 48 46 45 43 42 43 42 45 49 50 49 54 54 45 45 47 50 47 44 41 37 33 33 32 34 37 38 53 49 60 58 50 47 45
23 30 40 47 53 61 65 69 56 51 49 48 45 44 44 44 45 49 50 49 46 55 55 49 50 50 51 48 45 39 36 37 37 32 34 38 42 44 45 61 61 53 43
22 22 22 30 42 50 57 76 83 75 55 51 49 47 45 45 46 50 50 49 48 53 68 56 55 52 50 50 41 38 40 40 41 41 37 34 38 44 41 46 49 44 48
20 21 21 22 24 36 44 75 90 94 89 71 57 51 51 48 49 52 53 51 51 53 63 63 58 58 57 52 52 46 47 42 39 38 40 37 39 43 39 38 40 35 42
21 23 24 23 22 24 33 54 69 77 82 80 86 78 65 55 56 54 56 58 54 55 56 67 66 66 59 55 56 56 63 50 42 37 37 37 38 40 37 36 36 32 35
23 22 23 24 24 23 26 32 58 59 63 78 86 84 77 71 65 64 62 62 62 59 61 63 68 70 69 60 52 60 70 68 52 42 38 39 36 39 38 37 35 33 33
29 29 29 28 26 26 27 28 36 51 60 60 64 66 72 73 77 77 73 69 71 71 66 65 65 68 66 68 57 51 57 49 59 56 45 39 38 36 42 42 35 36 36
42 42 36 30 28 27 27 30 34 42 48 50 50 55 58 67 76 84 84 83 79 83 78 77 73 73 69 68 66 69 56 54 47 57 54 50 43 40 41 39 35 34 34
43 42 41 32 28 28 30 30 36 44 48 54 55 56 56 60 69 78 84 87 89 86 87 85 83 82 78 75 67 66 66 69 64 65 66 57 55 45 45 43 41 38 39

GFSSE_sfc_rhum_072.txt.gz
RH
78 86 88 88 87 87 87 86 85 85 84 80 80 80 80 80 79 76 75 75 72 70 62 64 67 65 66 67 69 68 67 67 67 71 73 74 67 63 65 68 71 67 73
74 78 88 88 88 87 87 87 87 86 85 83 81 80 79 78 77 76 75 74 70 67 67 66 66 64 64 64 64 64 64 63 63 70 79 78 75 64 64 65 69 63 65
67 76 82 89 88 87 87 88 88 87 86 85 79 75 74 72 71 70 68 68 70 69 65 68 68 66 65 65 64 64 65 63 63 66 76 71 73 66 67 68 68 68 67
62 71 79 90 89 88 87 88 87 86 84 82 78 77 74 72 74 74 70 68 67 73 74 72 68 68 66 66 66 63 65 66 67 77 69 56 60 66 62 62 63 64 65
59 60 79 91 89 89 89 88 87 86 84 82 82 80 76 77 74 69 62 63 70 76 79 76 68 69 67 70 66 65 64 64 74 70 76 83 82 71 70 75 76 75 75
54 72 92 91 90 90 89 89 87 85 81 80 78 75 73 71 68 64 65 77 78 83 83 74 68 70 71 71 70 67 64 69 76 72 79 77 82 73 74 73 71 72 73
66 78 87 92 91 91 90 87 85 84 82 80 74 63 63 67 65 73 76 81 83 83 79 70 68 71 73 72 71 68 68 75 64 71 73 76 73 70 70 69 67 66 69
68 73 82 93 92 91 89 87 85 79 79 76 65 64 64 66 68 73 78 84 82 81 76 72 70 72 73 73 73 70 73 76 65 66 67 73 76 70 69 68 67 67 66
61 72 80 84 89 92 90 88 83 79 79 77 76 75 76 76 75 74 82 84 80 79 79 77 73 70 73 74 75 74 77 77 72 69 59 82 79 71 69 67 67 65 66
68 71 68 73 81 80 78 85 81 82 82 80 81 82 83 80 78 80 79 86 84 82 81 78 73 72 73 76 77 80 78 80 69 70 66 82 73 69 68 66 66 66 66
63 66 64 61 66 69 70 75 84 84 85 86 86 86 85 78 78 81 75 84 86 83 78 75 74 78 84 84 82 82 82 78 59 63 74 81 71 69 66 66 65 64 63
79 61 66 64 63 61 54 75 78 79 80 74 74 83 74 68 65 63 84 84 82 84 81 78 79 86 85 84 90 84 84 76 63 70 80 80 69 67 68 65 62 60 59
83 73 56 56 54 54 61 64 65 72 74 74 74 76 71 60 66 75 94 91 95 89 88 87 95 93 85 75 76 75 72 67 62 67 71 79 69 68 66 62 60 58 58
74 76 70 65 52 52 56 62 62 62 64 65 66 68 68 65 65 66 75 84 87 90 86 86 91 82 73 64 64 63 59 60 59 67 74 81 74 67 63 59 58 58 58
73 73 78 76 63 53 57 59 58 58 62 60 62 60 62 63 66 60 65 67 72 74 72 73 74 67 67 62 56 55 55 55 50 57 71 85 80 68 61 58 56 56 57
67 74 74 77 78 68 60 60 60 56 56 60 61 63 58 63 65 66 62 64 68 67 65 68 68 69 67 66 56 54 55 52 48 48 66 86 82 74 62 58 54 55 55
69 66 79 74 73 80 77 64 68 61 56 60 61 57 59 60 63 65 70 73 70 63 60 64 65 67 67 64 61 54 54 51 48 47 75 90 84 77 70 57 53 52 53
62 64 65 67 73 70 81 78 69 66 63 65 61 61 58 58 61 66 71 79 74 76 66 69 70 74 72 71 65 59 52 51 48 50 54 80 78 69 72 66 56 51 51
44 61 63 63 70 73 70 82 79 66 68 68 66 63 60 58 58 69 73 73 74 77 77 69 72 77 77 73 64 62 52 55 50 45 51 54 77 72 68 69 66 62 54
33 34 39 60 67 72 77 78 90 93 82 72 77 66 61 59 60 69 72 71 68 79 82 79 75 78 76 75 52 54 56 55 55 56 51 48 56 60 64 66 69 59 58
30 33 33 35 40 63 75 94 97 91 96 95 86 69 66 64 63 68 70 73 70 74 81 79 81 78 82 76 72 66 64 55 51 52 56 54 54 54 58 60 57 54 56
29 33 34 34 35 37 52 79 89 94 91 84 95 93 90 80 74 68 71 72 79 80 82 79 76 81 80 81 80 73 74 68 58 48 52 51 53 57 52 53 54 50 55
33 35 35 35 34 35 36 52 87 89 94 97 92 86 85 88 90 86 81 81 84 81 88 83 86 83 77 84 70 77 90 86 65 57 48 56 52 60 54 48 48 40 47
51 49 45 42 40 37 40 42 63 84 88 93 95 91 86 83 85 90 92 88 90 91 87 94 87 90 92 84 90 62 76 69 70 65 56 50 52 50 55 53 46 41 40
56 57 50 42 40 38 37 41 50 55 66 80 82 88 91 92 90 90 89 96 91 90 90 89 94 89 90 89 80 93 80 80 72 74 68 59 55 54 55 48 44 41 39
60 58 53 44 40 38 40 43 46 52 58 73 80 80 82 84 94 93 92 91 92 96 96 96 94 95 96 87 81 85 89 89 82 85 86 75 68 60 55 49 48 44 46

GFSSE_sfc_rhum_075.txt.gz
RH
94 92 90 88 88 89 87 86 85 84 83 81 80 80 80 79 76 76 76 73 72 68 62 66 66 66 68 68 66 65 65 64 66 71 73 72 66 67 69 72 72 72 72
91 88 90 89 89 88 88 88 88 86 86 84 81 80 80 78 77 76 75 71 68 68 66 66 66 65 64 64 63 62 61 63 68 72 79 80 77 67 63 66 67 66 64
88 85 86 90 89 89 89 89 89 88 87 85 80 78 76 74 72 71 72 73 71 66 68 68 67 65 65 64 62 62 62 63 66 71 76 80 78 69 68 70 70 69 68
84 84 87 90 90 89 90 89 88 88 86 83 80 76 74 73 73 74 70 69 73 72 72 70 68 66 67 64 62 65 67 68 70 77 74 67 66 64 66 69 69 70 69
82 84 88 91 90 90 89 88 87 86 84 84 82 80 78 78 73 66 65 69 75 79 77 71 70 68 70 65 64 65 66 70 80 80 86 91 89 73 73 75 73 76 76
79 91 94 91 90 90 89 88 87 81 83 81 80 77 76 73 66 64 72 76 84 84 78 71 70 71 72 70 66 65 68 72 80 82 84 81 86 72 71 70 69 73 76
86 92 92 91 91 90 89 88 86 84 81 76 71 65 67 68 72 70 74 84 85 83 76 71 72 73 73 71 67 67 69 76 76 82 84 79 80 69 66 68 65 69 69
89 89 89 93 92 91 90 87 87 83 77 75 72 66 69 68 73 76 76 83 85 79 73 71 74 74 74 72 69 68 72 78 71 69 82 88 78 69 64 66 65 65 65
85 90 96 92 93 94 91 88 85 81 78 75 75 74 76 79 79 77 82 84 82 79 79 76 74 75 74 74 72 73 75 78 76 74 77 90 78 67 65 67 66 66 68
84 91 97 97 92 88 84 88 84 83 81 79 79 84 84 83 83 83 87 86 85 85 82 80 74 74 76 76 75 78 78 80 79 76 85 90 73 68 68 67 66 67 66
81 84 89 93 94 78 76 76 83 84 84 85 86 86 86 88 87 80 88 90 88 86 82 78 76 79 85 84 81 78 81 81 73 77 89 82 71 68 67 67 66 65 64
89 80 77 81 84 75 68 82 84 76 85 85 84 87 82 86 85 75 85 91 88 86 84 80 81 86 87 94 92 82 86 84 76 83 93 80 70 66 67 64 64 62 63
83 75 70 70 75 74 71 85 92 93 89 84 87 86 83 74 80 91 96 94 95 92 92 91 95 97 94 90 88 87 82 86 79 82 88 80 69 67 66 63 61 61 61
84 83 74 71 63 73 72 73 80 85 89 89 85 80 87 77 80 93 98 97 97 97 96 97 99 96 93 87 81 79 77 75 77 81 90 84 75 69 65 62 61 60 61
84 83 81 82 69 65 70 68 72 73 77 78 79 77 80 70 70 79 88 93 97 97 96 97 97 94 90 83 73 71 68 65 70 74 90 88 82 72 64 60 60 60 60
84 81 81 82 85 72 66 64 67 69 67 69 75 73 73 64 65 68 78 80 86 86 87 83 84 86 83 77 67 63 63 59 57 68 84 95 84 77 66 61 59 59 59
86 82 85 80 82 85 83 79 74 65 62 67 68 68 68 66 68 70 72 74 75 76 74 79 79 80 80 74 71 63 62 57 54 62 74 96 89 82 73 62 58 58 58
76 82 86 70 81 84 88 88 79 74 68 67 67 68 65 66 68 74 79 76 71 72 72 74 78 80 80 80 74 67 63 59 55 56 84 95 93 80 78 71 62 57 57
75 82 84 81 84 80 84 88 90 83 73 71 69 67 65 64 66 73 77 83 80 83 81 74 79 81 85 81 74 69 62 60 56 51 70 92 88 83 82 78 73 67 63
56 76 80 81 84 85 88 91 94 94 87 78 83 70 66 64 66 72 78 80 84 86 89 85 79 86 84 80 61 63 65 61 62 62 59 68 83 78 75 76 80 76 68
32 39 46 67 77 79 96 97 97 95 95 96 94 86 72 64 63 67 74 80 81 84 80 88 83 82 90 83 76 74 70 65 60 60 60 60 66 71 71 70 68 65 65
33 37 38 37 41 77 81 89 97 97 96 94 95 94 92 90 80 65 72 73 83 86 91 89 88 92 90 84 82 76 74 68 65 56 56 56 60 63 63 62 57 51 56
44 47 43 44 44 42 46 90 96 96 96 97 96 94 93 94 93 92 88 85 82 84 88 88 89 92 89 93 74 74 90 85 78 66 56 54 57 68 60 57 53 49 51
57 56 49 45 44 40 42 52 94 96 95 97 96 94 95 93 94 95 95 95 93 94 94 94 92 91 96 94 97 72 83 81 74 74 73 72 66 61 63 60 54 49 51
57 59 57 46 41 40 42 44 54 62 76 91 97 97 96 95 93 92 94 95 96 96 95 96 96 97 96 93 94 96 92 93 79 84 85 83 71 69 67 61 53 46 48
65 65 63 47 49 48 45 44 48 52 57 63 80 92 94 97 97 95 95 93 95 96 96 97 97 97 95 93 92 93 94 93 89 92 92 88 82 78 72 64 57 51 58

GFSSE_sfc_rhum_078.txt.gz
RH
91 95 90 89 88 88 86 84 86 84 84 80 79 79 77 76 77 76 72 69 68 67 67 67 67 68 68 66 64 63 64 65 68 71 71 74 71 70 73 74 74 74 70
93 91 90 89 89 88 88 87 87 87 86 84 81 79 79 77 76 75 71 69 68 66 66 66 65 63 62 61 61 64 66 66 67 72 80 82 78 66 66 68 69 67 63
92 88 88 90 90 89 89 89 89 88 87 85 81 80 77 76 75 76 73 70 67 68 67 67 64 64 61 62 63 64 65 68 71 71 77 84 83 69 68 70 71 68 67
87 87 88 91 90 90 90 90 89 88 87 86 81 76 74 73 72 71 72 74 71 70 70 68 66 66 63 65 68 69 69 70 70 74 72 75 66 69 70 71 71 71 69
88 87 89 91 91 90 90 89 88 88 87 85 82 80 78 77 71 69 71 75 78 76 72 69 69 68 64 67 68 68 72 79 84 81 91 93 87 73 74 74 76 75 76
94 93 94 92 91 90 90 90 88 86 84 83 83 82 78 73 67 67 70 81 84 80 75 71 71 71 68 68 67 69 74 80 83 89 93 86 84 73 70 68 68 75 77
97 95 93 92 91 90 89 88 86 82 80 79 76 73 72 69 67 70 76 82 84 80 75 72 72 72 71 70 68 68 72 82 83 88 86 85 79 66 65 67 68 66 71
95 94 91 93 92 90 89 88 85 80 77 76 71 67 67 72 73 72 80 83 83 76 74 74 74 73 72 72 69 68 77 78 76 85 92 91 76 64 66 66 66 65 65
90 96 96 89 93 94 92 89 87 80 79 77 75 74 77 80 81 74 80 86 83 78 79 78 76 74 72 72 71 72 77 80 84 90 85 92 77 63 67 66 66 67 67
93 94 97 97 96 95 90 90 87 82 81 80 82 84 86 86 87 82 88 88 84 83 82 81 78 76 74 75 74 74 78 82 88 90 93 92 72 67 68 66 66 66 65
94 95 96 98 97 94 82 82 85 86 84 85 85 87 88 93 91 91 93 91 89 87 83 79 78 80 84 84 80 78 81 83 85 88 96 83 70 68 67 66 66 64 64
97 98 97 97 96 82 70 74 82 79 87 88 88 91 88 92 93 80 95 92 90 89 86 82 81 86 88 95 95 83 89 85 86 92 97 82 69 68 67 64 64 63 64
92 89 90 95 93 87 80 89 97 95 96 90 90 89 89 86 94 92 97 97 97 94 96 92 94 97 94 94 93 92 88 87 88 93 92 83 70 67 66 64 62 62 63
91 91 85 84 90 89 86 89 94 93 96 98 90 88 92 92 90 97 98 98 98 98 96 97 99 97 95 93 90 88 85 87 87 89 95 86 76 68 67 64 62 61 63
90 87 84 83 86 81 86 82 89 92 94 92 92 84 88 86 86 96 97 98 98 98 97 98 98 98 96 94 89 86 80 78 82 86 98 89 82 75 67 64 62 61 62
87 87 86 86 83 79 78 79 80 82 87 91 90 87 85 76 76 86 92 95 98 98 97 97 97 97 96 92 87 80 78 71 78 80 94 96 86 80 69 63 62 62 62
91 85 87 86 88 78 82 81 82 78 78 81 85 85 83 71 72 77 82 89 92 94 95 95 94 92 94 87 85 73 71 68 66 72 83 97 93 86 77 64 62 61 61
85 87 90 74 86 88 88 87 85 80 73 73 75 80 78 71 68 74 75 81 82 87 88 89 89 91 91 91 86 79 71 67 61 65 74 96 97 91 83 75 67 61 62
85 85 86 87 86 88 89 91 92 89 77 72 74 73 72 71 69 71 77 77 78 80 82 79 85 88 92 90 86 79 72 70 64 55 77 91 96 94 92 84 80 73 68
83 91 91 88 88 90 92 94 95 96 94 81 84 72 69 69 71 72 80 82 84 83 87 86 83 90 89 87 72 71 75 68 68 68 66 85 96 91 84 84 88 80 76
55 88 93 93 90 94 96 97 97 97 96 96 91 82 73 69 70 73 78 82 88 83 77 89 87 83 93 90 82 80 75 71 66 69 69 70 91 87 81 74 79 77 73
42 46 53 57 86 91 95 96 96 96 97 96 96 94 88 80 79 74 77 79 84 91 93 94 91 93 91 90 85 79 78 76 70 63 66 63 65 82 83 72 70 67 67
49 47 44 45 45 53 84 96 98 97 97 97 97 97 96 95 94 88 84 88 90 89 88 90 93 92 88 97 89 88 89 88 85 72 67 65 65 75 78 76 70 63 60
60 58 51 46 44 42 46 79 97 96 97 96 96 96 97 96 96 95 95 94 92 96 95 94 93 94 96 96 98 90 90 86 84 87 77 86 75 66 69 70 67 63 56
60 60 61 47 45 44 45 48 81 93 95 94 96 95 95 96 96 96 95 97 98 98 96 95 96 96 94 92 95 97 96 93 81 83 82 90 90 86 79 81 85 88 85
72 69 61 65 69 67 58 52 52 53 57 62 69 91 98 98 97 95 94 96 96 97 97 97 97 97 97 96 95 95 92 96 92 91 92 90 88 86 82 83 84 87 88

GFSSE_sfc_rhum_081.txt.gz
RH
98 95 90 87 87 84 84 82 84 83 82 78 77 77 78 77 75 72 70 66 69 68 68 68 69 68 66 63 63 64 65 68 70 72 75 77 73 74 75 74 74 74 66
93 92 90 89 88 86 86 87 87 87 86 83 79 76 76 75 74 70 69 67 67 66 67 65 64 62 61 62 66 66 64 65 69 75 81 82 76 70 70 70 70 67 64
93 90 90 90 90 89 89 88 88 88 86 84 79 78 77 76 77 71 71 68 67 68 67 63 62 61 62 65 66 68 68 70 70 76 79 88 84 67 67 71 70 68 66
90 90 91 91 90 90 90 90 89 86 85 84 80 77 75 74 75 76 74 70 70 70 68 64 63 64 67 68 70 70 69 68 67 74 77 78 71 69 72 72 73 69 67
91 90 92 91 90 90 90 90 89 88 87 85 82 78 75 75 72 72 76 75 74 73 70 67 65 66 70 71 71 72 75 78 80 80 93 86 88 73 70 76 74 76 76
96 95 94 92 91 91 91 90 89 87 84 83 84 83 78 72 69 71 76 83 81 79 72 70 67 68 70 70 71 77 81 84 88 95 95 85 85 68 66 67 68 72 77
95 97 92 92 91 91 90 90 88 87 84 83 81 78 74 70 69 70 79 84 81 76 73 71 69 70 71 70 69 74 80 82 89 94 93 88 78 63 66 67 64 64 64
84 95 93 93 92 91 91 90 88 83 80 76 74 72 70 72 69 75 78 85 79 76 74 74 70 70 71 69 69 75 82 79 82 94 93 91 75 66 66 66 66 65 65
90 96 96 95 94 94 92 89 85 82 80 79 76 72 77 82 79 77 81 84 80 78 78 78 74 71 71 69 69 75 81 83 91 96 88 93 74 66 66 66 67 66 66
93 92 97 98 96 96 94 91 88 84 82 81 83 83 87 87 88 82 89 89 84 83 84 83 77 74 71 72 74 77 82 85 93 94 96 93 71 66 66 65 66 65 65
92 83 97 98 98 97 95 89 88 86 85 86 87 89 90 95 92 92 95 91 88 86 83 79 78 80 85 86 82 79 82 90 90 96 97 84 69 68 66 65 64 63 63
94 85 84 94 97 97 80 91 92 85 89 92 92 93 95 95 94 90 95 92 90 88 86 81 81 86 90 95 96 88 90 88 89 95 97 84 69 68 66 65 64 63 63
94 83 83 96 97 94 80 84 96 96 97 96 93 94 93 92 96 96 99 98 98 96 97 93 94 97 94 94 94 94 91 89 95 97 93 86 70 67 66 64 62 62 63
98 96 97 96 98 94 95 89 96 93 98 98 95 92 96 97 97 96 98 98 98 98 97 97 98 97 95 93 91 90 90 89 92 95 96 91 79 67 68 64 62 61 63
96 95 96 96 97 95 95 95 98 98 95 95 95 92 92 92 94 97 97 98 99 98 98 98 98 98 97 95 94 93 90 86 84 92 98 94 86 76 69 66 63 62 62
95 94 92 90 94 92 89 94 91 97 97 98 97 89 91 86 87 96 97 98 98 98 98 97 98 98 97 95 93 92 90 86 79 90 96 97 90 84 73 66 64 62 62
92 91 92 90 87 88 89 91 90 88 92 97 96 96 88 84 86 86 94 98 97 98 96 97 97 96 97 94 94 90 83 82 75 85 88 97 95 90 82 67 64 63 62
90 89 91 79 89 85 83 87 89 90 92 89 93 95 89 81 79 85 88 89 90 97 98 98 97 97 97 96 96 93 81 76 71 75 80 94 98 96 89 80 73 65 63
92 91 91 90 93 90 92 86 89 84 82 85 86 91 91 82 76 77 79 82 87 93 96 94 96 95 96 96 93 94 87 79 72 61 71 83 96 97 97 87 84 79 73
92 91 92 93 92 94 95 95 97 97 91 85 87 79 83 80 76 75 80 82 84 90 93 95 92 95 93 94 82 83 87 80 76 75 67 71 92 97 96 94 94 92 81
85 91 93 94 94 96 97 98 98 98 97 97 90 82 77 76 77 77 79 86 89 84 81 84 88 87 94 94 89 91 82 78 75 73 72 72 90 94 96 95 94 94 80
43 80 93 93 94 96 97 97 96 96 96 96 96 93 83 81 82 80 82 83 87 91 93 92 92 94 92 95 89 81 84 78 78 70 72 67 72 94 96 93 91 88 84
47 49 55 62 67 94 96 98 98 97 97 98 97 97 96 95 90 86 86 88 91 93 92 94 95 94 92 97 92 90 87 90 92 80 74 73 73 79 89 93 88 78 70
60 57 50 47 46 46 64 96 97 97 98 97 97 97 98 97 96 95 92 91 92 95 95 94 97 95 94 92 98 91 93 85 84 87 79 86 82 69 70 78 80 81 86
63 64 57 50 51 48 47 57 94 99 98 97 97 95 95 96 96 96 96 97 97 97 96 95 96 96 95 93 96 98 98 94 83 90 89 90 85 91 86 85 83 88 87
74 65 70 71 75 72 61 56 60 88 91 87 80 89 94 97 98 97 97 98 97 98 98 98 97 97 97 98 98 98 95 96 98 96 96 92 90 87 86 87 89 92 93

GFSSE_sfc_rhum_084.txt.gz
RH
97 94 89 86 83 84 83 82 83 82 81 79 78 78 77 75 72 71 70 70 69 69 69 70 70 67 65 65 66 68 69 70 72 76 78 79 76 74 73 73 73 70 62
93 92 90 88 86 86 85 86 86 86 84 81 77 76 76 73 70 70 68 68 68 66 66 64 63 62 64 66 64 62 64 68 74 77 80 80 79 73 70 70 68 68 66
87 91 89 89 88 88 88 88 88 87 86 83 77 75 75 74 71 71 68 67 68 67 64 62 62 63 66 68 70 70 69 69 74 78 81 89 83 67 70 72 70 66 66
90 91 92 90 88 89 89 87 88 86 84 83 80 78 76 77 72 72 69 69 70 68 64 63 65 67 68 70 69 67 66 68 73 75 83 79 73 73 73 74 70 70 67
93 94 92 91 90 90 90 89 88 87 86 84 82 78 75 74 75 77 72 72 73 70 67 65 68 72 73 73 73 72 73 73 77 84 86 88 88 73 74 77 77 77 73
97 97 94 91 91 91 91 90 89 86 83 81 82 80 77 74 72 76 79 81 80 76 69 66 70 73 72 73 77 79 80 85 91 95 94 84 84 66 65 64 64 73 74
91 98 94 91 91 91 91 90 89 87 84 82 80 79 75 71 70 75 83 83 78 74 71 68 70 72 72 72 75 79 82 86 94 95 93 88 79 66 66 65 64 62 63
89 97 94 93 92 92 90 90 89 86 84 84 80 75 73 71 70 75 83 82 77 75 74 68 70 72 72 71 74 78 80 82 88 94 92 91 76 67 66 66 67 67 65
83 97 97 96 95 95 94 91 88 83 82 80 78 77 79 81 78 75 83 84 78 77 77 75 71 72 71 71 72 79 82 85 94 96 88 92 76 67 66 67 67 67 67
87 86 92 98 97 98 96 92 88 85 83 83 81 80 87 88 86 85 88 88 84 84 84 81 76 72 74 74 74 78 82 87 94 95 96 94 70 67 66 66 65 65 65
84 80 88 98 98 98 96 91 88 86 85 86 88 88 91 96 93 91 94 93 88 87 84 81 79 81 83 85 81 80 86 94 94 97 97 85 67 67 66 65 64 63 63
87 86 86 92 98 98 84 95 93 87 93 94 93 93 96 96 95 92 95 93 88 88 86 82 81 85 91 95 96 89 93 91 90 96 97 86 67 67 66 64 63 63 62
81 80 83 85 98 97 91 98 98 97 98 97 93 94 94 95 96 98 98 99 98 95 97 94 94 97 93 95 95 94 92 90 96 97 93 88 71 66 66 64 61 62 62
88 79 84 85 98 98 96 94 97 96 98 98 96 94 96 98 97 97 99 98 98 98 97 97 98 97 95 93 91 90 90 91 94 97 95 92 84 67 67 64 62 61 62
89 85 82 92 98 98 97 98 96 97 92 97 97 94 94 95 98 97 97 98 99 98 98 98 98 98 97 94 93 93 92 90 89 90 97 94 90 80 69 66 64 62 60
97 95 96 98 97 97 97 96 93 97 93 98 98 95 94 92 90 98 97 98 98 99 98 97 98 98 98 96 94 93 93 93 91 86 95 96 92 87 76 68 65 63 61
95 96 97 96 97 96 96 96 98 94 95 98 97 95 94 91 88 90 97 97 98 98 96 97 97 97 98 95 95 93 93 91 86 83 90 96 96 92 88 71 65 65 64
94 95 95 83 94 96 95 96 97 97 98 97 98 98 93 89 88 89 94 96 96 98 98 98 98 98 98 97 96 96 95 89 81 77 85 92 97 97 93 86 78 67 65
95 96 96 94 94 94 95 93 94 93 95 94 97 98 96 90 85 87 89 90 93 97 97 97 97 96 96 96 96 96 96 94 86 69 72 80 90 97 98 92 88 83 77
94 92 93 95 94 94 96 96 97 96 94 92 94 91 95 89 86 83 87 87 90 94 96 97 96 97 96 95 88 89 95 94 88 83 76 67 79 92 96 96 96 95 86
90 94 95 94 95 96 98 98 98 96 98 96 91 89 85 87 88 85 85 86 89 88 86 92 94 94 96 95 93 94 92 86 87 83 78 77 76 86 94 97 98 97 95
70 90 94 95 96 95 97 97 96 97 97 96 96 90 90 90 91 89 87 89 91 92 93 94 93 94 94 97 93 89 88 80 85 81 81 74 74 83 94 95 96 95 95
46 54 82 94 96 96 95 97 98 97 98 98 98 98 96 93 91 89 89 90 93 92 93 95 95 94 95 97 92 91 93 93 87 78 67 77 77 82 88 94 91 88 86
54 52 49 51 54 62 97 98 97 98 97 97 97 97 98 97 96 92 90 91 93 96 96 95 96 95 94 94 98 91 93 87 94 92 85 83 85 70 69 81 87 86 84
62 62 54 52 52 49 48 67 98 99 98 98 97 96 96 97 97 97 97 97 96 97 95 95 97 98 97 97 98 99 98 96 89 93 95 93 82 88 88 90 89 87 86
72 70 72 71 76 73 61 58 58 83 96 98 96 95 96 96 97 97 97 98 98 98 97 97 96 97 98 98 97 97 96 97 98 97 98 96 95 92 84 92 94 96 95

GFSSE_sfc_rhum_087.txt.gz
RH
78 75 86 85 84 85 84 82 83 82 81 78 74 75 74 73 72 70 70 70 71 73 72 71 69 67 67 68 69 69 69 71 76 78 80 82 76 73 72 70 65 51 63
75 73 87 86 86 86 85 85 85 85 84 80 74 75 73 71 69 69 69 68 68 67 66 65 65 67 65 63 63 65 69 71 73 74 78 81 81 72 68 69 69 60 64
75 71 76 87 87 86 87 88 87 86 84 82 78 74 73 71 70 68 68 68 66 65 64 64 66 67 69 69 68 66 66 70 75 78 80 57 57 72 72 71 69 67 64
74 72 72 88 87 87 88 88 88 86 85 82 80 76 74 72 72 69 69 69 66 64 63 66 67 68 69 68 68 69 70 72 74 78 61 66 64 73 73 74 73 69 69
76 73 76 88 87 89 87 87 88 86 86 84 83 81 79 74 74 71 72 72 68 66 67 69 73 74 75 75 73 71 72 75 84 81 78 76 63 66 68 68 74 72 72
78 73 87 90 90 89 87 86 88 87 84 82 83 81 76 74 77 74 75 78 77 73 70 72 74 74 76 78 78 78 83 86 84 65 64 64 59 64 64 66 66 76 78
80 75 78 91 90 91 90 90 89 87 84 81 79 78 75 73 74 82 81 81 77 72 68 72 73 74 75 78 79 82 86 89 66 63 62 62 61 65 66 66 65 64 64
80 77 76 91 92 92 91 90 89 87 84 83 82 77 74 71 74 82 82 81 76 72 69 72 73 73 73 76 78 79 82 85 68 64 65 61 72 66 66 67 67 66 63
76 75 77 75 84 94 93 92 89 86 86 83 81 79 80 79 78 80 86 82 77 77 74 73 72 73 72 74 80 79 83 87 65 64 61 58 76 66 66 66 66 67 67
81 76 75 79 76 76 78 92 88 86 85 83 85 87 88 86 84 83 89 86 84 84 82 80 74 74 75 74 76 80 87 88 64 67 63 60 70 66 65 65 64 64 65
77 76 79 83 79 78 76 79 85 87 86 86 84 91 85 72 71 73 88 92 88 88 84 81 79 80 85 84 81 84 85 61 62 63 62 81 67 66 65 65 63 64 64
86 77 82 84 80 78 75 71 66 64 62 63 67 70 69 75 71 74 83 93 88 89 87 83 83 87 78 62 62 75 58 61 59 63 62 84 67 66 65 64 63 64 63
82 81 82 81 83 77 75 72 67 66 67 67 67 69 71 73 74 71 73 87 81 87 71 74 76 71 71 60 61 58 59 57 55 59 69 86 75 67 66 64 62 63 63
86 81 84 80 88 80 75 72 68 69 70 69 68 67 68 73 76 76 76 80 80 76 77 76 74 74 72 68 59 56 57 57 56 60 67 90 86 70 67 65 62 61 62
85 74 80 84 90 81 78 75 70 68 69 68 71 68 64 71 72 74 76 78 80 79 75 76 73 71 72 68 64 62 60 57 57 56 58 90 90 83 69 67 64 62 61
86 80 73 88 87 82 78 77 72 72 68 72 71 70 69 63 67 73 74 76 78 78 76 73 71 71 71 70 66 62 62 63 62 62 56 59 89 89 80 70 66 64 63
85 86 83 86 91 83 79 77 77 78 73 75 72 70 71 69 67 67 70 72 71 72 75 76 74 73 73 71 68 61 59 60 62 60 58 58 64 92 89 75 69 66 65
87 92 91 88 91 86 80 79 77 76 74 73 73 72 72 70 70 66 64 66 66 70 73 75 74 74 74 70 66 63 63 64 61 57 55 54 61 63 79 88 82 70 66
86 87 91 91 92 90 86 79 80 78 76 74 75 75 74 72 72 70 67 64 65 70 72 74 75 74 71 70 70 65 64 64 62 60 57 54 56 64 64 81 91 88 82
88 88 86 90 88 91 91 90 83 82 81 76 80 76 76 74 74 74 72 70 70 73 73 76 75 75 71 68 68 67 64 63 64 64 58 55 52 56 59 66 67 70 89
83 93 93 91 94 95 93 93 92 90 88 84 80 79 77 75 77 77 75 73 73 73 69 68 70 72 71 72 72 66 64 61 62 61 60 58 57 56 55 57 61 64 66
71 85 91 90 89 89 92 91 90 91 91 87 87 80 78 78 81 80 77 77 74 73 72 71 72 74 73 74 68 72 74 63 60 61 58 58 57 55 56 60 61 63 67
39 61 85 88 89 88 89 90 90 91 91 92 89 88 85 81 82 82 81 78 80 79 83 78 80 79 80 86 78 84 90 88 72 64 58 55 54 53 55 58 61 72 68
40 47 52 77 88 90 90 88 87 89 90 87 86 88 88 84 81 81 81 80 80 85 83 86 84 82 82 84 90 87 83 79 90 84 74 67 70 55 57 55 56 60 68
56 54 52 51 49 49 74 90 90 90 88 87 86 86 85 87 88 88 85 83 83 85 83 84 86 85 85 86 89 94 92 91 86 95 97 92 73 76 70 66 76 73 73
62 57 61 60 60 52 49 50 68 85 87 91 90 89 88 87 87 89 91 90 89 87 86 85 85 87 87 88 87 90 90 93 96 94 96 94 90 84 74 75 76 76 80

GFSSE_sfc_rhum_090.txt.gz
RH
54 57 86 85 83 83 83 81 83 82 81 77 76 74 73 72 70 71 72 74 75 74 72 71 70 70 69 69 68 70 73 77 76 79 81 81 75 70 65 67 65 44 69
49 54 87 86 86 85 85 84 85 84 81 79 75 72 72 69 69 70 69 69 68 68 67 67 66 64 63 64 66 68 70 72 71 74 80 81 79 71 70 70 71 55 64
48 56 62 86 86 86 86 86 86 85 82 81 76 72 72 69 68 68 68 67 66 65 65 67 67 67 67 66 65 66 68 72 76 76 73 52 56 74 73 72 70 67 66
46 56 52 87 86 86 88 88 87 85 83 81 79 74 72 69 68 69 67 65 64 65 67 68 68 69 70 71 71 69 72 76 80 77 54 52 51 72 71 76 70 70 69
47 53 56 86 86 87 88 88 87 86 84 83 82 80 77 72 70 71 69 66 66 70 70 72 74 75 74 73 72 73 77 83 83 68 51 52 48 61 69 72 70 75 77
45 50 81 86 87 88 88 88 86 86 83 82 83 81 79 77 72 74 73 71 74 77 74 75 75 78 79 78 78 80 83 82 73 50 49 53 50 65 66 67 68 69 76
44 48 65 86 89 88 86 87 88 87 83 80 78 76 75 76 77 77 76 74 71 73 74 74 74 76 79 79 81 83 85 82 48 47 47 48 56 66 66 67 67 65 67
52 53 60 88 91 90 88 90 89 87 85 82 82 75 73 74 82 80 78 76 71 70 73 74 74 74 78 79 79 82 83 78 48 46 49 50 69 66 66 66 67 67 68
53 53 56 61 75 95 93 92 89 88 86 86 82 81 80 79 81 83 81 79 74 70 74 75 74 73 76 79 77 78 82 83 46 47 44 46 75 67 66 65 66 67 67
48 50 49 56 60 60 64 93 92 90 87 85 87 87 86 86 83 86 88 85 83 80 77 75 74 74 74 77 78 81 84 83 45 49 47 55 69 66 66 65 64 64 65
54 54 48 53 56 56 56 71 87 90 89 89 84 91 83 44 49 64 85 89 89 87 81 77 76 80 81 82 80 84 84 43 43 46 45 77 68 66 65 63 63 63 64
62 64 58 55 57 56 57 61 54 52 50 49 50 52 41 44 45 46 75 92 89 89 88 83 82 81 77 42 50 72 42 43 43 46 46 78 68 67 64 64 63 63 62
66 71 64 66 56 54 57 57 52 48 47 46 43 40 41 47 50 47 53 73 74 82 62 67 66 51 51 37 42 40 42 41 39 43 57 80 79 67 66 64 62 63 62
82 66 75 72 59 55 54 54 49 49 48 47 46 38 41 45 49 43 45 53 57 56 59 58 51 53 54 48 36 35 39 40 40 42 52 85 84 76 69 66 63 62 63
79 74 71 76 62 57 56 54 50 48 49 47 49 45 38 42 46 48 49 50 52 52 51 53 51 50 52 50 44 38 38 39 40 40 42 86 86 84 75 69 66 63 62
74 75 70 70 64 59 57 55 52 49 48 50 50 51 48 42 43 49 50 52 52 51 49 50 48 47 48 48 47 41 39 42 45 46 43 45 83 86 83 72 69 66 64
63 67 70 71 76 66 58 56 54 52 50 52 51 51 52 51 51 52 46 49 49 47 47 50 51 50 47 45 46 42 37 40 46 46 46 44 49 91 88 80 72 69 67
60 65 66 69 71 73 64 59 55 54 52 52 51 52 54 53 54 54 52 47 44 48 50 51 50 50 49 48 46 47 47 44 44 45 46 45 47 45 76 87 84 77 69
57 62 68 72 78 78 74 71 59 57 54 52 52 53 54 53 54 55 53 51 46 51 52 53 52 52 54 54 53 50 49 49 48 46 46 46 47 50 47 76 89 91 85
58 58 61 72 74 80 81 82 82 64 59 55 56 54 55 53 55 58 55 54 52 53 55 56 58 56 54 52 52 51 50 50 49 49 47 45 46 49 49 50 51 57 92
64 62 62 65 77 83 90 91 88 90 80 69 64 64 59 56 56 59 57 56 57 59 57 56 56 60 59 57 59 55 54 50 50 48 47 46 46 49 47 46 47 47 51
66 67 68 66 67 77 76 84 83 85 90 85 82 71 64 63 63 61 61 61 60 62 62 61 60 62 58 56 60 62 66 52 48 48 46 47 47 46 46 48 48 48 50
42 63 76 75 80 81 80 84 82 85 90 91 88 85 77 72 72 74 68 65 68 67 68 66 65 70 67 68 65 69 80 76 62 52 52 47 46 46 48 50 49 52 54
32 32 44 76 77 85 85 88 88 88 86 86 82 79 76 73 72 72 70 68 68 71 72 74 71 72 71 72 76 68 67 70 82 89 67 56 52 51 58 50 49 51 54
39 41 40 45 65 77 82 85 86 85 83 82 85 82 76 75 73 76 74 73 72 70 72 71 74 70 69 73 74 78 82 86 83 93 94 74 66 61 58 57 62 61 62
43 44 48 46 48 50 68 80 84 88 82 86 85 81 76 74 73 75 78 79 79 75 73 71 71 73 73 75 76 79 81 81 82 87 94 88 84 75 65 60 62 63 63

GFSSE_sfc_rhum_093.txt.gz
RH
49 61 87 84 83 84 83 82 82 82 78 76 74 73 72 72 73 75 77 77 77 75 72 72 69 68 67 68 69 74 76 77 78 78 81 78 71 68 69 71 63 55 72
46 55 87 86 85 85 84 85 85 84 82 78 73 71 70 69 70 71 71 71 70 69 68 67 65 63 64 65 67 69 68 70 72 76 80 82 83 76 72 72 73 58 66
45 51 67 86 86 86 86 86 85 83 82 79 74 70 69 69 69 69 68 68 67 67 67 66 65 65 64 64 66 66 69 71 74 74 75 57 64 76 75 73 74 72 71
42 49 55 88 87 86 86 85 85 83 82 80 76 74 69 68 69 67 66 66 67 68 68 69 71 73 72 70 72 76 78 80 79 76 58 56 50 72 73 74 76 75 74
44 44 56 86 87 87 87 87 86 84 83 82 80 79 74 71 71 67 65 67 71 72 73 73 74 74 74 74 76 80 80 79 81 53 51 54 53 64 71 73 71 76 77
44 44 79 86 88 89 89 88 86 84 82 81 82 81 78 73 74 70 68 75 78 79 76 76 79 80 79 79 80 80 80 78 77 44 47 55 57 65 67 70 70 71 74
43 60 60 86 88 89 89 89 87 86 84 82 80 78 79 75 76 74 71 76 77 77 75 75 78 79 80 81 82 81 78 77 42 43 47 54 62 65 65 66 68 70 71
42 64 56 85 89 88 89 88 88 88 85 83 81 76 76 81 78 76 74 75 74 75 75 75 76 78 79 80 81 82 80 80 44 46 52 59 72 65 64 66 67 67 68
45 59 55 60 74 91 90 91 89 86 84 84 83 81 82 85 83 79 80 76 72 75 76 76 75 78 79 77 76 77 79 79 45 46 44 56 75 66 65 64 64 64 65
57 53 52 54 58 62 67 93 91 90 87 84 87 86 86 86 89 87 87 84 80 78 78 77 76 74 79 79 78 77 80 79 44 46 52 64 70 66 64 65 64 64 65
56 62 54 53 55 60 56 72 91 92 91 90 85 90 85 47 61 75 83 90 88 83 78 76 78 78 81 82 80 82 82 44 42 45 54 77 69 66 65 63 64 64 64
57 60 61 55 56 56 61 62 63 61 56 52 53 57 43 36 38 55 78 91 89 89 86 80 80 80 78 47 57 74 53 41 42 46 58 79 68 67 65 63 64 63 63
63 71 55 60 52 57 59 57 64 54 45 44 42 42 35 38 45 53 68 81 82 85 69 73 71 56 44 36 39 39 40 38 38 42 69 79 77 67 66 64 62 64 62
65 63 68 57 64 56 54 52 64 51 42 42 38 33 37 41 44 40 48 65 69 63 69 62 49 47 50 44 34 32 35 37 39 42 67 82 80 77 70 66 63 63 63
73 61 57 54 60 53 53 53 57 47 44 42 42 34 33 39 40 38 41 46 49 49 54 51 47 46 48 45 42 34 34 35 37 40 42 85 83 80 78 71 68 64 64
78 77 59 57 52 52 56 54 52 54 45 45 45 44 36 35 39 44 45 46 46 46 45 46 45 45 45 44 43 39 35 37 39 43 46 54 81 82 82 76 72 68 66
65 69 82 71 69 56 60 57 51 52 46 50 46 45 46 42 42 45 43 47 46 44 41 44 45 46 43 41 42 39 36 34 42 45 47 46 59 86 83 80 74 72 69
54 62 64 70 64 69 57 58 68 56 52 53 46 46 50 48 48 50 50 44 42 44 46 48 48 48 47 47 45 44 45 42 41 42 45 47 52 47 81 85 84 77 74
50 53 59 66 68 65 68 68 70 63 56 47 45 46 49 48 49 51 51 48 41 47 50 52 51 49 52 52 53 50 51 53 51 45 47 48 49 54 53 85 88 89 87
51 50 56 65 68 70 73 78 81 75 65 54 59 60 52 48 50 54 52 51 48 51 52 54 55 54 54 52 49 51 54 54 55 54 49 46 48 52 53 56 68 70 91
53 54 55 64 66 80 88 88 85 83 85 73 67 61 58 54 53 55 55 52 53 55 54 53 56 59 62 60 64 64 60 55 55 54 54 50 49 51 51 52 54 54 64
56 58 60 54 59 71 81 81 80 78 82 77 82 69 65 65 65 59 60 60 56 59 59 58 60 65 65 65 68 68 74 62 59 54 55 51 50 52 52 51 50 52 57
59 60 60 57 53 62 73 83 84 88 91 92 87 84 82 82 76 72 66 63 64 64 68 68 68 72 72 68 66 73 82 80 71 62 60 56 51 53 53 52 52 54 56
38 57 60 61 72 81 78 79 85 85 85 86 80 84 79 84 83 89 88 80 71 76 76 76 70 71 75 78 81 70 72 71 82 81 70 64 58 55 59 57 59 57 60
36 42 44 70 70 78 81 80 90 89 83 89 91 90 82 76 87 89 88 88 85 78 78 73 76 74 74 77 77 86 81 82 82 91 93 83 72 65 60 62 62 64 66
42 44 46 46 62 76 79 91 83 87 87 90 95 95 83 79 81 82 82 83 83 79 77 78 76 76 75 75 77 82 87 89 90 91 94 87 84 78 67 65 67 67 68

GFSSE_sfc_rhum_096.txt.gz
RH
77 85 88 87 87 87 85 82 82 76 72 73 72 71 74 77 79 80 79 78 78 76 69 68 68 67 68 69 74 76 77 74 71 73 81 81 76 70 68 69 71 67 72
77 80 88 87 87 86 85 85 84 83 80 77 71 69 70 73 74 74 74 72 71 69 67 65 65 64 65 67 66 67 70 72 73 79 84 85 85 75 73 74 77 66 70
70 77 81 87 86 87 87 85 85 84 81 78 73 69 69 70 70 70 70 69 69 67 65 65 64 64 65 65 66 70 75 75 76 77 76 72 80 76 75 77 79 74 68
65 71 78 88 88 88 87 85 85 83 81 79 76 73 69 68 68 68 68 68 69 69 70 71 72 70 73 77 77 77 77 76 77 71 57 65 65 76 74 76 74 74 70
62 63 76 88 88 86 85 85 85 84 83 82 78 77 74 69 66 66 68 70 71 73 73 74 75 76 77 80 80 78 78 78 78 62 66 72 75 68 71 73 74 74 77
56 71 87 87 85 85 86 86 86 85 84 84 81 80 78 72 66 70 73 77 78 76 77 79 80 79 80 81 79 78 75 80 72 62 68 72 71 64 67 71 73 72 72
55 76 83 89 88 88 88 87 86 86 86 84 83 80 76 74 69 73 76 81 80 78 78 79 79 81 82 82 80 76 78 81 57 64 74 79 70 63 64 66 67 71 72
69 69 76 89 90 89 89 88 88 88 87 85 83 81 80 76 73 72 77 80 78 76 76 78 78 80 82 81 79 76 78 82 58 67 77 84 73 63 63 63 64 65 66
65 64 74 81 87 92 91 90 89 87 86 85 84 86 88 84 82 75 78 80 77 77 77 78 80 79 78 76 74 75 76 80 62 66 64 81 75 64 64 64 64 65 66
67 63 72 76 81 86 88 93 90 86 86 87 88 88 92 90 88 87 84 83 83 82 82 82 78 81 80 78 77 77 76 83 72 69 78 84 69 65 65 65 64 64 66
66 60 66 70 74 80 81 88 93 90 91 90 89 90 89 90 86 87 87 88 86 84 83 80 78 79 83 83 83 81 80 77 63 72 82 80 69 66 65 66 65 65 66
81 69 66 58 70 77 68 84 85 82 82 76 77 86 75 69 83 72 90 91 88 87 85 82 82 82 80 79 83 79 80 70 62 74 87 80 70 67 66 66 66 65 65
73 73 67 67 63 71 72 72 76 76 70 69 70 71 67 62 83 80 92 89 94 92 92 90 90 81 72 64 73 72 61 61 65 70 83 84 72 69 68 65 66 65 64
76 73 71 76 68 74 68 68 73 70 63 66 61 57 60 71 67 81 87 95 94 87 81 86 86 78 66 60 59 51 55 60 61 72 89 84 82 74 70 68 65 65 64
80 74 75 78 80 70 72 70 71 67 59 60 56 47 56 65 64 62 76 85 86 83 82 84 78 69 68 65 59 51 47 51 55 60 87 88 83 81 76 72 68 65 66
82 77 74 74 76 69 80 71 69 63 58 63 63 57 48 58 62 62 66 73 74 71 76 73 68 66 68 65 64 54 50 52 54 58 74 87 85 82 79 76 73 70 67
82 82 78 72 70 71 80 81 68 61 56 60 66 59 55 56 58 64 68 71 70 65 62 65 65 66 66 59 62 59 54 52 60 60 63 70 80 86 82 76 74 73 71
76 81 84 78 80 79 77 81 86 67 68 62 63 66 61 59 62 67 70 68 66 66 66 70 70 72 70 69 67 65 62 56 55 60 62 64 69 69 86 84 84 78 77
69 74 79 82 81 83 80 84 85 80 72 64 62 66 63 62 63 71 73 69 60 69 71 72 73 74 77 75 72 72 74 73 69 59 64 64 66 68 78 86 88 89 87
63 67 71 79 78 81 88 88 88 84 79 68 67 64 60 60 64 71 73 70 64 73 75 77 78 77 76 77 63 66 74 75 76 75 71 64 66 69 70 74 93 93 92
70 69 71 79 84 84 91 97 96 94 91 86 77 71 65 62 66 70 73 72 71 72 74 74 77 80 86 82 86 86 83 76 74 75 75 71 68 63 66 69 77 78 87
72 74 78 78 83 86 87 92 95 96 94 95 90 84 79 76 74 71 76 76 72 77 74 75 76 84 83 85 88 92 92 84 80 73 75 70 70 69 67 65 67 70 73
75 78 79 75 77 89 91 96 96 97 97 96 95 98 94 91 92 88 84 90 86 84 84 82 82 83 90 87 83 88 95 94 85 78 72 70 68 74 72 67 64 68 70
84 81 77 76 78 86 92 96 96 97 98 98 98 97 93 96 96 96 95 95 95 95 95 96 93 94 92 95 91 87 90 90 95 93 87 80 70 72 75 77 79 76 79
62 81 87 84 87 93 94 94 96 89 85 87 91 89 94 96 96 96 96 95 94 93 92 93 95 94 92 94 95 96 94 95 94 97 97 95 90 81 82 81 81 84 82
62 63 65 87 88 93 92 91 90 87 86 91 94 95 94 95 97 97 95 97 96 94 94 96 94 94 96 93 94 94 94 96 98 98 99 95 95 91 88 86 82 90 92

GFSSE_sfc_rhum_102.txt.gz
RH
96 90 88 86 85 82 77 72 71 74 75 78 81 80 81 82 81 82 78 77 76 72 68 67 68 75 70 73 74 76 76 80 78 79 82 81 75 69 71 74 78 76 75
90 88 88 87 85 84 80 72 74 79 78 79 80 80 80 81 79 75 73 71 69 67 67 67 69 72 71 72 74 76 75 78 81 84 89 88 86 77 72 73 78 74 76
90 87 85 88 86 84 81 81 82 79 78 78 77 78 77 76 74 72 70 68 67 65 64 64 64 67 72 75 76 72 74 74 78 80 83 88 80 77 73 73 75 71 75
85 84 86 88 86 84 84 82 81 79 77 76 76 76 74 72 71 70 69 67 66 66 66 66 69 76 78 78 77 71 74 75 77 78 77 79 72 74 73 75 74 74 77
83 82 85 88 84 83 84 84 82 79 79 77 77 76 75 72 70 69 69 70 72 73 74 75 79 80 81 80 76 72 73 75 78 77 83 83 81 72 72 67 71 76 76
90 87 87 87 85 84 85 85 82 81 77 73 74 76 75 70 70 70 73 77 81 81 79 78 80 81 80 79 76 72 74 77 80 85 84 76 75 66 68 68 68 69 71
94 88 86 87 83 85 86 86 84 81 80 74 70 70 69 70 71 73 77 80 82 83 80 80 81 82 79 78 71 73 77 82 88 93 88 80 71 64 64 66 67 68 67
92 88 85 88 84 87 87 87 86 84 84 80 74 70 70 72 73 77 81 85 83 80 80 80 81 80 76 73 74 75 79 80 82 91 89 86 70 63 65 66 66 66 66
86 87 87 84 88 90 88 88 88 86 86 83 79 76 78 81 80 78 81 83 81 79 81 82 81 78 72 70 74 81 83 83 88 87 77 86 73 64 64 65 65 66 67
88 90 94 91 88 90 92 92 91 91 88 87 85 85 88 89 86 86 88 85 84 86 85 83 78 74 72 74 74 82 83 85 91 89 89 85 69 66 66 66 66 65 67
89 93 95 95 95 95 93 92 93 93 94 92 91 91 91 95 95 94 94 91 88 86 86 84 81 80 79 78 75 78 83 86 92 92 92 79 68 67 68 68 66 67 67
91 94 94 96 96 95 82 93 94 88 92 96 94 94 96 96 95 88 95 92 90 89 87 82 82 83 81 84 81 80 83 86 92 94 94 80 69 68 68 68 68 68 67
87 88 92 93 94 91 92 94 90 92 93 93 97 98 98 93 97 98 98 97 97 95 97 93 92 91 87 87 84 82 80 86 94 94 90 83 73 70 68 68 68 68 67
90 88 90 92 93 90 88 88 92 87 96 97 93 94 98 99 99 99 99 98 98 98 96 96 96 88 84 81 83 84 70 76 91 94 95 86 81 72 70 69 68 67 66
90 89 89 92 91 88 88 85 85 86 88 88 87 81 81 98 98 98 99 99 98 98 97 97 96 92 92 88 75 62 58 70 85 93 97 92 87 82 75 72 70 69 66
86 87 90 90 88 83 88 83 82 83 81 83 81 75 76 86 97 95 97 98 98 97 97 97 97 96 93 86 76 68 58 60 70 90 94 94 90 87 82 75 73 71 70
85 87 90 88 87 82 89 87 84 79 74 75 69 69 71 80 89 94 94 98 97 96 93 95 93 84 85 77 81 76 66 62 64 71 86 90 90 91 86 75 73 76 73
93 93 87 86 87 85 85 91 90 81 74 65 59 60 64 68 75 83 95 96 93 92 92 91 85 83 80 78 76 74 73 68 64 69 75 81 85 83 88 84 83 78 75
84 92 91 88 85 83 87 88 83 86 74 63 65 64 63 64 70 78 84 88 82 85 82 82 84 83 85 84 80 81 83 79 71 61 70 73 79 82 84 86 88 88 87
90 88 87 86 84 91 96 95 95 93 87 77 72 71 66 69 72 78 81 76 77 82 82 85 83 88 86 84 74 77 86 86 86 84 78 74 76 78 81 84 93 95 92
96 96 92 94 94 89 91 94 96 95 94 91 83 75 67 67 72 76 80 81 76 79 79 80 83 83 88 89 88 88 90 86 84 86 88 86 83 76 74 88 96 95 90
94 93 96 93 93 86 90 92 95 96 96 93 91 84 78 76 75 78 82 83 81 76 77 78 81 89 87 89 89 95 94 88 92 90 90 87 86 75 69 71 80 91 96
96 95 92 92 90 91 91 98 99 98 98 98 96 95 95 90 89 89 89 88 88 82 86 90 92 92 93 96 93 89 96 96 95 93 92 89 81 79 74 76 84 86 85
94 95 93 94 93 93 97 95 96 95 97 97 96 98 97 95 96 96 96 97 96 98 96 96 96 96 98 98 98 96 96 95 96 94 89 81 76 77 83 85 93 89 90
94 94 96 95 96 97 97 96 97 97 96 97 98 97 96 94 95 96 98 99 99 99 99 99 99 99 98 98 98 99 99 99 98 99 97 93 81 83 88 84 84 88 90
96 96 96 96 97 98 98 98 95 94 96 98 99 99 98 98 98 97 98 98 99 99 96 95 96 97 97 98 97 97 95 98 99 99 99 98 94 88 84 84 88 90 97

GFSSE_sfc_rhum_105.txt.gz
RH
95 91 87 84 82 79 72 73 74 76 81 80 79 80 81 80 80 78 77 75 71 70 69 68 68 69 72 73 73 75 74 76 80 83 83 78 73 74 76 79 80 76 74
90 87 87 85 83 75 71 75 77 81 83 81 81 80 80 80 77 75 73 71 68 66 66 69 66 72 73 75 74 75 78 82 83 85 89 88 82 72 72 76 82 76 74
90 87 84 86 84 80 78 76 78 79 82 83 81 81 80 76 76 72 70 68 67 66 67 69 71 74 76 74 75 74 78 79 81 83 84 89 86 76 75 75 78 76 74
89 86 86 87 85 82 78 76 77 77 82 82 81 80 77 74 71 70 69 67 66 65 66 72 76 79 76 74 76 74 75 78 80 80 82 81 68 71 70 74 74 75 75
89 86 86 87 85 83 81 80 80 79 79 81 82 82 76 72 71 69 68 68 70 73 77 78 80 78 77 79 74 73 72 76 80 80 86 84 75 61 64 66 67 65 68
91 89 88 85 84 85 83 82 79 76 75 76 80 80 77 70 70 70 72 77 81 82 82 80 80 76 80 79 74 70 73 77 80 86 86 78 79 65 66 67 64 64 63
93 87 86 84 84 85 84 83 82 78 74 74 75 74 72 70 71 74 77 80 81 82 81 81 79 75 80 77 74 72 76 82 89 92 87 82 74 65 66 66 66 66 66
89 85 82 85 86 87 85 84 82 80 77 74 76 74 71 71 73 78 80 83 81 80 80 81 79 74 75 75 74 75 79 82 85 91 90 87 71 65 65 66 66 67 66
87 87 85 85 87 89 88 85 85 83 80 78 77 76 78 79 82 84 86 85 81 81 82 83 80 74 74 78 77 78 83 85 91 89 80 88 73 64 65 66 66 66 67
92 86 94 92 89 91 92 89 89 87 83 80 81 85 87 88 86 88 90 86 85 85 85 83 78 72 75 78 81 83 84 86 93 91 90 88 69 66 67 66 66 67 67
91 94 96 95 95 96 95 94 93 92 89 88 90 92 93 97 96 94 94 92 90 88 84 81 78 78 78 80 82 85 86 91 94 94 94 79 68 67 68 68 67 67 68
92 92 94 94 96 96 88 97 96 93 90 89 92 94 97 97 97 94 97 93 91 91 90 84 83 81 81 84 84 83 91 93 95 96 96 79 68 67 68 69 69 68 68
85 91 91 96 96 92 95 96 98 98 97 95 95 96 97 95 98 99 99 99 98 96 97 93 93 92 85 87 86 86 85 92 97 97 91 82 70 68 68 68 69 68 68
90 88 90 95 95 94 93 89 96 94 99 99 98 97 97 99 98 99 99 98 97 98 96 95 96 91 87 85 86 87 81 88 97 98 96 88 80 70 69 68 68 68 67
89 88 91 94 93 95 94 88 87 88 91 97 98 97 98 99 98 98 98 98 98 98 97 97 95 89 90 90 85 78 66 79 89 97 98 93 88 81 73 70 69 67 67
86 89 90 92 91 90 89 89 83 86 89 90 93 94 94 96 98 98 98 98 98 98 97 97 97 96 95 94 87 78 65 67 80 93 96 95 93 87 82 75 72 71 69
86 87 93 90 89 88 90 89 83 82 84 88 84 82 84 96 98 97 98 99 98 98 96 97 96 94 94 89 89 85 78 67 68 77 92 94 92 93 87 76 74 75 73
90 90 90 87 88 87 86 91 91 84 84 83 79 76 77 82 96 98 98 98 97 97 97 97 96 93 88 84 81 79 78 76 68 70 79 88 89 87 88 85 84 78 77
87 90 93 91 89 86 88 91 92 89 79 77 73 70 73 76 84 92 96 97 95 97 96 94 92 87 88 87 83 82 84 83 74 64 75 78 82 87 88 85 89 88 88
94 92 89 92 89 88 93 97 97 94 85 77 68 65 67 69 74 82 86 90 91 93 92 89 87 90 88 86 76 79 86 86 87 89 82 77 82 82 86 80 90 94 92
98 96 92 95 93 92 95 96 97 93 95 90 84 75 68 65 71 79 83 82 84 85 85 86 87 86 89 91 90 87 86 84 90 91 92 91 87 83 81 81 89 90 97
94 96 97 94 96 94 94 91 96 94 96 92 93 90 79 77 78 78 83 86 80 82 82 85 85 90 85 89 89 95 94 88 93 92 96 91 91 82 79 76 86 89 93
98 98 96 96 94 92 95 98 98 98 98 98 96 95 90 84 85 84 85 91 91 87 87 88 89 87 92 96 92 90 97 95 97 95 94 95 94 93 86 85 85 85 83
95 96 95 97 96 97 97 96 96 90 95 97 97 97 98 94 92 91 92 93 94 97 95 93 94 96 97 98 99 99 99 97 98 97 94 86 82 82 86 87 87 82 81
95 97 97 96 98 99 98 96 98 98 97 98 99 98 98 98 97 96 97 99 99 99 99 99 99 99 99 99 99 99 99 100 98 99 98 97 88 88 86 84 85 84 82
96 97 98 97 97 99 98 98 97 97 97 99 100 100 99 99 99 98 98 98 98 99 99 98 98 98 98 99 98 98 96 97 99 99 99 98 94 91 89 88 87 88 94

GFSSE_sfc_rhum_108.txt.gz
RH
95 90 85 84 78 77 78 76 76 80 78 81 80 79 80 81 79 77 78 74 74 70 69 67 68 69 70 68 72 75 78 81 82 78 81 80 77 74 77 78 79 73 72
90 87 86 84 80 78 76 76 82 86 83 83 82 79 80 78 77 74 70 70 69 68 65 71 70 73 71 70 75 78 80 82 84 86 89 85 81 74 76 78 79 72 73
88 86 84 84 79 77 76 78 84 84 85 84 83 80 76 76 76 73 70 68 65 68 67 68 73 73 74 73 76 78 79 80 82 83 85 91 87 77 74 77 79 74 74
87 86 85 84 80 78 77 78 84 83 84 83 82 81 80 76 72 70 68 67 67 71 72 76 78 76 76 75 75 77 78 80 81 81 79 73 60 68 73 70 71 70 69
88 87 86 85 83 81 79 79 82 83 84 84 83 82 78 73 71 69 68 70 74 78 81 80 78 76 76 76 74 73 76 78 81 82 88 87 81 64 65 64 63 64 66
89 90 88 86 84 83 82 82 81 83 83 83 83 81 78 71 70 69 71 77 81 84 83 78 77 78 76 73 68 70 74 78 81 88 88 81 81 65 66 67 67 66 66
90 91 87 87 86 84 84 82 82 82 80 82 82 78 72 71 71 73 76 82 84 85 81 76 77 78 77 72 69 72 77 81 90 92 88 84 77 65 66 67 67 66 66
85 88 84 87 86 84 82 82 81 82 81 81 80 75 72 72 73 76 79 83 85 81 79 76 76 76 76 73 71 74 79 82 86 92 91 89 73 65 66 67 67 66 66
88 87 87 85 87 87 86 84 81 81 81 78 77 77 77 79 80 79 83 85 84 83 84 81 76 77 76 76 74 78 83 85 93 91 82 90 74 66 66 67 67 67 67
89 91 95 91 91 89 89 88 84 82 82 81 81 83 87 90 88 88 90 87 86 88 87 85 79 77 79 80 79 82 87 86 93 93 93 89 70 68 67 67 67 68 68
92 95 96 96 97 94 93 92 90 87 88 88 89 91 93 97 96 95 94 91 91 90 86 81 78 79 84 84 85 86 86 95 94 96 96 78 68 68 69 68 68 68 68
94 97 96 97 97 97 88 96 94 90 92 95 96 96 98 98 97 95 96 95 93 91 89 83 81 81 82 87 90 87 94 94 96 96 96 78 68 68 69 70 69 69 69
90 94 94 97 94 96 88 93 92 94 98 98 97 97 98 97 99 99 99 99 98 97 98 95 94 91 88 88 88 89 92 94 97 97 91 83 70 68 69 69 69 69 69
90 93 94 96 97 98 84 90 93 86 98 98 98 98 98 99 100 100 99 99 98 98 97 96 96 92 89 87 87 88 86 93 97 98 95 89 79 70 69 69 69 68 68
86 91 93 95 96 98 97 97 98 91 96 98 98 97 97 99 99 99 98 98 98 97 96 95 93 88 89 89 88 84 69 82 91 97 98 94 89 80 72 70 69 68 68
84 90 90 93 91 96 95 96 94 98 98 98 98 96 96 97 97 98 98 98 98 98 97 96 95 94 95 95 92 86 71 72 83 93 97 95 93 88 82 74 72 71 69
76 84 91 90 90 94 95 94 90 89 91 97 98 97 96 97 96 97 98 98 98 98 96 97 96 96 96 93 92 90 87 73 70 82 94 95 93 93 88 79 75 76 74
82 88 90 86 90 90 88 92 90 88 91 91 92 94 94 96 97 98 98 98 98 98 98 98 97 96 95 93 88 82 83 81 73 71 78 90 92 89 89 86 83 80 76
80 86 89 87 91 90 90 90 94 92 92 91 86 84 87 91 97 98 97 97 97 98 98 96 97 94 94 90 85 83 84 85 80 66 72 78 86 90 92 87 89 86 86
88 88 88 88 89 90 92 94 97 98 95 91 83 75 82 82 93 97 98 97 97 98 98 97 95 94 90 88 80 80 87 89 91 90 84 77 83 83 87 82 82 90 90
90 95 91 91 92 93 97 98 98 95 97 94 86 78 75 75 80 87 91 94 97 96 94 94 92 91 94 94 92 88 87 86 92 94 94 94 92 89 90 86 88 93 98
97 95 97 95 94 91 94 92 95 94 95 90 88 83 75 74 77 78 85 87 90 92 90 90 89 94 92 94 92 92 91 86 94 92 97 94 92 88 90 91 93 96 91
94 98 97 98 96 94 96 97 99 98 98 98 96 92 92 87 85 85 87 90 88 89 92 91 92 90 93 97 93 94 97 96 97 91 89 92 93 93 91 89 94 92 86
96 97 94 98 97 96 97 96 95 97 98 98 97 96 95 95 89 88 88 92 94 97 97 95 95 96 98 98 99 99 99 98 99 97 93 88 84 84 90 91 90 90 85
97 97 98 98 98 98 95 89 90 92 93 98 99 97 97 98 95 95 95 98 98 99 99 98 98 99 98 98 98 99 99 99 99 100 99 98 93 91 91 91 92 90 86
97 98 98 96 97 98 98 98 96 95 96 98 99 99 99 99 99 98 98 98 99 99 99 99 99 99 98 99 98 98 98 98 99 99 100 98 97 93 93 93 93 95 94

GFSSE_sfc_rhum_111.txt.gz
RH
77 71 84 84 78 75 77 77 80 83 84 82 81 79 81 81 78 79 76 73 72 77 70 69 67 70 68 71 76 78 78 73 74 77 82 82 78 76 76 75 73 60 71
71 69 85 82 80 81 80 81 82 83 85 83 82 80 79 79 76 76 74 69 70 63 68 68 69 71 71 76 78 79 78 80 81 82 86 84 83 79 76 77 79 67 70
71 70 73 83 83 82 82 85 84 83 85 84 82 80 78 76 74 71 74 73 70 70 72 73 72 68 74 76 77 78 80 81 83 82 84 63 66 77 75 77 76 72 67
71 71 69 83 83 82 84 85 87 86 86 84 82 80 81 77 72 71 71 73 73 75 76 76 75 76 75 76 78 78 79 78 80 78 54 53 49 67 66 65 66 67 65
73 72 72 82 83 82 85 87 86 86 86 83 80 81 82 76 71 68 72 76 77 83 82 79 77 78 76 75 77 77 78 79 81 66 59 61 54 61 66 66 64 65 64
76 71 80 83 84 83 86 88 88 86 84 82 83 82 78 75 70 71 77 80 85 85 82 80 77 76 73 70 70 72 75 78 74 61 60 62 56 64 66 66 66 65 65
77 74 73 85 84 84 85 88 88 86 85 84 82 79 74 73 71 73 80 85 87 83 80 78 77 75 70 69 70 74 77 80 58 59 59 59 58 65 66 66 66 65 64
80 77 74 85 86 85 85 88 87 86 84 83 81 78 74 74 74 76 83 87 86 80 80 79 76 75 70 70 72 76 80 79 61 60 62 58 70 66 66 66 66 66 65
78 78 76 73 79 86 85 86 86 86 85 83 82 79 79 78 79 78 86 87 84 82 82 82 79 76 73 72 74 79 83 84 60 60 58 57 74 67 67 67 67 66 66
83 79 79 75 70 72 75 87 87 87 86 84 82 84 86 85 84 86 89 87 86 87 84 83 82 79 78 76 78 82 86 84 59 63 61 60 70 67 67 68 68 67 66
88 83 81 78 76 75 70 77 86 89 88 86 86 90 88 68 71 74 85 91 89 90 85 83 82 84 88 87 85 85 82 60 58 61 60 77 69 68 69 69 69 68 68
91 88 83 80 78 79 74 77 74 71 66 66 67 71 77 78 75 72 85 93 92 91 86 81 80 83 75 61 66 78 58 60 59 62 61 78 68 68 70 70 70 69 69
88 88 84 81 79 77 81 84 78 77 76 75 74 75 80 80 78 77 81 82 80 87 72 71 66 60 61 56 59 58 61 60 58 61 71 82 69 68 69 70 70 70 70
89 85 83 82 81 78 80 83 79 77 79 78 78 77 81 85 85 83 83 82 80 74 75 70 62 61 61 59 56 54 55 61 60 62 69 90 79 69 68 68 69 68 68
88 88 88 87 84 73 75 88 78 75 76 78 81 79 78 84 84 81 80 78 76 74 68 67 61 60 59 58 56 54 50 57 62 63 62 92 89 78 71 69 68 68 67
91 90 87 87 83 79 83 86 85 77 78 78 80 81 78 76 78 78 80 78 76 71 69 62 58 59 62 64 63 56 46 49 54 64 62 63 92 87 81 73 72 70 69
85 88 88 87 86 84 88 88 86 84 77 75 77 78 78 75 77 76 74 75 71 72 72 71 70 73 72 70 68 62 60 51 47 51 62 62 65 93 88 80 78 77 75
81 89 90 85 88 88 85 87 84 82 78 75 75 76 75 75 72 74 71 73 74 75 74 77 77 75 72 68 66 60 57 59 54 49 52 57 62 59 77 85 82 77 73
80 83 88 86 88 88 90 86 82 81 79 78 78 78 77 77 77 76 75 74 77 80 79 78 79 74 74 71 66 60 58 58 58 53 50 52 58 63 60 78 87 87 84
80 85 87 86 87 88 91 88 87 84 75 76 77 78 79 78 82 81 79 78 78 81 80 81 78 76 70 68 65 63 64 64 66 66 56 53 54 59 60 64 70 71 88
86 87 88 90 90 91 93 94 94 87 90 87 79 74 76 74 80 83 81 81 82 80 78 78 77 78 77 72 70 68 69 71 72 82 73 64 66 65 63 62 64 64 74
88 88 91 89 92 89 91 87 88 88 88 87 88 77 71 73 75 76 78 81 83 83 81 79 76 76 73 75 74 83 79 76 83 79 80 72 71 71 77 78 81 88 90
96 91 89 92 92 91 91 93 94 92 91 89 88 86 82 76 81 81 79 82 81 81 83 82 81 76 82 86 81 83 92 94 96 92 87 88 90 88 84 87 85 87 85
91 96 95 96 92 96 96 93 93 92 92 89 90 91 90 83 82 83 85 83 85 89 87 88 88 91 94 94 94 92 89 86 97 93 90 86 82 83 89 91 88 87 83
97 96 96 98 97 92 99 95 97 97 96 97 95 93 94 91 82 86 89 88 95 96 96 96 97 96 94 91 91 95 96 97 97 99 99 97 94 94 86 90 92 91 90
98 97 96 95 93 94 93 99 98 97 96 94 97 96 97 95 98 93 95 95 94 94 96 96 96 96 93 92 90 87 93 96 96 98 99 97 94 92 91 90 94 94 90

GFSSE_sfc_rhum_114.txt.gz
RH
47 55 82 80 81 80 79 82 85 84 85 84 81 80 80 79 78 77 78 78 79 77 67 70 67 66 72 76 71 71 74 76 77 80 84 82 79 76 74 75 70 55 67
46 54 85 83 79 82 82 84 87 86 85 84 82 78 79 79 77 75 76 76 74 71 68 64 68 71 75 77 74 75 76 76 79 81 84 87 83 78 76 75 75 59 66
45 53 67 82 75 82 84 85 87 86 85 85 83 81 78 76 75 74 74 72 73 74 70 70 70 76 76 76 77 79 80 81 78 79 77 63 64 75 69 70 69 65 64
44 56 57 84 83 84 85 84 86 87 85 84 84 82 80 77 76 75 74 71 77 76 77 73 74 78 78 79 76 78 77 76 76 72 42 40 46 67 65 67 65 64 64
48 56 63 85 84 85 86 85 85 87 86 85 83 81 81 78 75 75 76 75 83 83 82 80 76 76 78 79 79 78 78 74 73 50 45 46 46 59 65 62 63 64 64
52 53 79 86 85 86 88 86 86 87 86 84 81 82 80 77 75 76 78 86 86 84 82 78 77 76 74 76 74 75 74 70 64 42 45 52 51 64 65 65 65 64 64
54 59 68 86 85 88 89 87 87 86 84 82 83 81 78 76 76 80 84 88 86 84 80 76 72 70 70 70 72 74 74 74 40 42 45 48 55 65 65 65 65 64 64
59 64 66 83 86 89 89 88 87 85 85 84 82 80 78 77 79 81 87 87 84 82 79 75 70 70 70 71 73 75 75 69 44 46 48 52 69 66 65 66 65 65 64
63 61 65 61 73 91 91 89 88 86 85 83 81 79 79 79 81 81 88 85 83 83 83 81 74 70 71 73 76 79 81 76 43 44 42 49 75 66 66 67 66 65 65
75 64 62 56 53 64 74 93 89 86 86 84 83 84 86 86 84 87 89 86 86 86 85 84 79 73 73 75 78 82 83 77 43 46 45 56 70 68 68 68 67 66 66
83 71 59 52 47 47 65 80 92 93 90 88 86 90 84 53 63 72 78 91 88 87 87 85 83 82 85 86 83 83 82 40 40 43 46 77 68 68 69 69 69 68 67
90 79 61 51 49 45 51 75 71 69 60 59 64 58 44 45 48 54 77 92 90 88 87 85 85 85 77 49 54 74 41 41 42 45 50 77 68 68 69 70 70 70 69
90 77 64 55 54 45 46 60 69 66 62 58 55 46 41 43 50 59 76 74 65 76 55 61 62 47 47 43 46 42 41 41 41 44 65 76 69 69 69 70 70 70 69
97 81 68 57 51 44 44 44 50 60 58 49 47 46 57 63 51 55 68 66 62 51 51 48 44 45 46 44 41 40 42 42 41 43 62 87 75 69 69 69 69 69 69
92 87 77 64 50 47 48 45 44 46 48 46 47 54 62 65 58 57 58 58 52 50 48 45 42 44 44 42 42 41 40 43 45 44 43 88 87 75 71 70 70 69 68
91 93 77 73 51 55 57 48 45 46 46 48 47 52 60 55 52 52 53 54 52 48 44 43 41 41 43 41 42 40 36 38 40 45 42 52 90 87 78 73 71 70 70
94 90 79 71 59 55 77 62 53 48 48 50 50 51 55 53 54 54 51 52 49 45 44 43 42 42 45 48 48 44 45 42 39 39 40 42 54 93 87 82 76 76 73
91 93 74 72 69 59 75 79 71 56 47 49 50 51 52 50 53 52 51 49 46 45 44 44 43 48 52 54 53 50 48 48 44 42 41 41 47 44 78 86 83 78 75
70 89 84 78 73 69 76 82 83 71 54 46 44 46 50 48 49 49 47 46 48 53 56 57 59 56 60 59 56 51 48 47 48 43 44 42 43 48 47 82 87 88 84
75 79 84 81 77 73 78 78 77 68 62 59 52 47 47 44 48 50 50 53 56 60 59 61 61 61 58 57 52 52 50 51 51 50 47 43 42 47 48 49 52 60 86
80 82 83 86 82 84 82 88 84 72 68 64 60 60 58 55 58 59 57 59 61 62 61 62 64 67 67 62 57 52 53 54 56 56 55 58 55 54 52 49 51 56 64
91 84 84 85 88 85 82 82 83 76 65 63 65 63 61 61 64 63 64 65 64 64 66 66 67 72 64 57 58 61 61 59 60 59 63 65 68 67 65 80 72 70 81
94 87 86 88 90 87 83 86 85 82 81 77 76 71 68 64 70 71 67 71 70 74 76 70 67 68 66 69 71 67 70 68 68 69 67 77 78 74 80 83 84 88 84
95 93 88 93 94 87 80 89 89 86 85 76 76 78 75 65 69 73 78 73 72 76 76 76 74 78 91 90 84 77 76 75 75 72 70 66 68 78 87 86 90 81 83
96 98 99 98 97 97 90 92 93 86 81 81 80 81 81 79 70 74 73 69 76 80 89 92 93 91 85 80 82 86 88 85 82 92 98 96 93 97 92 80 86 90 86
95 95 97 99 99 98 97 97 93 95 97 96 92 90 90 90 90 87 87 86 88 94 94 86 79 83 84 83 80 82 81 86 90 93 97 93 92 90 89 86 88 86 90

GFSSE_sfc_rhum_117.txt.gz
RH
40 56 84 84 82 83 86 84 84 86 85 83 80 78 77 77 78 77 77 78 75 76 70 65 66 69 68 70 74 77 78 78 80 81 85 82 79 76 72 72 66 54 65
40 54 84 84 84 84 87 85 85 87 86 84 82 76 78 78 77 76 77 76 73 70 69 67 72 74 72 70 72 73 74 75 79 85 85 85 82 75 71 70 71 60 65
42 51 64 84 85 85 87 87 87 87 87 85 82 80 78 76 75 76 76 76 74 71 68 73 75 74 75 77 78 79 78 74 75 79 79 58 62 69 67 67 69 65 65
40 52 55 84 86 86 87 89 88 87 87 85 83 81 79 77 77 77 77 79 77 76 76 79 79 81 79 76 75 76 71 68 69 69 41 43 48 66 65 65 64 64 65
45 57 58 83 83 86 87 89 88 87 86 86 84 82 81 78 76 76 75 79 80 80 80 78 80 82 81 75 78 74 66 68 66 49 45 51 53 60 64 63 63 65 66
54 57 80 85 81 86 86 88 89 87 86 85 84 82 81 78 78 76 82 86 85 85 81 76 77 78 79 79 77 70 65 67 66 44 49 56 57 64 65 65 65 64 64
55 62 69 86 84 88 87 86 88 87 86 85 83 82 81 79 79 81 87 87 86 84 80 76 73 74 73 72 70 68 68 71 41 44 49 55 60 65 64 64 65 64 65
58 71 63 84 86 88 88 86 89 87 85 84 84 82 80 78 82 87 88 87 85 81 75 71 70 71 72 72 72 70 71 73 43 47 54 60 70 66 66 66 65 65 65
65 78 70 66 74 93 90 89 88 87 85 85 84 82 80 82 84 87 88 86 85 82 79 76 71 71 72 73 74 75 77 72 43 45 48 57 74 66 66 66 66 65 65
67 76 72 63 58 62 74 92 89 88 87 86 85 85 87 88 88 90 89 87 85 85 83 78 76 72 74 76 78 78 77 74 43 46 52 63 71 67 68 67 67 66 66
78 78 74 62 50 51 64 79 92 91 89 89 87 90 85 57 64 76 80 92 88 87 85 82 79 79 84 85 81 80 82 39 40 45 55 77 70 69 69 69 68 68 67
86 82 77 56 44 45 59 75 72 74 74 70 68 64 50 48 55 66 83 93 91 90 88 85 82 84 76 52 55 74 44 38 42 47 59 78 69 69 70 71 70 70 68
81 84 84 51 40 41 56 76 80 77 67 68 64 52 36 43 55 74 82 69 70 80 66 72 71 57 47 42 46 39 37 38 40 45 69 79 70 69 70 70 70 70 69
74 82 91 50 40 38 49 72 74 72 67 66 64 41 36 42 56 73 69 68 57 53 54 54 48 43 43 40 39 39 38 40 40 45 69 82 75 69 69 69 70 70 69
79 78 91 66 45 35 43 56 68 71 64 55 55 36 38 44 47 68 69 69 52 47 46 46 42 43 42 39 38 38 40 41 42 45 57 88 84 75 70 70 69 69 69
84 83 83 90 51 36 38 47 56 64 60 44 44 49 64 50 46 59 67 61 51 47 44 42 42 42 42 39 39 37 36 39 39 43 46 67 88 86 77 72 71 70 69
94 90 95 89 51 39 39 38 40 46 45 44 43 54 67 51 50 52 51 50 48 46 41 40 39 40 42 42 43 40 39 36 38 40 44 48 70 92 88 80 76 74 73
92 90 92 90 56 51 42 42 40 42 42 44 43 49 54 47 49 51 51 49 46 43 42 43 42 47 51 55 53 52 49 50 44 41 43 42 49 50 83 87 85 80 77
90 92 91 93 65 66 59 51 45 42 44 46 46 48 48 47 49 50 48 46 43 44 43 46 47 49 59 58 57 53 53 52 49 44 42 43 46 51 51 86 88 87 86
90 95 87 88 79 73 76 77 63 49 45 47 49 50 49 47 48 47 46 44 44 51 54 58 58 58 57 56 53 51 53 56 53 52 45 43 44 48 52 56 69 70 88
92 95 94 94 81 80 90 95 88 69 52 49 48 47 49 43 45 46 45 48 51 56 56 56 59 64 67 63 63 60 56 52 53 54 54 53 53 57 54 57 63 70 74
93 92 95 88 84 80 83 82 76 70 64 65 64 52 48 45 50 49 54 55 56 59 61 61 64 71 71 66 64 66 68 64 59 58 60 63 64 72 77 81 82 78 82
92 95 89 88 86 82 80 82 79 75 71 73 70 67 67 60 63 62 63 62 63 63 68 69 71 74 73 69 63 72 72 77 71 66 67 71 77 79 82 84 81 86 88
90 91 92 84 93 85 80 85 82 84 81 72 73 71 73 64 69 72 72 71 73 80 77 77 73 75 82 91 81 76 76 74 85 80 70 66 65 69 78 84 88 88 88
86 94 92 92 94 90 86 84 86 83 77 75 74 77 75 70 70 75 77 80 82 82 79 79 82 89 88 86 83 83 82 84 78 87 86 92 90 87 84 91 90 92 89
92 97 98 97 93 91 84 84 86 84 81 82 84 83 80 81 81 81 79 81 83 83 85 90 97 92 82 82 79 80 84 86 87 86 92 86 87 74 79 80 82 85 83

GFSSE_sfc_rhum_120.txt.gz
RH
71 84 88 86 88 87 86 87 87 86 82 83 77 78 78 77 78 76 76 75 75 74 66 66 67 69 73 75 76 77 78 80 80 82 85 83 76 70 66 67 71 62 65
71 80 88 86 88 88 86 87 88 87 85 84 81 77 76 77 77 77 77 74 74 69 67 72 68 70 73 73 74 74 77 79 81 84 84 83 79 70 68 70 72 64 66
69 73 81 87 88 88 86 87 88 88 86 84 82 78 78 76 76 78 75 75 75 70 73 74 70 70 72 74 77 78 76 78 80 80 77 72 72 68 66 69 71 66 65
59 69 74 88 87 89 88 88 88 88 86 84 82 82 80 78 77 77 77 76 75 77 78 79 79 79 78 78 74 69 64 70 72 77 56 60 58 65 65 65 65 65 65
57 63 70 88 87 89 89 89 89 88 86 85 83 82 81 79 78 78 78 79 83 83 82 81 81 77 71 77 72 63 65 71 71 61 64 72 74 62 64 65 65 64 65
57 60 87 88 88 88 89 89 89 88 87 86 84 82 80 80 78 80 82 85 85 85 82 79 80 78 73 78 68 64 67 69 67 65 70 71 72 64 65 65 65 65 65
58 66 79 86 88 88 89 89 89 88 87 86 84 83 80 79 80 84 86 87 85 83 78 78 77 78 78 73 66 66 69 74 59 70 75 77 72 65 65 65 65 65 65
64 78 75 84 84 88 89 90 89 88 88 86 84 82 80 80 86 87 87 88 85 79 76 73 74 72 71 69 68 70 75 74 60 71 78 82 73 66 65 65 65 65 65
77 79 80 78 81 90 91 91 90 89 88 86 84 81 82 86 89 88 88 86 83 79 77 76 72 72 72 71 72 73 72 76 65 69 66 81 75 66 67 66 66 66 65
83 81 82 78 77 81 90 93 93 90 89 87 85 86 91 91 90 89 90 86 85 82 80 79 75 73 74 74 74 77 76 74 65 70 79 83 71 68 68 68 67 66 66
86 82 80 76 74 74 81 91 94 93 91 89 91 91 88 86 87 85 88 91 88 84 82 80 78 78 84 82 79 80 79 68 65 73 84 79 70 69 69 69 68 68 67
92 91 82 76 69 65 68 90 92 89 88 83 78 73 71 79 84 83 92 92 90 89 86 82 82 84 78 80 82 80 79 60 67 75 86 78 70 70 71 71 70 69 68
84 92 84 81 69 62 68 90 90 91 83 80 72 64 64 68 87 89 96 95 97 94 92 92 93 84 80 70 69 74 61 60 67 74 83 80 71 70 71 72 71 70 69
94 86 89 86 96 70 84 87 87 90 77 80 68 60 55 68 90 86 83 88 90 87 93 88 86 80 68 60 62 56 55 60 67 77 90 81 77 70 70 70 71 70 70
89 90 80 84 92 96 77 85 87 90 78 75 66 56 54 70 84 72 78 74 77 76 75 76 73 64 63 57 53 52 55 57 60 73 90 88 82 77 71 70 70 69 69
88 90 91 86 84 88 87 80 87 84 74 76 63 56 47 67 78 71 75 81 77 66 67 67 64 62 63 58 55 53 51 56 56 64 83 92 87 84 77 71 70 70 69
90 89 91 81 83 82 94 76 87 77 70 72 60 75 70 66 71 70 68 79 75 60 60 59 58 59 60 60 58 53 51 51 53 56 72 84 90 91 88 76 74 73 73
89 88 92 83 85 89 95 76 82 82 79 56 58 76 72 68 64 70 64 72 62 64 61 62 62 64 70 71 74 66 67 64 61 56 55 69 81 78 90 89 87 82 78
90 89 90 91 86 91 90 70 65 73 62 50 64 68 66 64 64 61 62 63 62 64 63 60 65 68 79 78 73 73 70 71 65 56 61 58 61 68 83 87 89 89 87
92 91 94 93 89 91 77 63 58 58 52 52 60 61 63 56 62 66 66 63 62 66 70 73 71 77 77 79 64 65 75 72 72 71 66 57 60 61 62 75 82 85 90
92 95 95 96 94 87 82 78 69 62 61 64 63 59 58 57 59 62 64 58 65 72 77 75 79 81 87 84 84 83 79 72 73 74 76 77 77 77 81 87 90 89 90
94 94 94 97 92 87 81 72 61 60 61 64 68 61 64 59 62 59 61 61 71 76 77 77 82 90 90 87 86 87 87 85 81 77 86 84 91 90 89 90 91 93 96
96 96 93 90 94 91 82 79 76 75 65 68 67 66 68 64 67 68 72 69 76 79 82 84 87 88 93 92 82 90 89 94 90 88 90 92 91 94 94 92 89 91 93
95 93 92 92 99 93 87 84 84 78 78 71 67 65 69 67 69 80 79 80 84 89 90 91 88 91 94 96 91 87 91 92 96 94 89 88 88 87 92 95 94 92 92
93 94 93 92 96 97 88 84 86 84 81 77 78 84 76 79 78 87 86 91 93 95 93 94 97 96 93 95 94 95 94 93 88 96 96 96 95 96 96 96 95 96 93
94 94 96 94 89 95 97 88 88 85 91 90 88 91 90 90 92 92 91 92 94 95 96 96 96 95 96 94 93 93 95 96 96 95 96 92 96 93 94 96 96 96 96

GFSSE_sfc_rhum_123.txt.gz
RH
92 88 88 88 88 88 88 88 86 81 78 80 78 78 78 78 76 74 73 73 73 74 70 67 74 76 77 76 75 77 79 80 79 80 82 78 70 67 67 68 70 64 65
88 85 88 88 88 88 88 88 86 84 83 82 81 77 77 76 76 75 75 73 71 68 66 69 73 73 74 73 75 77 77 76 76 80 81 82 76 70 68 70 73 65 65
85 84 85 90 89 88 88 88 87 86 86 83 82 77 77 77 78 76 76 75 71 73 72 68 73 72 74 78 78 78 79 77 78 79 80 82 74 68 67 68 68 66 64
79 83 85 91 89 88 88 89 87 87 87 84 82 82 80 78 78 77 76 76 76 77 77 76 77 77 78 76 72 67 66 74 74 74 70 69 62 67 66 65 65 64 64
81 80 86 91 90 88 87 89 87 87 87 84 84 84 81 81 79 78 79 83 83 83 82 81 78 79 78 74 72 68 72 75 76 70 76 80 77 63 66 65 65 63 65
80 81 90 90 90 88 88 88 88 87 87 85 84 84 82 82 79 81 86 88 87 86 83 78 76 78 77 74 70 67 70 76 76 80 84 76 75 65 65 66 65 64 65
74 83 86 89 89 89 89 89 89 88 87 86 84 84 83 82 81 84 88 88 87 85 79 74 71 78 77 73 68 69 75 78 75 86 86 82 74 65 65 66 66 64 65
74 84 83 88 89 89 89 89 89 88 88 86 84 83 82 82 85 87 87 86 85 81 78 75 78 76 70 70 70 71 76 76 74 85 87 86 73 66 66 66 66 65 64
84 84 84 84 88 91 90 89 90 89 88 87 85 83 82 88 88 86 88 86 82 79 79 78 73 70 69 71 70 75 80 82 81 80 75 86 75 67 67 67 66 66 66
92 89 87 81 82 87 91 92 92 91 91 88 86 88 91 92 90 89 89 86 83 81 81 79 74 72 72 74 73 76 82 82 85 85 87 85 71 68 68 68 67 67 67
96 95 92 86 85 89 90 93 95 94 93 92 92 93 94 91 91 90 91 89 85 83 82 80 76 78 81 78 74 73 79 78 85 88 91 80 71 69 70 69 69 68 68
86 97 95 92 84 84 81 93 97 94 92 89 87 85 88 89 89 90 93 91 87 86 84 81 81 82 80 79 78 81 79 81 85 91 92 80 71 71 72 71 70 69 68
94 96 93 96 91 84 80 95 94 96 95 91 87 75 83 82 94 95 96 95 96 95 93 93 93 88 79 76 77 81 76 82 89 90 86 80 72 71 72 72 72 70 69
94 89 88 88 94 92 93 92 89 96 90 90 82 68 74 90 97 97 98 98 98 98 97 97 96 88 84 76 74 74 69 78 87 92 92 83 78 71 71 71 71 70 70
90 92 88 91 95 95 95 93 92 94 84 86 81 66 70 93 94 88 94 95 98 97 97 96 92 86 82 73 65 60 64 75 85 89 97 88 82 77 71 70 70 70 69
92 88 87 84 86 94 97 94 94 90 78 88 82 60 66 86 83 82 86 88 90 88 86 87 84 76 68 63 60 57 58 68 79 88 95 94 87 83 77 72 71 70 70
93 87 84 82 85 88 91 90 97 86 76 89 81 55 64 79 75 77 79 81 80 75 78 77 72 69 67 64 63 58 56 61 64 84 89 96 93 90 85 75 74 73 73
94 92 89 79 81 86 91 93 94 91 87 88 75 53 68 75 72 72 75 78 80 69 69 68 67 68 71 74 78 68 68 65 63 64 82 87 93 89 93 89 86 80 78
86 92 92 87 83 87 91 92 91 94 90 88 73 54 68 71 70 67 68 73 73 60 70 66 70 72 84 85 79 79 77 74 68 62 64 74 87 86 90 90 92 91 88
75 84 89 88 84 87 91 92 95 94 90 80 67 59 70 69 67 64 62 72 61 66 70 68 68 79 86 82 70 72 78 75 74 74 72 66 69 72 81 82 92 92 92
89 92 92 91 82 92 93 95 96 97 91 73 66 63 68 66 64 65 66 60 60 64 72 70 77 86 92 87 85 84 83 81 79 83 85 87 87 89 91 95 96 94 93
86 89 95 89 87 93 90 89 91 90 74 69 68 62 63 64 64 59 58 59 62 72 79 83 85 94 92 88 89 92 93 87 88 86 92 88 91 93 92 93 94 96 97
85 96 94 90 91 93 94 80 80 80 80 73 72 71 71 66 67 64 62 64 67 68 79 85 90 90 96 93 87 88 94 95 95 94 92 93 91 95 95 94 94 95 95
84 91 93 89 91 86 97 82 79 80 77 68 72 71 72 65 67 73 71 72 75 83 86 88 90 92 94 93 92 92 93 92 94 98 94 92 92 90 93 96 95 95 95
84 91 93 91 91 96 94 90 80 74 69 68 70 74 71 69 69 74 71 74 86 84 89 92 96 96 95 95 94 97 95 96 94 96 97 96 94 96 95 96 96 96 94
95 96 96 93 90 92 92 93 82 77 80 76 75 76 78 75 74 83 82 83 92 91 92 94 95 93 94 94 95 95 95 96 98 97 96 90 95 94 96 97 97 97 96

GFSSE_sfc_rhum_126.txt.gz
RH
91 91 88 88 89 87 87 85 80 82 82 81 78 78 75 72 70 75 76 76 76 74 69 74 74 74 75 75 76 78 79 79 79 76 77 75 70 68 68 68 70 65 64
83 86 88 89 89 88 87 86 81 84 84 83 80 78 77 74 72 72 72 71 72 67 72 75 75 75 73 72 75 76 75 75 75 78 83 82 78 69 68 70 73 65 65
85 84 86 89 89 89 89 87 84 85 85 84 82 78 77 76 75 74 73 70 68 69 74 74 75 70 72 74 77 74 73 71 74 77 81 84 78 67 66 67 68 62 63
84 85 86 90 89 88 90 87 87 87 86 85 83 82 80 77 76 76 73 73 75 75 76 75 75 78 78 75 72 74 72 71 75 77 78 75 64 63 63 63 64 63 70
85 84 88 91 89 88 89 87 87 88 86 85 84 83 82 81 78 78 76 80 81 80 82 80 79 78 75 77 76 75 70 74 79 76 82 83 78 62 66 64 65 62 67
90 88 93 92 89 89 90 87 87 89 87 86 85 84 83 81 81 80 84 86 85 85 83 79 80 75 75 77 73 72 74 78 81 87 88 78 74 63 65 63 63 61 68
92 92 92 90 90 89 90 88 88 88 87 86 85 84 84 81 82 86 88 88 86 83 79 77 78 73 73 75 71 74 77 82 86 92 89 85 70 64 64 64 64 64 63
90 93 88 91 90 91 90 90 89 89 88 87 86 84 84 83 86 88 89 88 83 79 77 74 78 72 72 71 74 77 81 80 82 91 89 87 73 65 66 65 65 62 62
91 92 91 90 91 93 91 91 90 90 89 87 86 85 85 86 89 87 89 87 84 81 79 79 77 70 72 71 77 82 85 86 90 88 79 89 75 66 66 66 66 65 65
96 94 94 93 92 92 93 94 92 91 91 89 88 89 92 93 91 89 89 87 85 84 84 80 74 72 75 77 82 84 86 87 92 91 90 87 71 68 68 67 66 66 66
97 98 97 96 94 93 92 92 94 94 95 94 92 94 97 92 92 91 90 89 85 84 82 78 77 79 80 79 82 81 84 92 94 94 94 79 71 69 69 69 68 68 68
76 95 98 95 92 96 86 95 95 94 92 93 92 91 92 94 92 91 91 91 87 86 85 81 80 80 79 80 85 83 86 92 95 95 96 80 71 71 72 71 70 69 68
92 94 94 97 97 95 86 97 95 97 96 96 95 89 92 92 96 95 95 95 96 94 95 93 93 85 78 78 82 86 88 93 98 96 89 81 73 72 73 73 72 70 69
87 88 87 90 98 98 96 92 87 95 90 95 90 86 85 91 93 92 91 99 98 98 98 97 96 89 79 78 82 84 85 92 96 98 94 84 79 72 73 72 72 72 70
83 87 88 88 94 98 99 92 85 91 88 92 87 85 82 90 90 85 89 98 98 99 97 97 95 90 89 89 81 72 79 89 92 97 97 89 83 78 72 72 72 71 70
86 85 88 86 87 97 98 92 94 91 87 93 85 80 78 84 92 94 97 98 98 96 96 94 93 91 89 78 71 70 76 85 90 95 97 95 88 84 78 72 72 71 70
89 84 88 85 90 92 97 96 92 92 89 92 84 73 79 81 84 90 91 94 93 94 95 92 89 87 80 70 68 63 71 82 87 91 95 97 94 90 85 75 74 74 74
82 89 85 79 87 86 97 98 98 96 94 94 89 72 82 80 78 85 85 86 86 86 87 86 84 81 76 76 73 68 65 67 79 91 90 94 96 93 93 88 85 79 78
77 87 87 88 82 81 96 95 97 94 97 94 92 75 78 78 76 78 79 80 81 81 79 76 78 75 83 87 84 83 83 76 73 66 81 89 92 94 95 93 93 92 91
67 83 85 85 85 85 94 97 97 95 98 94 92 79 73 77 74 73 72 74 77 77 78 76 74 84 87 87 74 80 83 79 78 79 72 68 81 87 88 87 91 95 92
62 78 89 90 87 90 98 98 98 97 94 93 95 77 73 76 71 70 69 74 72 72 70 64 77 87 94 91 89 90 89 88 85 86 87 92 92 94 94 96 98 97 96
62 76 84 85 84 83 88 92 92 92 92 93 94 91 73 77 72 66 64 69 69 67 67 68 84 95 95 92 92 94 95 91 91 90 94 92 94 95 95 94 96 98 98
78 86 83 85 86 82 82 86 90 90 90 93 96 91 87 75 75 67 64 66 67 63 67 70 82 90 96 96 86 86 97 96 96 95 93 94 92 95 96 95 96 96 96
73 86 85 86 88 84 92 94 91 91 93 90 84 93 88 76 76 72 71 68 67 67 74 78 82 90 94 96 96 94 92 93 94 99 95 94 94 92 94 96 96 96 96
76 92 89 87 89 88 93 92 92 86 91 84 83 88 89 78 73 71 70 71 72 78 79 85 92 91 94 94 94 97 96 97 95 95 97 97 95 96 96 96 97 97 96
90 86 88 85 92 90 93 95 92 90 91 96 91 90 86 82 76 74 72 73 78 82 88 89 92 94 94 93 95 95 96 95 97 97 98 95 94 93 97 98 98 98 97